[[{"header":{"parameterUnit":"m.s-1","parameterCategory":1,"la1":31.0,"la2":29.5877,"lo1":-88.7671,"lo2":-86.6584,"dy":0.0162,"dx":0.0185,"nx":115,"ny":88,"refTime":"2023-09-02T06:00:00:Z","depth":0,"parameterNumber":2,"parameterNumberName":"U-component_of_WINDS"},"data":[0.0,0.0,0.0,0.0,0.0,0.0,0.0,0.0,0.0,0.0,0.0,0.0,0.0,0.0,0.0,0.0,0.0,0.0,0.0,0.0,0.0,0.0,0.0,0.0,0.0,0.0,0.0,0.0,0.0,0.0,0.0,0.0,0.0,0.0,0.0,0.0,0.0,0.0,0.0,0.0,0.0,0.0,0.0,0.0,0.0,0.0,0.0,0.0,0.0,0.0,0.0,0.0,0.0,0.0,0.0,0.0,0.0,0.0,0.0,0.0,0.0,0.0,0.0,0.0,0.0,0.0,0.0,0.0,0.0,0.0,0.0,0.0,0.0,0.0,0.0,0.0,0.0,0.0,0.0,0.0,0.0,0.0,0.0,0.0,0.0,0.0,0.0,0.0,0.0,0.0,0.0,0.0,0.0,0.0,0.0,0.0,0.0,0.0,0.0,0.0,0.0,0.0,0.0,0.0,0.0,0.0,0.0,0.0,0.0,0.0,0.0,0.0,0.0,0.0,0.0,0.0,0.0,0.0,0.0,0.0,0.0,0.0,0.0,0.0,0.0,0.0,0.0,0.0,0.0,0.0,0.0,0.0,0.0,0.0,0.0,0.0,0.0,0.0,0.0,0.0,0.0,0.0,0.0,0.0,0.0,0.0,0.0,0.0,0.0,0.0,0.0,0.0,0.0,0.0,0.0,0.0,0.0,0.0,0.0,0.0,0.0,0.0,0.0,0.0,0.0,0.0,0.0,0.0,0.0,0.0,0.0,0.0,0.0,0.0,0.0,0.0,0.0,0.0,0.0,0.0,0.0,0.0,0.0,0.0,0.0,0.0,0.0,0.0,0.0,0.0,0.0,0.0,0.0,0.0,0.0,0.0,0.0,0.0,0.0,0.0,0.0,0.0,0.0,0.0,0.0,0.0,0.0,0.0,0.0,0.0,0.0,0.0,0.0,0.0,0.0,0.0,0.0,0.0,0.0,0.0,0.0,0.0,0.0,0.0,0.0,0.0,0.0,0.0,0.0,0.0,0.0,0.0,0.0,0.0,0.0,0.0,0.0,0.0,0.0,0.0,0.0,0.0,0.0,0.0,0.0,0.0,0.0,0.0,0.0,0.0,0.0,0.0,0.0,0.0,0.0,0.0,0.0,0.0,0.0,0.0,0.0,0.0,0.0,0.0,0.0,0.0,0.0,0.0,0.0,0.0,0.0,0.0,0.0,0.0,0.0,0.0,0.0,0.0,0.0,0.0,0.0,0.0,0.0,0.0,0.0,0.0,0.0,0.0,0.0,0.0,0.0,0.0,0.0,0.0,0.0,0.0,0.0,0.0,0.0,0.0,0.0,0.0,0.0,0.0,0.0,0.0,0.0,0.0,0.0,0.0,0.0,0.0,0.0,0.0,0.0,0.0,0.0,0.0,0.0,0.0,0.0,0.0,0.0,0.0,0.0,0.0,0.0,0.0,0.0,0.0,0.0,0.0,0.0,0.0,0.0,0.0,0.0,0.0,0.0,0.0,0.0,0.0,0.0,0.0,0.0,0.0,0.0,0.0,0.0,0.0,0.0,0.0,0.0,0.0,0.0,0.0,0.0,0.0,0.0,0.0,0.0,0.0,0.0,0.0,0.0,0.0,0.0,0.0,0.0,0.0,0.0,0.0,0.0,0.0,0.0,0.0,0.0,0.0,0.0,0.0,0.0,0.0,0.0,0.0,0.0,0.0,0.0,0.0,0.0,0.0,0.0,0.0,0.0,0.0,0.0,0.0,0.0,0.0,0.0,0.0,0.0,0.0,0.0,0.0,0.0,0.0,0.0,0.0,0.0,0.0,0.0,0.0,0.0,0.0,0.0,0.0,0.0,0.0,0.0,0.0,0.0,0.0,0.0,0.0,0.0,0.0,0.0,0.0,0.0,0.0,0.0,0.0,0.0,0.0,0.0,0.0,0.0,0.0,0.0,0.0,0.0,0.0,0.0,0.0,0.0,0.0,0.0,0.0,0.0,0.0,0.0,0.0,0.0,0.0,0.0,0.0,0.0,0.0,0.0,0.0,0.0,0.0,0.0,0.0,0.0,0.0,0.0,0.0,0.0,0.0,0.0,0.0,0.0,0.0,0.0,0.0,0.0,0.0,0.0,0.0,0.0,0.0,0.0,0.0,0.0,0.0,0.0,0.0,0.0,0.0,0.0,0.0,0.0,0.0,0.0,0.0,0.0,0.0,0.0,0.0,0.0,0.0,0.0,0.0,0.0,0.0,0.0,0.0,0.0,0.0,0.0,0.0,0.0,0.0,0.0,0.0,0.0,0.0,0.0,0.0,0.0,0.0,0.0,0.0,0.0,0.0,0.0,0.0,0.0,0.0,0.0,0.0,0.0,0.0,0.0,0.0,0.0,0.0,0.0,0.0,0.0,0.0,0.0,0.0,0.0,0.0,0.0,0.0,0.0,0.0,0.0,0.0,0.0,0.0,0.0,0.0,0.0,0.0,0.0,0.0,0.0,0.0,0.0,0.0,0.0,0.0,0.0,0.0,0.0,0.0,0.0,0.0,0.0,0.0,0.0,0.0,0.0,0.0,0.0,0.0,0.0,0.0,0.0,0.0,0.0,0.0,0.0,0.0,0.0,0.0,0.0,0.0,0.0,0.0,0.0,0.0,0.0,0.0,0.0,0.0,0.0,0.0,0.0,0.0,0.0,0.0,0.0,0.0,0.0,0.0,0.0,0.0,0.0,0.0,0.0,0.0,0.0,0.0,0.0,0.0,0.0,0.0,0.0,0.0,0.0,0.0,0.0,0.0,0.0,0.0,0.0,0.0,0.0,0.0,0.0,0.0,0.0,0.0,0.0,0.0,0.0,0.0,0.0,0.0,0.0,0.0,0.0,0.0,0.0,0.0,0.0,0.0,0.0,0.0,0.0,0.0,0.0,0.0,0.0,0.0,0.0,0.0,0.0,0.0,0.0,0.0,0.0,0.0,0.0,0.0,0.0,0.0,0.0,0.0,0.0,0.0,0.0,0.0,0.0,0.0,0.0,0.0,0.0,0.0,0.0,0.0,0.0,0.0,0.0,0.0,0.0,0.0,0.0,0.0,0.0,0.0,0.0,0.0,0.0,0.0,0.0,0.0,0.0,0.0,0.0,0.0,0.0,0.0,0.0,0.0,0.0,0.0,0.0,0.0,0.0,0.0,0.0,0.0,0.0,0.0,0.0,0.0,0.0,0.0,0.0,0.0,0.0,0.0,0.0,0.0,0.0,0.0,0.0,0.0,0.0,0.0,0.0,0.0,0.0,0.0,0.0,0.0,0.0,0.0,0.0,0.0,0.0,0.0,0.0,0.0,0.0,0.0,0.0,0.0,0.0,0.0,0.0,0.0,0.0,0.0,0.0,0.0,0.0,0.0,0.0,0.0,0.0,0.0,0.0,0.0,0.0,0.0,0.0,0.0,0.0,0.0,0.0,0.0,0.0,0.0,0.0,0.0,0.0,0.0,0.0,0.0,0.0,0.0,0.0,0.0,0.0,0.0,0.0,0.0,0.0,0.0,0.0,0.0,0.0,0.0,0.0,0.0,0.0,0.0,0.0,0.0,0.0,0.0,0.0,0.0,0.0,0.0,0.0,0.0,0.0,0.0,0.0,0.0,0.0,0.0,0.0,0.0,0.0,0.0,0.0,0.0,0.0,0.0,0.0,0.0,0.0,0.0,0.0,0.0,0.0,0.0,0.0,0.0,0.0,0.0,0.0,0.0,0.0,0.0,0.0,0.0,0.0,0.0,0.0,0.0,0.0,0.0,0.0,0.0,0.0,0.0,0.0,0.0,0.0,0.0,0.0,0.0,0.0,0.0,0.0,0.0,0.0,0.0,0.0,0.0,0.0,0.0,0.0,0.0,0.0,0.0,0.0,0.0,0.0,0.0,0.0,0.0,0.0,0.0,0.0,0.0,0.0,0.0,0.0,0.0,0.0,0.0,0.0,0.0,0.0,0.0,0.0,0.0,0.0,0.0,0.0,0.0,0.0,0.0,0.0,0.0,0.0,0.0,0.0,0.0,0.0,0.0,0.0,0.0,0.0,0.0,0.0,0.0,0.0,0.0,0.0,0.0,0.0,0.0,0.0,0.0,0.0,0.0,0.0,0.0,0.0,0.0,0.0,0.0,0.0,0.0,0.0,0.0,0.0,0.0,0.0,0.0,0.0,0.0,0.0,0.0,0.0,0.0,0.0,0.0,0.0,0.0,0.0,0.0,0.0,0.0,0.0,0.0,0.0,0.0,0.0,0.0,0.0,0.0,0.0,0.0,0.4759,0.0,0.0,0.0,0.0,0.0,0.0,0.0,0.0,0.0,0.0,0.0,0.0,0.0,0.0,0.0,0.0,0.0,0.0,0.0,0.0,0.0,0.0,0.0,0.0,0.0,0.0,0.0,0.0,0.0,0.0,0.0,0.0,0.0,0.0,0.0,0.0,0.0,0.0,0.0,0.0,0.0,0.0,0.0,0.0,0.0,0.0,0.0,0.0,0.0,0.0,0.0,0.0,0.0,0.0,0.0,0.0,0.0,0.0,0.0,0.0,0.0,0.0,0.0,0.0,0.0,0.0,0.0,0.0,0.0,0.0,0.0,0.0,0.0,0.0,0.0,0.0,0.0,0.0,0.0,0.0,0.0,0.0,0.0,0.0,0.0,0.0,0.0,0.0,0.0,0.0,0.0,0.0,0.0,0.0,0.0,0.0,0.0,0.0,0.0,0.0,0.0,0.0,0.0,0.0,0.0,0.0,0.0,0.0,0.0,0.0,0.5656,0.5797,0.5264,0.5,0.5094,0.0,0.0,0.0,0.0,0.0,0.0,0.0,0.0,0.0,0.0,0.0,0.0,0.0,0.0,0.0,0.0,0.0,0.0,0.0,0.0,0.0,0.0,0.0,0.0,0.0,0.0,0.0,0.0,0.0,0.0,0.0,0.0,0.0,0.0,0.0,0.0,0.0,0.0,0.0,0.0,0.0,0.0,0.0,0.0,0.0,0.0,0.0,0.0,0.0,0.0,0.0,0.0,0.0,0.0,0.0,0.0,0.0,0.0,0.0,0.0,0.0,0.0,0.0,0.0,0.0,0.0,0.0,0.0,0.0,0.0,0.0,0.0,0.0,0.0,0.0,0.0,0.0,0.0,0.0,0.0,0.0,0.0,0.0,0.0,0.0,0.0,0.0,0.0,0.0,0.0,0.0,0.0,0.0,0.0,0.0,0.0,0.0,0.0,0.0,0.0,0.0,0.0,0.0,0.0,0.0,0.0,0.0,0.0,0.0,0.0,0.0,0.0,0.563,0.5193,0.5102,0.0,0.0,0.0,0.0,0.0,0.0,0.0,0.0,0.0,0.0,0.0,0.0,0.0,0.0,0.0,0.0,0.0,0.0,0.0,0.0,0.0,0.0,0.0,0.0,0.0,0.0,0.0,0.0,0.0,0.0,0.0,0.0,0.0,0.0,0.0,0.0,0.0,0.0,0.0,0.0,0.0,0.0,0.0,0.0,0.0,0.0,0.0,0.0,0.0,0.0,0.0,0.0,0.0,0.0,0.0,0.0,0.0,0.0,0.0,0.0,0.0,0.0,0.0,0.0,0.0,0.0,0.0,0.0,0.0,0.0,0.0,0.0,0.0,0.0,0.0,0.0,0.0,0.0,0.0,0.0,0.0,0.0,0.0,0.0,0.0,0.0,0.0,0.0,0.0,0.0,0.0,0.0,0.0,0.0,0.0,0.0,0.0,0.0,0.0,0.0,0.0,0.0,0.0,0.0,0.0,0.0,0.0,0.0,0.0,0.0,0.636,0.613,0.5637,0.0,0.4346,0.0,0.0,0.0,0.0,0.0,0.0,0.0,0.0,0.0,0.0,0.0,0.0,0.0,0.0,0.0,0.0,0.0,0.0,0.0,0.0,0.0,0.0,0.0,0.0,0.0,0.0,0.0,0.0,0.0,0.0,0.0,0.0,0.0,0.0,0.0,0.0,0.0,0.0,0.0,0.0,0.0,0.0,0.0,0.0,0.0,0.0,0.0,0.0,0.0,0.0,0.0,0.0,0.0,0.0,0.0,0.0,0.0,0.0,0.0,0.0,0.0,0.0,0.0,0.0,0.0,0.0,0.0,0.0,0.0,0.0,0.0,0.0,0.0,0.0,0.0,0.0,0.0,0.0,0.0,0.0,0.0,0.0,0.0,0.0,0.0,0.0,0.0,0.0,0.0,0.0,0.0,0.0,0.0,0.0,0.0,0.0,0.0,0.0,0.0,0.0,0.0,0.0,0.0,0.0,0.0,0.0,0.0,0.0,0.0,0.0,0.6577,0.6293,0.5598,0.4833,0.0,0.0,0.0,0.0,0.0,0.0,0.0,0.0,0.0,0.0,0.0,0.0,0.0,0.0,0.0,0.0,0.0,0.0,0.0,0.0,0.0,0.0,0.0,0.0,0.0,0.0,0.0,0.0,0.0,0.0,0.0,0.0,0.0,0.0,0.0,0.0,0.0,0.0,0.0,0.0,0.0,0.0,0.0,0.0,0.0,0.0,0.0,0.0,0.0,0.0,0.0,0.0,0.0,0.0,0.0,0.0,0.0,0.0,0.0,0.0,0.0,0.0,0.0,0.0,0.0,0.0,0.0,0.0,0.0,0.0,0.0,0.0,0.0,0.0,0.0,0.0,0.0,0.0,0.0,0.0,0.0,0.0,0.0,0.0,0.0,0.0,0.0,0.0,0.0,0.0,0.0,0.0,0.0,0.0,0.0,0.0,0.0,0.0,0.0,0.0,0.0,0.0,0.0,0.0,0.0,0.0,0.0,0.0,0.0,0.0,0.6784,0.6519,0.6104,0.5301,0.4535,0.3935,0.0,0.0,0.0,0.0,0.0,0.0,0.0,0.0,0.0,0.0,0.0,0.0,0.0,0.0,0.0,0.0,0.0,0.0,0.0,0.0,0.0,0.0,0.0,0.0,0.0,0.0,0.0,0.0,0.0,0.0,0.0,0.0,0.0,0.0,0.0,0.0,0.0,0.0,0.0,0.0,0.0,0.0,0.0,0.0,0.0,0.0,0.0,0.0,0.0,0.0,0.0,0.0,0.0,0.0,0.0,0.0,0.0,0.0,0.0,0.0,0.0,0.0,0.0,0.0,0.0,0.0,0.0,0.0,0.0,0.0,0.0,0.0,0.0,0.0,0.0,0.0,0.0,0.0,0.0,0.0,0.0,0.0,0.0,0.0,0.0,0.0,0.0,0.0,0.0,0.0,0.0,0.0,0.0,0.0,0.0,0.0,0.0,0.0,0.0,0.0,0.0,0.0,0.0,0.0,0.0,0.0,0.0,0.0,0.6958,0.6475,0.5981,0.5464,0.4687,0.4207,0.0,0.0,0.0,0.0,0.0,0.0,0.0,0.0,0.0,0.0,0.0,0.0,0.0,0.0,0.0,0.0,0.0,0.0,0.0,0.0,0.0,0.0,0.0,0.0,0.0,0.0,0.0,0.0,0.0,0.0,0.0,0.0,0.0,0.0,0.0,0.0,0.0,0.0,0.0,0.0,0.0,0.0,0.0,0.0,0.0,0.0,0.0,0.0,0.0,0.0,0.0,0.0,0.0,0.0,0.0,0.0,0.0,0.0,0.0,0.0,0.0,0.0,0.0,0.0,0.0,0.0,0.0,0.0,0.0,0.0,0.0,0.0,0.0,0.0,0.0,0.0,0.0,0.0,0.0,0.0,0.0,0.0,0.0,0.0,0.0,0.0,0.0,0.0,0.0,0.0,0.0,0.0,0.0,0.0,0.0,0.0,0.0,0.0,0.0,0.0,0.0,0.0,0.0,0.0,0.0,0.0,0.0,0.0,0.0,0.6464,0.5847,0.537,0.506,0.4429,0.402,0.0,0.0,0.0,0.0,0.0,0.0,0.0,0.0,0.0,0.0,0.0,0.0,0.0,0.0,0.0,0.0,0.0,0.0,0.0,0.0,0.0,0.0,0.0,0.0,0.0,0.0,0.0,0.0,0.0,0.0,0.0,0.0,0.0,0.0,0.0,0.0,0.0,0.0,0.0,0.0,0.0,0.0,0.0,0.0,0.0,0.0,0.0,0.0,0.0,0.0,0.0,0.0,0.0,0.0,0.0,0.0,0.0,0.0,0.0,0.0,0.0,0.0,0.0,0.0,0.0,0.0,0.0,0.0,0.0,0.0,0.0,0.0,0.0,0.0,0.0,0.0,0.0,0.0,0.0,0.0,0.0,0.0,0.0,0.0,0.0,0.0,0.0,0.0,0.0,0.0,0.0,0.0,0.0,0.0,0.0,0.0,0.0,0.0,0.0,0.0,0.0,0.0,0.0,0.0,0.0,0.0,0.0,0.0,0.0,0.599,0.0,0.5072,0.4942,0.4487,0.4165,0.0,0.0,0.0,0.0,0.0,0.0,0.0,0.0,0.0,0.0,0.0,0.0,0.0,0.0,0.0,0.0,0.0,0.0,0.0,0.0,0.0,0.0,0.0,0.0,0.0,0.0,0.0,0.0,0.0,0.0,0.0,0.0,0.0,0.0,0.0,0.0,0.0,0.0,0.0,0.0,0.0,0.0,0.0,0.0,0.0,0.0,0.0,0.0,0.0,0.0,0.0,0.0,0.0,0.0,0.0,0.0,0.0,0.0,0.0,0.0,0.0,0.0,0.0,0.0,0.0,0.0,0.0,0.0,0.0,0.0,0.0,0.0,0.0,0.0,0.0,0.0,0.0,0.0,0.0,0.0,0.0,0.0,0.0,0.0,0.0,0.0,0.0,0.0,0.0,0.0,0.0,0.0,0.0,0.0,0.0,0.0,0.0,0.0,0.0,0.0,0.0,0.0,0.0,0.0,0.0,0.0,0.0,0.0,0.5865,0.5577,0.5236,0.5053,0.5104,0.4798,0.4604,0.0,0.0,0.0,0.0,0.0,0.0,0.0,0.0,0.0,0.0,0.0,0.0,0.0,0.0,0.0,0.0,0.0,0.0,0.0,0.0,0.0,0.0,0.0,0.0,0.0,0.0,0.0,0.0,0.0,0.0,0.0,0.0,0.0,0.0,0.0,0.0,0.0,0.0,0.0,0.0,0.0,0.0,0.0,0.0,0.0,0.0,0.0,0.0,0.0,0.0,0.0,0.0,0.0,0.0,0.0,0.0,0.0,0.0,0.0,0.0,0.0,0.0,0.0,0.0,0.0,0.0,0.0,0.0,0.0,0.0,0.0,0.0,0.0,0.0,0.0,0.0,0.0,0.0,0.0,0.0,0.0,0.0,0.0,0.0,0.0,0.0,0.0,0.0,0.0,0.0,0.0,0.0,0.0,0.0,0.0,0.0,0.0,0.0,0.0,0.0,0.0,0.0,0.0,0.0,0.0,0.0,0.0,0.0,0.0,0.4906,0.4703,0.4734,0.4934,0.457,0.4336,0.0,0.0,0.0,0.0,0.0,0.0,0.0,0.0,0.0,0.0,0.0,0.0,0.0,0.0,0.0,0.0,0.0,0.0,0.0,0.0,0.0,0.0,0.0,0.0,0.0,0.0,0.0,0.0,0.0,0.0,0.0,0.0,0.0,0.0,0.0,0.0,0.0,0.0,0.0,0.0,0.0,0.0,0.0,0.0,0.0,0.0,0.0,0.0,0.0,0.0,0.0,0.0,0.0,0.0,0.0,0.0,0.0,0.0,0.0,0.0,0.0,0.0,0.0,0.0,0.0,0.0,0.0,0.0,0.0,0.0,0.0,0.0,0.0,0.0,0.0,0.0,0.0,0.0,0.0,0.0,0.0,0.0,0.0,0.0,0.0,0.0,0.0,0.0,0.0,0.0,0.0,0.0,0.0,0.0,0.0,0.0,0.0,0.0,0.0,0.0,0.0,0.0,0.0,0.0,0.0,0.0,0.0,0.0,0.0,0.3835,0.4281,0.471,0.5042,0.4791,0.4531,0.4305,0.0,0.0,0.0,0.0,0.0,0.0,0.0,0.0,0.0,0.0,0.0,0.0,0.0,0.0,0.0,0.0,0.0,0.0,0.0,0.0,0.0,0.0,0.0,0.0,0.0,0.0,0.0,0.0,0.0,0.0,0.0,0.0,0.0,0.0,0.0,0.0,0.0,0.0,0.0,0.0,0.0,0.0,0.0,0.0,0.0,0.0,0.0,0.0,0.0,0.0,0.0,0.0,0.0,0.0,0.0,0.0,0.0,0.0,0.0,0.0,0.0,0.0,0.0,0.0,0.0,0.0,0.0,0.0,0.0,0.0,0.0,0.0,0.0,0.0,0.0,0.0,0.0,0.0,0.0,0.0,0.0,0.0,0.0,0.0,0.0,0.0,0.0,0.0,0.0,0.0,0.0,0.0,0.0,0.0,0.0,0.0,0.0,0.0,0.0,0.0,0.0,0.0,0.0,0.0,0.0,0.0,0.0,0.0,0.2522,0.3934,0.4779,0.5174,0.5229,0.5031,0.0,0.0,0.0,0.0,0.0,0.0,0.0,0.0,0.0,0.0,0.0,0.0,0.0,0.0,0.0,0.0,0.0,0.0,0.0,0.0,0.0,0.0,0.0,0.0,0.0,0.0,0.0,0.0,0.0,0.0,0.0,0.0,0.0,0.0,0.0,0.0,0.0,0.0,0.0,0.0,0.0,0.0,0.0,0.0,0.0,0.0,0.0,0.0,0.0,0.0,0.0,0.0,0.0,0.0,0.0,0.0,0.0,0.0,0.0,0.0,0.0,0.0,0.0,0.0,0.0,0.0,0.0,0.0,0.0,0.0,0.0,0.0,0.0,0.0,0.0,0.0,0.0,0.0,0.0,0.0,0.0,0.0,0.0,0.0,0.0,0.0,0.0,0.0,0.0,0.0,0.0,0.0,0.0,0.0,0.0,0.0,0.0,0.0,0.0,0.0,0.0,0.0,0.0,0.0,0.0,0.0,0.0,0.0,0.0,0.2763,0.2807,0.3238,0.4144,0.4222,0.4399,0.0,0.0,0.0,0.0,0.0,0.0,0.0,0.0,0.0,0.0,0.0,0.0,0.0,0.0,0.0,0.0,0.0,0.0,0.0,0.0,0.0,0.0,0.0,0.0,0.0,0.0,0.0,0.0,0.0,0.0,0.0,0.0,0.0,0.0,0.0,0.0,0.0,0.0,0.0,0.0,0.0,0.0,0.0,0.0,0.0,0.0,0.0,0.0,0.0,0.0,0.0,0.0,0.0,0.0,0.0,0.0,0.0,0.0,0.0,0.0,0.0,0.0,0.0,0.0,0.0,0.0,0.0,0.0,0.0,0.0,0.0,0.0,0.0,0.0,0.0,0.0,0.0,0.0,0.0,0.0,0.0,0.0,0.0,0.0,0.0,0.0,0.0,0.0,0.0,0.0,0.0,0.0,0.0,0.0,0.0,0.0,0.0,0.0,0.0,0.0,0.0,0.0,0.0,0.0,0.0,0.0,0.0,0.0,0.174,0.2044,0.1497,0.1709,0.2725,0.335,0.3853,0.0,0.0,0.0,0.0,0.0,0.0,0.0,0.0,0.0,0.0,0.0,0.0,0.0,0.0,0.0,0.0,0.0,0.0,0.0,0.0,0.0,0.0,0.0,0.0,0.0,0.0,0.0,0.0,0.0,0.0,0.0,0.0,0.0,0.0,0.0,0.0,0.0,0.0,0.0,0.0,0.0,0.0,0.0,0.0,0.0,0.0,0.0,0.0,0.0,0.0,0.0,0.0,0.0,0.0,0.0,0.0,0.0,0.0,0.0,0.0,0.0,0.0,0.0,0.0,0.0,0.0,0.0,0.0,0.0,0.0,0.0,0.0,0.0,0.0,0.0,0.0,0.0,0.0,0.0,0.0,0.0,0.0,0.0,0.0,0.0,0.0,0.0,0.0,0.0,0.0,0.0,0.0,0.0,0.0,0.0,0.0,0.0,0.0,0.0,0.0,0.0,0.0,0.0,0.0,0.0,0.0,0.0,0.0,0.0815,0.0827,0.0273,0.0368,0.1166,0.2564,0.3341,0.0,0.0,0.0,0.0,0.0,0.0,0.0,0.0,0.0,0.0,0.0,0.0,0.0,0.0,0.0,0.0,0.0,0.0,0.0,0.0,0.0,0.0,0.0,0.0,0.0,0.0,0.0,0.0,0.0,0.0,0.0,0.0,0.0,0.0,0.0,0.0,0.0,0.0,0.0,0.0,0.0,0.0,0.0,0.0,0.0,0.0,0.0,0.0,0.0,0.0,0.0,0.0,0.0,0.0,0.0,0.0,0.0,0.0,0.0,0.0,0.0,0.0,0.0,0.0,0.0,0.0,0.0,0.0,0.0,0.0,0.0,0.0,0.0,0.0,0.0,0.0,0.0,0.0,0.0,0.0,0.0,0.0,0.0,0.0,0.0,0.0,0.0,0.0,0.0,0.0,0.0,0.0,0.0,0.0,0.0,0.0,0.0,0.0,0.0,0.0,0.0,0.0,0.0,0.0,0.0,0.0,0.0,0.0,0.0668,0.0445,0.0141,0.0095,0.0276,0.1528,0.2771,0.0,0.0,0.0,0.0,0.0,0.0,0.0,0.0,0.0,0.0,0.0,0.0,0.0,0.0,0.0,0.0,0.0,0.0,0.0,0.0,0.0,0.0,0.0,0.0,0.0,0.0,0.0,0.0,0.0,0.0,0.0,0.0,0.0,0.0,0.0,0.0,0.0,0.0,0.0,0.0,0.0,0.0,0.0,0.0,0.0,0.0,0.0,0.0,0.3674,0.0,0.0,0.0,0.0,0.0,0.0,0.0,0.0,0.0,0.0,0.0,0.0,0.0,0.0,0.0,0.0,0.0,0.0,0.0,0.0,0.0,0.0,0.0,0.0,0.0,0.0,0.0,0.0,0.0,0.0,0.0,0.0,0.0,0.0,0.0,0.0,0.0,0.0,0.0,0.0,0.0,0.0,0.0,0.0,0.0,0.0,0.0,0.0,0.0,0.0,0.0,0.0,0.0,0.0,0.0,0.0,0.0,0.0,0.0,0.0555,0.0318,0.0095,0.0,0.0,0.0814,0.1777,0.0,0.0,0.0,0.0,0.0,0.0,0.0,0.0,0.0,0.0,0.0,0.0,0.0,0.0,0.0,0.0,0.0,0.0,0.0,0.0,0.0,0.0,0.0,0.0,0.0,0.0,0.0,0.0,0.0,0.0,0.0,0.0,0.0,0.0,0.0,0.0,0.0,0.0,0.0,0.0,0.0,0.0,0.0,0.0,0.0,0.0,0.0,0.0,0.0,0.0,0.0,0.0,0.0,0.0,0.0,0.0,0.0,0.0,0.0,0.0,0.0,0.0,0.0,0.0,0.0,0.0,0.0,0.0,0.0,0.0,0.0,0.0,0.0,0.0,0.0,0.0,0.0,0.0,0.0,0.0,0.0,0.0,0.0,0.0,0.0,0.0,0.0,0.0,0.0,0.0,0.0,0.0,0.0,0.0,0.0,0.0,0.0,0.0,0.0,0.0,0.0,0.0,0.0,0.0,0.0,0.0,0.0,0.0695,0.0478,0.0231,0.0094,0.0,0.0,0.0302,0.0918,0.1853,0.0,0.0,0.0,0.0,0.0,0.0,0.0,0.0,0.0,0.0,0.0,0.0,0.0,0.0,0.0,0.0,0.0,0.0,0.0,0.0,0.0,0.0,0.0,0.0,0.0,0.0,0.0,0.0,0.0,0.0,0.0,0.0,0.0,0.0,0.0,0.0,0.0,0.0,0.2723,0.2743,0.0,0.0,0.0,0.0,0.0,0.0,0.0,0.0,0.3607,0.0,0.0,0.0,0.0,0.0,0.0,0.0,0.0,0.0,0.0,0.0,0.0,0.0,0.0,0.0,0.0,0.0,0.0,0.0,0.0,0.0,0.0,0.0,0.0,0.0,0.0,0.0,0.0,0.0,0.0,0.0,0.0,0.0,0.0,0.0,0.0,0.0,0.0,0.0,0.0,0.0,0.0,0.0,0.0,0.0,0.0,0.0,0.0,0.0,0.0,0.0,0.0,0.0,0.0,0.0,0.0,0.091,0.0712,0.0434,0.0046,0.0,0.0,0.0,0.0216,0.0812,0.1852,0.0,0.0,0.0,0.0,0.0,0.0,0.0,0.0,0.0,0.0,0.0,0.0,0.0,0.0,0.0,0.0,0.0,0.0,0.0,0.0,0.0,0.0,0.0,0.0,0.0,0.0,0.0,0.0,0.0,0.0,0.0,0.0,0.0,0.0,0.0,0.0,0.0,0.0,0.0,0.2088,0.2385,0.0,0.0,0.0,0.0,0.0,0.0,0.0,0.0,0.2586,0.0,0.0,0.0,0.0,0.0,0.0,0.0,0.0,0.0,0.0,0.0,0.0,0.0,0.0,0.0,0.0,0.0,0.0,0.0,0.0,0.0,0.0,0.0,0.0,0.0,0.0,0.0,0.0,0.0,0.0,0.0,0.0,0.0,0.0,0.0,0.0,0.0,0.0,0.0,0.0,0.0,0.0,0.0,0.0,0.0,0.0,0.0,0.0,0.0,0.0,0.0,0.0,0.0,0.0,0.0,0.0729,0.0505,0.0308,0.0,0.0,0.0,0.0,0.0463,0.123,0.0,0.0,0.0,0.0,0.0,0.0,0.0,0.0,0.0,0.0,0.0,0.0,0.0,0.0,0.0,0.0,0.0,0.0,0.0,0.0,0.0,0.0,0.0,0.0,0.0,0.0,0.0,0.0,0.0,0.0,0.0,0.0,0.0,0.0,0.0,0.0,0.0,0.0,0.0,0.0,0.1676,0.1697,0.1702,0.0,0.0,0.0,0.0,0.0,0.0,0.1175,0.1106,0.0,0.0,0.0,0.0,0.0,0.0,0.0,0.0,0.0,0.0,0.0,0.0,0.0,0.0,0.0,0.0,0.0,0.0,0.0,0.0,0.0,0.0,0.0,0.0,0.0,0.0,0.0,0.0,0.0,0.0,0.0,0.0,0.0,0.0,0.0,0.0,0.0,0.0,0.0,0.0,0.0,0.0,0.0,0.0,0.0,0.0,0.0,0.0,0.0,0.0,0.0,0.0,0.0,0.0,0.0,0.0597,0.0379,0.0221,0.0,0.0,0.0,0.0,0.0695,0.1542,0.0,0.0,0.0,0.0,0.0,0.0,0.0,0.0,0.0,0.0,0.0,0.0,0.0,0.0,0.0,0.0,0.0,0.0,0.0,0.0,0.0,0.0,0.0,0.0,0.0,0.0,0.0,0.0,0.0,0.0,0.0,0.0,0.0,0.0,0.0,0.0,0.0,0.0,0.0,0.0,0.0,0.121,0.1176,0.1461,0.0,0.0,0.0,0.0,0.0409,-0.0379,0.0,0.0,0.0,0.0,0.0,0.0,0.0,0.0,0.0,0.0,0.0,0.0,0.0,0.0,0.0,0.0,0.0,0.0,0.0,0.0,0.0,0.0,0.0,0.0,0.0,0.0,0.0,0.0,0.0,0.0,0.0,0.0,0.0,0.0,0.0,0.0,0.0,0.0,0.0,0.0,0.0,0.0,0.0,0.0,0.0,0.0,0.0,0.0,0.0,0.0,0.0,0.0,0.0,0.0,0.0,0.0,0.0875,0.0505,0.0216,0.0,0.0,0.0,0.0,0.0599,0.1368,0.0,0.0,0.0,0.0,0.0,0.0,0.0,0.0,0.0,0.0,0.0,0.0,0.0,0.0,0.0,0.0,0.0,0.0,0.0,0.0,0.0,0.0,0.0,0.0,0.0,0.0,0.0,0.0,0.0,0.0,0.0,0.0,0.0,0.0,0.0,0.0,0.0,0.0,0.0,0.0,0.0,0.114,0.0728,0.0542,0.0441,0.0,0.0,-0.1698,-0.1446,-0.2509,0.0,0.0,0.0,0.0,0.0,0.0,0.0,0.0,0.0,0.0,0.0,0.0,0.0,0.0,0.0,0.0,0.0,0.0,0.0,0.0,0.0,0.0,0.0,0.0,0.0,0.0,0.0,0.0,0.0,0.0,0.0,0.0,0.0,0.0,0.0,0.0,0.0,0.0,0.0,0.0,0.0,0.0,0.0,0.0,0.0,0.0,0.0,0.0,0.0,0.0,0.0,0.0,0.0,0.0,0.0,0.074,0.074,0.033,0.0084,0.0,0.0,0.0,0.0,0.0725,0.1536,0.0,0.0,0.0,0.0,0.0,0.0,0.0,0.0,0.0,0.0,0.0,0.0,0.0,0.0,0.0,0.0,0.0,0.0,0.0,0.0,0.0,0.0,0.0,0.0,0.0,0.0,0.0,0.0,0.0,0.0,0.0,0.0,0.0,0.0,0.0,0.0,0.0,0.0,0.0,0.0,0.0,0.0,-0.0251,-0.0379,0.0,0.0,0.0,-0.3129,-0.2637,0.0,0.0,0.0,0.0,0.0,0.0,0.0,0.0,0.0,0.0,0.0,0.0,0.0,0.0,0.0,0.0,0.0,0.0,0.0,0.0,0.0,0.0,0.0,0.0,0.0,0.0,0.0,0.0,0.0,0.0,0.0,0.0,0.0,0.0,0.0,0.0,0.0,0.0,0.0,0.0,0.0,0.0,0.0,0.0,0.0,0.0,0.0,0.0,0.0,0.0,0.0,0.0,0.0,0.0,0.0,0.0,0.0,0.0614,0.0203,0.0,0.0,0.0,0.0,0.0,0.0723,0.0,0.0,0.0,0.0,0.0,0.0,0.0,0.0,0.0,0.0,0.0,0.0,0.0,0.0,0.0,0.0,0.0,0.0,0.0,0.0,0.0,0.0,0.0,0.0,0.0,0.0,0.0,0.5504,0.0,0.0,0.0,0.0,0.0,0.0,0.0,0.0,0.0,0.0,0.0,0.0,0.0,0.0,0.0925,-0.0946,-0.1126,-0.1528,0.0,0.0,-0.4359,-0.3861,-0.4895,-0.511,0.0,0.0,0.0,0.0,0.0,0.0,0.0,0.0,0.0,0.0,0.0,0.0,0.0,0.0,0.0,0.0,0.0,0.0,0.0,0.0,0.0,0.0,0.0,0.0,0.0,0.0,0.0,0.0,0.0,0.0,0.0,0.0,0.0,0.0,0.0,0.0,0.0,0.0,0.0,0.0,0.0,0.0,0.0,0.0,0.0,0.0,0.0,0.0,0.0,0.0,0.0,0.0,0.0,0.0,0.0,0.0585,0.0201,0.0,0.0,0.0,0.0,0.0,0.0374,0.091,0.0,0.0,0.0,0.0,0.0,0.0,0.0,0.0,0.0,0.0,0.0,0.0,0.0,0.0,0.0,0.0,0.0,0.0,0.0,0.0,0.0,0.0,0.0,0.0,0.0,0.0,0.0,0.0,0.0,0.0,0.0,0.0,0.0,0.0,0.0,0.0,0.0,0.0,0.0,0.0,0.0,0.1042,-0.1039,-0.1541,-0.2394,0.0,0.0,-0.5474,-0.5371,-0.6405,-0.6381,-0.3851,0.0,0.0,0.0,0.0,0.0,0.0,0.0,0.0,0.0,0.0,0.0,0.0,0.0,0.0,0.0,0.0,0.0,0.0,0.0,0.0,0.0,0.0,0.0,0.0,0.0,0.0,0.0,0.0,0.0,0.0,0.0,0.0,0.0,0.0,0.0,0.0,0.0,0.0,0.0,0.0,0.0,0.0,0.0,0.0,0.0,0.0,0.0,0.0,0.0,0.0,0.0,0.0,0.0,0.0593,0.0617,0.0197,0.0,0.0,0.0,0.0,0.0,0.0263,0.0704,0.0,0.0,0.0,0.0,0.0,0.0,0.0,0.0,0.0,0.0,0.0,0.0,0.0,0.0,0.0,0.0,0.0,0.0,0.0,0.0,0.0,0.0,0.0,0.0,0.0,0.0,0.0,0.0,0.5391,0.4921,0.4855,0.0,0.0,0.0,0.0,0.0,0.0,0.0,0.0,0.0,0.0,0.0553,-0.2253,-0.2618,0.0,0.0,-0.6179,-0.6219,-0.5694,-0.6219,-0.6039,-0.4196,-0.3538,0.0,0.0,0.0,0.0,0.0,0.0,0.0,0.0,0.0,0.0,0.0,0.0,0.0,0.0,0.0,0.0,0.0,0.0,0.0,0.0,0.0,0.0,0.0,0.0,0.0,0.0,0.0,0.0,0.0,0.0,0.0,0.0,0.0,0.0,0.0,0.0,0.0,0.0,0.0,0.0,0.0,0.0,0.0,0.0,0.0,0.0,0.0,0.0,0.0,0.0,0.0,0.0,0.0332,0.0609,-0.0077,-0.0266,0.0,0.0,0.0,0.0,0.0127,0.0498,0.0,0.0,0.0,0.0,0.0,0.0,0.0,0.0,0.0,0.0,0.0,0.0,0.0,0.0,0.0,0.0,0.0,0.0,0.0,0.0,0.0,0.0,0.0,0.0,0.0,0.0,0.0,0.0,0.524,0.4665,0.4271,0.0,0.0,0.0,0.0,0.0,0.0,0.0,0.0,0.0,0.0,0.0309,-0.2512,-0.2686,-0.3343,-0.5648,-0.6037,-0.595,-0.5543,-0.5808,-0.5609,-0.4428,0.0,0.0,0.0,0.0,0.0,0.0,0.0,0.0,0.0,0.0,0.0,0.0,0.0,0.0,0.0,0.0,0.0,0.0,0.0,0.0,0.0,0.0,0.0,0.0,0.0,0.0,0.0,0.0,0.0,0.0,0.2761,0.0,0.0,0.0,0.0,0.0,0.0,0.0,0.0,0.0,0.0,0.0,0.0,0.0,0.0,0.0,0.0,0.0,0.0,0.0,0.0,0.0,0.0,-0.0295,0.0568,-0.0681,-0.0895,0.0,0.0,0.0,0.0,0.0,0.0177,0.0502,0.0,0.0,0.0,0.0,0.0,0.0,0.0,0.0,0.0,0.0,0.0,0.0,0.0,0.0,0.0,0.0,0.0,0.0,0.0,0.0,0.0,0.0,0.0,0.0,0.0,0.0,0.5491,0.4961,0.4381,0.0,0.0,0.0,0.0,0.0,0.0,0.0,0.0,0.0,0.0,0.1576,0.0562,-0.1458,-0.1464,-0.2101,-0.4218,-0.4364,-0.4485,-0.4977,-0.5345,-0.534,0.0,0.0,0.0,0.0,0.0,0.0,0.0,0.0,0.0,0.0,0.0,0.0,0.0,0.0,0.0,0.0,0.0,0.0,0.0,0.0,0.0,0.0,0.0,0.0,0.0,0.0,0.0,0.16,0.2053,0.0,0.0,0.0,0.0,0.0,0.0,0.0,0.0,0.0,0.0,0.0,-0.346,-0.3471,0.0,0.0,0.0,0.0,0.0,0.0,0.0,0.0,0.0,0.0,0.0,0.0,-0.0608,-0.0483,-0.1698,-0.2253,-0.206,-0.1407,-0.106,-0.1061,-0.0376,0.0182,0.0578,0.0,0.0,0.0,0.0,0.0,0.0,0.0,0.0,0.0,0.0,0.0,0.0,0.0,0.0,0.0,0.0,0.0,0.0,0.0,0.0,0.0,0.0,0.0,0.0,0.0,0.4505,0.0,0.0,0.0,0.0,0.0,0.0,0.0,0.0,0.0,0.0,0.0,0.1137,0.0045,0.0469,0.0293,-0.1415,-0.166,-0.2604,0.0,0.0,0.0,0.0,0.0,0.0,0.0,0.0,0.0,0.0,0.0,0.0,0.0,0.0,-0.1851,-0.0307,-0.0036,0.0,0.0211,0.0,0.0,0.0,0.0,0.0,0.0,0.0,0.0,0.0,0.0,0.0,0.0,0.0,0.0,0.0034,0.0,0.0441,0.0,0.0,0.0,0.0,0.0,0.0,0.0,0.0,-0.3473,-0.4158,-0.4843,-0.4847,-0.487,0.0,-0.4316,-0.3232,0.0,0.0,0.0,0.0,0.0,0.0,0.0,0.0,-0.1474,-0.1315,-0.2725,-0.3337,-0.3088,-0.2394,-0.2055,-0.2013,-0.1006,-0.0181,0.0359,0.0823,0.1062,0.0,0.0,0.0,0.0,0.0,0.0,0.0,0.0,0.0,0.0,0.0,0.0,0.0,0.0,0.0,0.0,0.0,0.0,0.0,0.0,0.0,0.0,0.0,0.3433,0.0,0.0,0.0,0.0,0.0,0.0,0.0,0.0,0.0,-0.086,-0.0379,-0.0352,-0.1029,-0.0386,-0.01,-0.078,0.0,0.0,0.0,0.0,0.0,0.0,0.0,-0.5054,-0.4406,-0.4547,-0.4802,-0.489,-0.4822,-0.4888,-0.5354,0.0,0.0,-0.2642,-0.2358,-0.2289,-0.206,-0.193,-0.1969,-0.2395,-0.2565,-0.2478,0.0,0.0,0.0,0.0,0.0,0.0,0.0,0.0,-0.2235,-0.2122,0.0,-0.206,0.0,0.0,0.0,0.0,0.0,-0.251,0.0,0.0,-0.4511,-0.5188,-0.5901,-0.5839,-0.5814,-0.5935,-0.5528,-0.5146,-0.4663,-0.3048,0.0,0.0,0.0,0.0,0.0,0.0,-0.2854,-0.2071,-0.3658,-0.4103,-0.3244,-0.3055,-0.29,-0.2837,-0.1879,-0.0928,-0.0113,0.0298,0.0516,0.0473,0.1574,0.0,0.0,0.0,0.0,0.0,0.0,0.0,0.0,0.0,0.0,0.0,0.0,0.0,0.0,0.0,0.0,0.0,0.0,0.0,0.0,0.323,0.0,0.0,0.0,0.0,0.0,0.0,0.0,0.0,0.0,0.0,-0.2235,-0.2155,-0.1882,-0.1362,0.0,0.0,0.0,0.0,-0.0366,-0.1327,-0.1835,-0.2491,-0.3451,-0.4532,-0.5318,-0.5456,0.0,0.0,-0.6334,-0.5919,-0.5618,-0.5611,-0.6005,-0.5958,-0.4754,-0.441,-0.4204,-0.3671,-0.3574,-0.3517,-0.3523,-0.3735,-0.366,-0.8918,0.0,0.0,0.0,0.0,-0.3913,-0.4035,-0.4698,-0.3873,-0.3331,-0.3008,-0.2857,0.0,0.0,0.0,0.0,0.0,0.0,-0.4659,-0.5593,-0.5845,-0.6337,-0.6999,-0.7022,-0.6999,-0.6973,-0.6599,-0.6312,-0.5974,-0.5246,-0.4183,-0.2744,0.0,0.0,0.0,0.0,-0.3337,-0.355,-0.4879,-0.5426,-0.5199,-0.4447,-0.3576,-0.2624,-0.2308,-0.1982,-0.1567,-0.0968,-0.055,-0.0411,0.0487,0.0,0.0,0.0,0.0,0.0,0.0,0.0,0.0,0.0,0.0,0.0,0.0,0.0,0.0,0.0,0.0,0.0,0.0,0.0,0.2765,0.1819,0.1307,0.0,0.0,0.0,0.0,0.0,0.0,0.0,0.0,0.0,-0.449,-0.2792,-0.1797,0.0,0.0,-0.0907,0.0,-0.0324,-0.1181,-0.271,-0.2902,0.0,-0.5734,-0.6024,-0.5988,-0.5795,-0.6346,-0.6766,-0.6669,-0.6994,-0.7272,-0.7269,-0.7433,-0.7359,-0.7033,-0.6496,-0.6104,-0.5944,-0.5961,-0.6094,-0.6232,-0.6322,-0.6108,-1.212,-0.9476,-0.8299,-0.7723,-0.7556,-0.6965,-0.7088,-0.7693,-0.6972,-0.6531,-0.6215,-0.5482,-0.5195,-0.5143,-0.4522,0.0,0.0,0.0,-0.5942,-0.6757,-0.6895,-0.7158,-0.7631,-0.7668,-0.7638,-0.7539,-0.7309,-0.7102,-0.6919,-0.6513,-0.5737,-0.4606,0.0,0.0,-0.3159,-0.3804,-0.4281,-0.4611,-0.5587,-0.6122,-0.6122,-0.5393,-0.4377,-0.3059,-0.3011,-0.2791,-0.2338,-0.1797,-0.1503,-0.1464,-0.0832,-0.0121,0.0,0.0,0.0,0.0,0.0,0.0,0.0,0.0,0.0,0.0,0.0,0.6743,0.639,0.0,0.0,0.0,0.393,0.2843,0.208,0.1292,0.0,0.0,0.0,0.0,0.0,0.0,0.0,-0.1705,-0.3432,-0.4871,-0.5326,-0.4016,-0.3252,-0.407,-0.3353,-0.2286,-0.0863,0.0,-0.1642,-0.244,-0.2369,-0.2905,-0.4716,-0.5475,-0.6012,-0.6645,-0.7032,-0.7282,-0.7285,-0.7686,-0.7988,-0.7988,-0.7988,-0.7988,-0.7988,-0.7617,-0.7321,-0.7324,-0.7392,-0.7479,-0.7621,-0.7665,-0.7441,-1.5034,-1.4112,-1.1867,-1.0842,-1.0773,-1.0788,-1.0876,-1.1005,-1.076,-1.0662,-1.0553,-0.9202,-0.8555,-0.8409,-0.7057,0.0,-0.6535,-0.6571,-0.6886,-0.7411,-0.7553,-0.7763,-0.7978,-0.7847,-0.7831,-0.7824,-0.7682,-0.7614,-0.7557,-0.7036,-0.674,-0.6712,-0.5812,-0.5201,-0.492,-0.5265,-0.5411,-0.5394,-0.5983,-0.6278,-0.6279,-0.6012,-0.5266,-0.396,-0.3977,-0.3605,-0.2691,-0.2416,-0.2384,-0.2537,-0.2161,-0.1597,-0.0943,0.0,0.0,0.0,0.0,0.0,0.0,0.0,0.0,0.0,0.0,0.0,0.0,0.0,0.0,0.0,0.2983,0.0,0.1961,0.1349,0.0,0.0,0.0,-0.0846,-0.2163,-0.282,-0.3262,-0.3341,0.0,0.0,-0.519,-0.5501,-0.5749,-0.5785,-0.5284,-0.4244,-0.2115,-0.2118,-0.1941,-0.1426,-0.1219,-0.143,-0.2675,-0.4195,-0.5961,-0.7543,-0.7982,-0.7915,-0.7935,-0.7988,-0.7988,-0.7961,-0.7971,-0.7961,-0.7955,-0.7914,-0.7971,-0.7928,-0.7955,-0.7968,-0.7928,-0.7882,-0.7742,-1.6285,-1.6015,-1.5443,-1.4464,-1.3159,-1.2261,-1.2294,-1.2905,-1.1882,-1.1342,-1.1107,-1.0588,-1.0314,-1.0131,-0.8961,-0.8452,-0.8544,-0.7611,-0.7366,-0.7702,-0.7743,-0.7858,-0.7985,-0.7951,-0.7934,-0.7924,-0.7831,-0.7763,-0.7753,-0.752,-0.721,-0.6913,-0.6703,-0.6225,-0.5594,-0.5634,-0.5749,-0.6069,-0.6232,-0.6235,-0.6091,-0.6422,-0.6049,-0.4835,-0.5446,-0.5223,-0.4082,-0.353,-0.3218,-0.3107,-0.2473,-0.1987,-0.1728,-0.1502,0.0,0.0,0.0,0.0,0.0,0.0,0.0,0.0,0.0,0.6266,0.4971,0.0,0.5221,0.0,0.2473,0.147,0.0868,0.0636,0.0,0.0,-0.0928,-0.1286,-0.2886,-0.3712,-0.409,-0.3843,-0.5708,-0.6811,-0.6147,-0.6933,-0.7469,-0.7138,-0.6247,-0.5158,-0.3974,-0.4063,-0.3912,-0.3109,-0.3084,-0.3666,-0.4735,-0.6163,-0.7254,-0.7875,-0.7891,-0.7902,-0.7968,-0.7988,-0.7955,-0.7843,-0.7865,-0.7824,-0.7736,-0.7787,-0.7862,-0.7872,-0.7957,-0.7951,-0.7892,-0.7834,-0.778,-1.6787,-1.6914,-1.7041,-1.6467,-1.5394,-1.4454,-1.437,-1.4756,-1.3909,-1.3461,-1.329,-1.2586,-1.189,-1.111,-1.0017,-0.9524,-0.9533,-0.8277,-0.7756,-0.786,-0.7913,-0.7911,-0.7988,-0.7988,-0.7988,-0.7988,-0.7904,-0.8203,-0.8721,-0.8615,-0.8769,-0.9086,-0.8387,-0.7761,-0.7248,-0.6408,-0.626,-0.6914,-0.7297,-0.7469,-0.7401,-0.7562,-0.7099,-0.5996,-0.64,-0.6229,-0.5251,-0.4728,-0.4476,-0.4521,-0.3856,-0.3292,-0.2832,-0.2854,-0.2509,0.0,0.0,0.0,0.0,0.0,0.0,0.0,0.0,0.0,0.0,0.0,0.417,0.2754,0.1717,0.0939,0.0546,0.0117,-0.0665,-0.1944,-0.2234,-0.2967,-0.4533,-0.5171,-0.5438,-0.5312,-0.6582,-0.7528,-0.759,-0.8184,-0.857,-0.8383,-0.7825,-0.6847,-0.5424,-0.5258,-0.4999,-0.3974,-0.389,-0.4453,-0.5713,-0.6439,-0.713,-0.7686,-0.7773,-0.775,-0.7831,-0.7899,-0.786,-0.7828,-0.7814,-0.779,-0.7712,-0.7753,-0.7811,-0.7824,-0.7879,-0.7877,-0.7867,-0.7762,-0.7689,-1.7088,-1.74,-1.7589,-1.7528,-1.7273,-1.6673,-1.638,-1.6253,-1.5952,-1.5825,-1.573,-1.4609,-1.3416,-1.2136,-1.0842,-1.0243,-1.0145,-0.8676,-0.7988,-0.7988,-0.7988,-0.7988,-0.7988,-0.8187,-0.8233,-0.8233,-0.8432,-0.9118,-1.0186,-1.0123,-1.0605,-1.1584,-1.0274,-0.9413,-0.9058,-0.743,-0.6985,-0.7762,-0.8512,-0.8987,-0.919,-0.891,-0.8278,-0.7243,-0.7268,-0.6967,-0.6258,-0.5913,-0.5906,-0.6194,-0.5689,-0.5048,-0.4322,-0.4452,-0.4184,0.0,-0.3163,0.0,0.0,0.0,0.0,0.0,0.0,0.0,0.0,0.3146,0.2994,0.1716,0.0768,0.0309,0.0603,-0.0329,-0.1443,-0.2715,-0.376,-0.4982,-0.6364,-0.6647,-0.679,-0.6939,-0.7152,-0.7764,-0.8559,-0.9073,-0.9322,-0.9192,-0.9422,-0.8699,-0.6741,-0.6271,-0.5802,-0.4451,-0.4193,-0.4786,-0.5846,-0.62,-0.6828,-0.7846,-0.8185,-0.7948,-0.7933,-0.7988,-0.7962,-0.7798,-0.7736,-0.7729,-0.7729,-0.7726,-0.7756,-0.7767,-0.7797,-0.781,-0.788,-0.776,-0.758,-1.819,-1.8237,-1.8297,-1.815,-1.7849,-1.7488,-1.6927,-1.6301,-1.5952,-1.5825,-1.5784,-1.554,-1.5263,-1.4832,-1.2555,-1.1556,-1.1409,-0.9069,-0.7988,-0.7988,-0.7988,-0.7988,-0.8088,-0.9118,-0.9608,-0.9702,-1.0676,-1.1312,-1.1556,-1.1516,-1.1536,-1.1516,-1.1034,-1.0213,-0.9118,0.0,0.0,0.0,-0.8308,-0.8759,-0.9616,-0.9769,-0.9261,-0.8106,-0.8583,0.0,-0.708,-0.7013,-0.7025,-0.6984,-0.6869,0.0,0.0,0.0,0.0,0.0,0.0,0.0,0.0,0.0,0.0,0.0,-0.2914,-0.1222,0.0379,0.0385,0.0388,0.0611,-0.0193,-0.0504,0.0038,-0.094,-0.2035,-0.311,-0.4243,-0.5453,-0.6632,-0.6825,-0.69,-0.7038,-0.795,-0.8245,-0.7738,-0.9104,-0.995,-0.9208,-0.9912,-0.9976,-0.8665,-0.7855,-0.6961,-0.5738,-0.5473,-0.5789,-0.6841,-0.7813,-0.8738,-1.0058,-1.0299,-0.9863,-0.9107,-0.8987,-0.8594,-0.7809,-0.7497,-0.746,-0.7305,-0.7366,-0.7545,-0.7614,-0.7729,-0.7821,-0.7841,-0.7621,-0.7414,-1.8497,0.0,-1.8644,-1.8537,0.0,-1.7936,-1.7395,-1.6723,-1.6239,-1.5965,-1.5825,-1.5825,-1.5825,-1.5683,-1.374,-1.2909,-1.2764,-1.019,-0.897,-0.897,-0.8287,-0.8336,-0.9019,-0.9706,-1.0342,-1.097,-1.1556,-1.2237,-1.2861,-1.2866,-1.3151,-1.3573,-1.2642,-1.149,-1.0256,-0.8652,-0.8256,-0.9141,-0.9509,-1.0246,-1.14,-1.127,-1.0692,-0.9746,-0.9696,0.0,0.0,0.0,0.0,0.0,0.0,0.0,0.0,-0.7686,0.0,-0.7376,-0.7305,-0.709,-0.6679,-0.6089,-0.5673,-0.544,-0.4505,-0.3222,-0.1648,-0.1748,-0.169,-0.1374,-0.1782,-0.1913,-0.1627,-0.2546,-0.3433,-0.4074,-0.5098,-0.6072,-0.6692,-0.6842,-0.6883,-0.6968,-0.7508,-0.7825,-0.7773,-0.9143,-0.9984,-0.9583,-1.0436,-1.0842,-0.9756,-0.8963,-0.8186,-0.749,-0.7827,-0.8204,-0.8544,-0.9077,-0.9696,-1.0274,-1.0448,-1.027,-0.9844,-0.9899,-0.9781,-0.9031,-0.8896,-0.8722,-0.8044,-0.7997,-0.7926,-0.7629,-0.7546,-0.7624,-0.7678,-0.7587,-0.7482,-1.8644,-1.8664,-1.8905,-1.8838,-1.8544,-1.7963,-1.7337,-1.6663,0.0,0.0,0.0,-1.5607,-1.5614,-1.5803,-1.4484,-1.3878,-1.3728,-1.1209,-1.0002,-0.9953,-0.863,-0.8726,-0.9998,-1.0239,-1.1019,-1.2237,-1.2479,-1.3156,-1.422,-1.4214,-1.4752,-1.5582,-1.4306,-1.2865,-1.1334,-0.8845,-0.8295,-0.9791,-1.0624,-1.1642,-1.2898,-1.2595,-1.2066,-1.1315,-1.0761,-1.0228,-0.9649,-0.919,-0.9037,-0.9185,-0.8755,-0.8487,-0.844,-0.8463,-0.8541,-0.8527,-0.8594,-0.8258,-0.7402,-0.7203,-0.6694,-0.5703,-0.5107,-0.4372,-0.3423,-0.3344,-0.3274,-0.3107,-0.3243,-0.3293,-0.313,-0.408,-0.4802,-0.4874,-0.5863,-0.6566,-0.6692,-0.6765,-0.6795,-0.6739,-0.6859,-0.7133,-0.795,-0.8946,-0.9741,-1.0009,-1.0871,-1.1393,-1.047,-0.9754,-0.9281,-0.903,-0.9442,-1.0178,-1.0301,-1.0247,-1.028,-1.055,-1.0717,-1.0673,-1.0533,-1.0727,-1.077,-1.025,-1.037,-0.9952,-0.9187,-0.9035,-0.8668,-0.7798,-0.7671,-0.7689,-0.76,-0.7597,-0.758,-1.9303,-1.9245,-1.9285,-1.9132,-1.8725,-1.7223,-1.5917,-1.488,-1.4405,-1.4969,-1.6144,-1.4762,-1.4938,-1.6144,-1.4611,-1.3878,-1.3728,-1.1209,-1.0002,-0.9953,-0.8627,-0.8726,-1.0047,-1.1121,-1.2334,-1.3632,-1.4704,-1.5337,-1.5534,-1.5534,-1.5635,-1.5744,-1.5312,-1.3729,-1.1254,-0.9839,-0.9183,-0.9253,-0.9963,-1.0884,-1.2041,-1.2541,-1.2586,-1.2063,-1.1812,-1.143,-1.089,-1.0551,-1.044,-1.0434,-1.0155,-1.0002,-1.0049,-1.0038,-1.0227,-1.056,-1.0566,-1.0236,-0.9476,-0.8799,-0.7628,-0.5958,-0.5802,-0.5362,-0.4398,-0.4295,-0.399,-0.3256,-0.3911,-0.3948,-0.3304,-0.4292,-0.502,-0.5051,-0.5995,-0.6675,-0.6719,-0.6753,-0.676,-0.6685,-0.6715,-0.6729,-0.7046,-0.7971,-0.8968,-0.9847,-1.0975,-1.1617,-1.1324,-1.0491,-0.9897,-0.9654,-0.972,-1.0223,-1.1007,-1.1295,-1.1536,-1.2565,-1.2565,-1.2237,-1.1462,-1.1569,-1.1447,-1.0464,-1.0639,-1.0514,-1.0092,-1.019,-0.9764,-0.884,-0.8637,-0.8507,-0.7852,-0.766,-0.7546,-1.9424,-1.9424,-1.9424,-1.9285,-1.8997,-1.6956,-1.5147,-1.3656,-1.3163,-1.4121,-1.5868,-1.5252,-1.5367,-1.5916,-1.5252,-1.4902,-1.4854,-1.2958,-1.2134,-1.2032,-1.0725,-1.0823,-1.2086,-1.2721,-1.3632,-1.4902,-1.5486,-1.5825,-1.5825,-1.5825,-1.5825,-1.571,-1.4196,-1.2286,-1.02,-0.9031,-0.8749,-0.935,-1.0953,-1.2062,-1.2507,-1.3186,-1.3441,-1.3238,-1.2692,-1.2184,-1.1755,-1.1304,-1.1021,-1.0873,-1.075,-1.0607,-1.052,-1.0629,-1.0822,-1.0962,-1.0874,-1.0554,-1.0037,-0.9303,-0.8267,-0.69,-0.7393,-0.7609,-0.7142,-0.6105,-0.5538,-0.5626,-0.6053,-0.6367,-0.6415,-0.6485,-0.6642,-0.7002,-0.7214,-0.7205,-0.7105,-0.7278,-0.7141,-0.6605,-0.6529,-0.659,-0.6511,-0.7406,-0.8457,-0.9472,-1.096,-1.2126,-1.2578,-1.1874,-1.1032,-1.0593,-1.092,-1.145,-1.1851,-1.1928,-1.2158,-1.2636,-1.2852,-1.2739,-1.2303,-1.2521,-1.2484,-1.2003,-1.2046,-1.1896,-1.1336,-1.1084,-1.0642,-0.9976,-0.9057,-0.8597,-0.829,-0.7849,-0.7353,-1.9424,-1.9424,-1.9424,-1.9152,-1.8596,-1.6795,-1.5051,-1.3542,-1.307,-1.4013,-1.5706,-1.5566,-1.5566,-1.5919,-1.5818,-1.5825,-1.5635,-1.4507,-1.3878,-1.3782,-1.2528,-1.2624,-1.3776,-1.3878,-1.4555,-1.5683,-1.5825,-1.5825,-1.5825,-1.5825,-1.5825,-1.5514,-1.3056,-1.1246,-1.0296,-0.9126,-0.9032,-1.0101,-1.2514,-1.3528,-1.3015,-1.374,-1.4128,-1.3941,-1.332,-1.2772,-1.2449,-1.1897,-1.1463,-1.1116,-1.1029,-1.0862,-1.0626,-1.0807,-1.0922,-1.0962,-1.0814,-1.0548,-1.0177,-0.9527,-0.8793,-0.7978,-0.8759,-0.9276,-0.9155,-0.791,-0.7288,-0.8008,-0.8075,-0.8418,-0.8889,-0.8546,-0.8359,-0.8837,-0.8473,-0.8083,-0.7838,-0.8077,-0.7865,-0.6871,-0.6738,-0.6734,-0.6574,-0.7018,-0.7957,-0.9261,-1.1291,-1.3014,-1.3601,-1.3388,-1.2897,-1.217,-1.2336,-1.2465,-1.2345,-1.2288,-1.2294,-1.2305,-1.2492,-1.2619,-1.2694,-1.31,-1.3387,-1.3107,-1.3412,-1.3194,-1.2471,-1.2216,-1.1804,-1.1033,-1.0208,-0.9409,-0.8914,-0.7938,-0.7358,-1.9424,-1.9424,-1.941,-1.8423,-1.6987,-1.6449,-1.5814,-1.5091,-1.4873,-1.5303,-1.5982,-1.472,-1.4986,-1.6069,-1.5945,-1.5825,-1.5683,-1.4459,-1.3926,-1.3782,-1.2528,-1.2624,-1.3872,-1.392,-1.4555,-1.5683,-1.5825,-1.5825,-1.5825,-1.5825,-1.5778,-1.5486,-1.3182,-1.2326,-1.2958,-1.2023,-1.1442,-1.1539,-1.4175,-1.4646,-1.3025,-1.3923,-1.4229,-1.3653,-1.3573,-1.3287,-1.277,-1.2398,-1.1957,-1.1389,-1.1169,-1.0894,-1.0672,-1.0658,-1.0754,-1.1002,-1.0995,-1.0792,-1.0355,-0.9691,-0.9229,-0.8998,-0.9202,-0.936,-0.9227,-0.911,-0.9031,-0.9183,-0.9183,-0.9226,-0.9296,-0.9221,-0.9233,-0.9403,-0.9261,-0.9135,-0.91,-0.9145,-0.8784,-0.7791,-0.7665,-0.7474,-0.6588,-0.672,-0.7521,-0.9153,-1.2048,-1.4074,-1.4462,-1.5103,-1.5294,-1.4163,-1.328,-1.2503,-1.2375,-1.2305,-1.2345,-1.2331,-1.2331,-1.2429,-1.2525,-1.2866,-1.3233,-1.326,-1.3667,-1.3763,-1.3601,-1.3581,-1.3272,-1.2242,-1.1637,-1.1273,-0.9575,-0.8108,-0.7694,-2.0422,-2.0309,-1.9492,-1.8148,-1.6659,-1.6348,-1.5532,-1.4358,-1.5381,-1.5632,-1.5413,-1.5848,-1.6109,-1.5999,-1.5831,-1.5825,-1.5778,-1.5242,-1.5045,-1.4997,-1.4418,-1.4513,-1.4997,-1.4997,-1.5343,-1.5778,-1.5825,-1.5825,-1.5825,-1.5825,-1.5439,-1.4657,-1.3542,-1.2962,-1.2645,-1.2147,-1.2233,-1.3006,-1.4112,-1.455,-1.4384,-1.4634,-1.4676,-1.4422,-1.4088,-1.3634,-1.3066,-1.2732,-1.2467,-1.2183,-1.2052,-1.1785,-1.1348,-1.146,-1.136,-1.1055,-1.1162,-1.09,-1.0161,-1.0361,-1.0431,-1.0129,-1.0553,-1.0876,-1.0973,-1.1039,-1.1099,-1.1025,-1.0571,-1.0378,-1.0913,-1.0527,-1.0364,-1.0667,-1.0479,-1.014,-0.9954,-1.0107,-0.9626,-0.8136,-0.7896,-0.7632,-0.6878,-0.7533,-0.8567,-0.9855,-1.2414,-1.4569,-1.5342,-1.6024,-1.638,-1.6363,-1.5471,-1.4149,-1.3013,-1.2596,-1.2603,-1.2603,-1.2603,-1.2576,-1.2445,-1.2979,-1.338,-1.3247,-1.3701,-1.4001,-1.3913,-1.3821,-1.3587,-1.2958,-1.2421,-1.1806,-1.0294,-0.902,-0.8588,-2.1578,-2.1289,-1.9933,-1.8645,-1.7629,-1.7407,-1.6734,-1.5917,-1.7123,-1.7045,-1.6275,-1.7658,-1.7579,-1.6393,-1.5967,-1.5825,-1.5825,-1.5825,-1.5825,-1.5825,-1.5825,-1.5778,-1.5825,-1.5825,-1.5825,-1.5825,-1.5825,-1.5825,-1.5825,-1.5825,-1.5337,-1.4513,-1.407,-1.359,-1.3011,-1.2673,-1.3108,-1.431,-1.4411,-1.4801,-1.5345,-1.515,-1.4968,-1.4816,-1.4429,-1.4053,-1.3779,-1.3448,-1.3342,-1.3447,-1.3217,-1.2742,-1.2029,-1.2049,-1.1746,-1.1026,-1.1142,-1.0991,-1.0268,-1.103,-1.14,-1.1211,-1.1886,-1.2468,-1.2677,-1.2945,-1.3084,-1.3047,-1.2441,-1.2295,-1.207,-1.1872,-1.1775,-1.1988,-1.1689,-1.1432,-1.1046,-1.1101,-1.0565,-0.8965,-0.8937,-0.8462,-0.7868,-0.8684,-0.9722,-1.0589,-1.3116,-1.5315,-1.6327,-1.7034,-1.7799,-1.8012,-1.7424,-1.6106,-1.3942,-1.3428,-1.3314,-1.295,-1.2904,-1.2804,-1.2525,-1.312,-1.3453,-1.328,-1.3707,-1.3968,-1.4015,-1.3895,-1.3766,-1.3778,-1.3167,-1.2157,-1.1284,-1.0139,-0.9536,-2.2871,-2.2247,-2.1001,-2.0357,-2.0273,-1.9957,-2.0301,-2.0542,-2.075,-2.0289,-1.9447,-1.9711,-1.8972,-1.7552,-1.6527,-1.5832,-1.5825,-1.5825,-1.5872,-1.592,-1.5879,-1.5825,-1.5825,-1.5825,-1.5872,-1.5967,-1.6015,-1.592,-1.5825,-1.5825,-1.5784,-1.5629,-1.4561,-1.4507,-1.5099,-1.4316,-1.4411,-1.5439,-1.5588,-1.5663,-1.5725,-1.529,-1.4939,-1.467,-1.4502,-1.4712,-1.5072,-1.4749,-1.4743,-1.5228,-1.4495,-1.3566,-1.2538,-1.2083,-1.1524,-1.0794,-1.0908,-1.1002,-1.1009,-1.1544,-1.1886,-1.2002,-1.292,-1.3599,-1.3694,-1.435,-1.4772,-1.4985,-1.4728,-1.4091,-1.2835,-1.312,-1.315,-1.2581,-1.3099,-1.307,-1.2271,-1.2178,-1.1768,-1.0804,-1.0434,-1.0111,-0.9691,-0.9802,-1.0447,-1.1772,-1.45,-1.6659,-1.7038,-1.8731,-1.9389,-1.8931,-1.8542,-1.7909,-1.5444,-1.4469,-1.4095,-1.3717,-1.3422,-1.3197,-1.3032,-1.3018,-1.3212,-1.3366,-1.3757,-1.4001,-1.4079,-1.4068,-1.4035,-1.3822,-1.3252,-1.2419,-1.2297,-1.13,-1.0697,-2.3252,-2.2192,-2.1727,-2.1515,-2.1476,-2.1135,-2.1084,-2.1205,-2.1408,-2.0904,-2.0157,-2.0523,-2.0061,-1.8818,-1.8395,-1.7296,-1.592,-1.5825,-1.6251,-1.6951,-1.7037,-1.7444,-1.8118,-1.8164,-1.7716,-1.7084,-1.7037,-1.6574,-1.5872,-1.5825,-1.5825,-1.5778,-1.5337,-1.5391,-1.5635,-1.5337,-1.5391,-1.573,-1.5825,-1.5738,-1.5658,-1.6004,-1.6042,-1.554,-1.5368,-1.5591,-1.6316,-1.5886,-1.5778,-1.6132,-1.5563,-1.4985,-1.4347,-1.3186,-1.1992,-1.1045,-1.1109,-1.1269,-1.1364,-1.2031,-1.2703,-1.3093,-1.3842,-1.4449,-1.4644,-1.4985,-1.5199,-1.5234,-1.5199,-1.4772,-1.445,-1.4486,-1.4522,-1.4307,-1.4422,-1.4294,-1.3491,-1.3171,-1.264,-1.1379,-1.0639,-1.019,-1.0412,-1.057,-1.1145,-1.1944,-1.4193,-1.5999,-1.7166,-1.8589,-1.9564,-1.983,-1.9887,-1.9457,-1.7886,-1.5976,-1.4927,-1.4496,-1.4189,-1.4047,-1.3942,-1.4216,-1.45,-1.4482,-1.4543,-1.4418,-1.4594,-1.4166,-1.4166,-1.3997,-1.3379,-1.3294,-1.347,-1.2388,-1.1858,-2.3937,-2.2707,-2.2596,-2.2604,-2.257,-2.2325,-2.2175,-2.2132,-2.2479,-2.2015,-2.1225,-2.1598,-2.1212,-2.0206,-2.0079,-1.8985,-1.7117,-1.7023,-1.749,-1.8234,-1.8272,-1.8726,-1.9405,-1.9497,-1.9093,-1.8365,-1.828,-1.763,-1.6574,-1.6386,-1.6204,-1.5832,-1.5825,-1.5825,-1.5825,-1.5825,-1.5825,-1.5818,-1.6054,-1.6116,-1.606,-1.678,-1.7257,-1.7138,-1.6899,-1.7017,-1.7547,-1.6992,-1.697,-1.7283,-1.6794,-1.6107,-1.544,-1.3851,-1.255,-1.1743,-1.1479,-1.156,-1.1915,-1.2606,-1.3297,-1.3982,-1.4821,-1.5428,-1.5632,-1.5948,-1.6079,-1.6079,-1.6123,-1.6114,-1.6272,-1.6307,-1.6007,-1.5505,-1.5583,-1.5436,-1.4551,-1.4506,-1.3888,-1.2646,-1.1398,-1.0898,-1.1114,-1.1495,-1.1946,-1.2377,-1.4192,-1.5756,-1.67,-1.806,-1.9155,-1.9923,-2.0294,-2.0157,-1.9282,-1.7838,-1.6517,-1.5997,-1.5484,-1.5245,-1.5189,-1.5509,-1.5651,-1.5629,-1.5482,-1.5227,-1.4862,-1.442,-1.4208,-1.4166,-1.3955,-1.3779,-1.3688,-1.347,-1.2997,-2.4981,-2.3908,-2.3741,-2.3683,-2.3674,-2.3556,-2.3864,-2.4073,-2.4142,-2.3503,-2.2748,-2.296,-2.2306,-2.148,-2.1302,-2.0621,-1.9679,-1.9497,-1.9497,-1.9542,-1.9497,-1.9588,-1.9807,-1.9906,-1.9761,-1.9497,-1.9451,-1.8818,-1.7777,-1.7544,-1.699,-1.6055,-1.5872,-1.592,-1.5872,-1.594,-1.5934,-1.6141,-1.6738,-1.6958,-1.7079,-1.7561,-1.8271,-1.9012,-1.8928,-1.8899,-1.8951,-1.8181,-1.8128,-1.8865,-1.7988,-1.6796,-1.559,-1.4114,-1.3013,-1.2736,-1.2031,-1.2031,-1.2732,-1.3267,-1.4024,-1.4767,-1.5895,-1.6557,-1.6688,-1.7285,-1.7716,-1.7691,-1.7783,-1.8002,-1.8261,-1.8283,-1.7577,-1.5848,-1.6509,-1.6802,-1.6091,-1.6101,-1.5954,-1.47,-1.328,-1.2469,-1.2836,-1.2842,-1.2883,-1.3674,-1.4577,-1.5524,-1.6044,-1.7536,-1.8709,-1.9234,-1.9923,-2.0411,-2.0128,-1.9668,-1.8563,-1.7624,-1.7122,-1.6718,-1.6714,-1.6911,-1.6789,-1.674,-1.6484,-1.6235,-1.5886,-1.5387,-1.4776,-1.4657,-1.4412,-1.425,-1.3913,-1.3786,-1.391,-2.6771,-2.6232,-2.5112,-2.467,-2.4584,-2.4021,-2.3869,-2.3919,-2.3637,-2.3335,-2.313,-2.3101,-2.2862,-2.2633,-2.2545,-2.2315,-2.1996,-2.1952,-2.1534,-2.0845,-2.0728,-2.1186,-2.1819,-2.1952,-2.1543,-2.0711,-1.9898,-1.936,-1.8856,-1.8141,-1.7451,-1.7037,-1.6244,-1.6292,-1.7055,-1.6821,-1.696,-1.778,-1.7843,-1.7735,-1.7642,-1.8456,-1.9009,-1.9155,-1.9743,-2.0118,-2.008,-1.9278,-1.8977,-1.9304,-1.835,-1.7312,-1.636,-1.5754,-1.4743,-1.3474,-1.3766,-1.3627,-1.3412,-1.468,-1.5618,-1.6129,-1.698,-1.7491,-1.7569,-1.7794,-1.8008,-1.8047,-1.8262,-1.8481,-1.8568,-1.8598,-1.8241,-1.7612,-1.8192,-1.8079,-1.7088,-1.6774,-1.6588,-1.6296,-1.5708,-1.551,-1.5394,-1.4783,-1.4186,-1.4384,-1.4593,-1.4639,-1.567,-1.6911,-1.8189,-1.8877,-1.9805,-2.0625,-2.0439,-2.0398,-1.9921,-1.9039,-1.8477,-1.8141,-1.8154,-1.8161,-1.8025,-1.7783,-1.7528,-1.7199,-1.6814,-1.6363,-1.5752,-1.5338,-1.5255,-1.4852,-1.4292,-1.4102,-1.4128,-2.8272,-2.8079,-2.649,-2.5856,-2.5849,-2.4615,-2.4023,-2.3955,-2.3564,-2.3257,-2.312,-2.3101,-2.3101,-2.3101,-2.3101,-2.3101,-2.3101,-2.3101,-2.2721,-2.2031,-2.1961,-2.2413,-2.3047,-2.3101,-2.2765,-2.1987,-2.1221,-2.0584,-2.0124,-1.9451,-1.8818,-1.8272,-1.7584,-1.7455,-1.8095,-1.787,-1.8111,-1.851,-1.8614,-1.8566,-1.8687,-1.9696,-2.0289,-2.0313,-2.1125,-2.1642,-2.1628,-2.0994,-2.0189,-1.9351,-1.8467,-1.771,-1.7148,-1.6757,-1.5957,-1.5028,-1.4874,-1.4991,-1.4871,-1.6026,-1.7003,-1.7362,-1.7877,-1.812,-1.8022,-1.8008,-1.8008,-1.8057,-1.8344,-1.8656,-1.8822,-1.9007,-1.9065,-1.9075,-1.8951,-1.8829,-1.8192,-1.7905,-1.7735,-1.7581,-1.7234,-1.6973,-1.6466,-1.6186,-1.5265,-1.5005,-1.4485,-1.4029,-1.5174,-1.6277,-1.7463,-1.87,-1.9883,-2.0456,-2.081,-2.0957,-2.1084,-2.044,-1.9731,-1.9534,-1.9409,-1.9394,-1.9301,-1.8953,-1.8692,-1.8145,-1.7749,-1.7269,-1.6731,-1.6437,-1.6175,-1.5421,-1.4859,-1.425,-1.4177,-2.9487,-2.9305,-2.771,-2.7132,-2.7087,-2.5324,-2.4366,-2.4209,-2.3867,-2.3467,-2.3149,-2.3101,-2.3101,-2.3101,-2.3101,-2.3101,-2.3101,-2.3101,-2.3047,-2.296,-2.296,-2.3047,-2.3101,-2.3101,-2.3003,-2.296,-2.2862,-2.2359,-2.1391,-2.1069,-2.0711,-1.9633,-1.9306,-1.9315,-1.9067,-1.8952,-1.8825,-1.8939,-1.9318,-1.9652,-1.9774,-2.1191,-2.201,-2.2027,-2.2776,-2.3257,-2.3154,-2.2712,-2.1607,-1.9673,-1.8715,-1.8232,-1.7886,-1.7166,-1.6688,-1.634,-1.5772,-1.6129,-1.6848,-1.7279,-1.7764,-1.8415,-1.8556,-1.849,-1.8271,-1.8252,-1.8252,-1.8252,-1.8549,-1.8909,-1.9316,-1.959,-1.9775,-1.9709,-1.9231,-1.9156,-1.9731,-1.9377,-1.9085,-1.8903,-1.8138,-1.7303,-1.6962,-1.6879,-1.6061,-1.5342,-1.5085,-1.4866,-1.4999,-1.617,-1.7171,-1.8463,-1.9928,-2.0608,-2.1045,-2.1338,-2.1445,-2.1256,-2.0669,-2.0558,-2.0311,-2.0264,-2.0207,-1.9907,-1.9858,-1.9256,-1.8934,-1.8748,-1.8275,-1.7946,-1.726,-1.6224,-1.5421,-1.4817,-1.4484,-3.0721,-3.0528,-2.897,-2.7659,-2.6623,-2.5643,-2.4577,-2.354,-2.3354,-2.3257,-2.3101,-2.3101,-2.3101,-2.3101,-2.3101,-2.3101,-2.3101,-2.3135,-2.3101,-2.3101,-2.3101,-2.3101,-2.3101,-2.3101,-2.3101,-2.3101,-2.3091,-2.2906,-2.258,-2.1791,-2.1212,-2.08,-2.007,-1.9847,-2.0097,-1.9868,-2.0213,-2.0861,-2.1105,-2.1467,-2.1844,-2.2589,-2.3084,-2.3147,-2.3404,-2.3588,-2.347,-2.3127,-2.216,-2.0588,-1.9882,-1.9184,-1.8453,-1.7898,-1.7323,-1.6883,-1.7322,-1.7455,-1.7442,-1.8179,-1.8812,-1.9049,-1.9121,-1.9062,-1.8984,-1.8945,-1.8945,-1.9014,-1.9326,-1.9553,-1.9736,-1.9863,-1.9805,-1.9521,-1.9512,-1.9736,-2.0167,-2.0275,-2.0196,-2.0118,-1.9795,-1.947,-1.9034,-1.8285,-1.7491,-1.7,-1.6412,-1.5904,-1.5992,-1.6918,-1.8278,-1.8914,-2.0008,-2.0715,-2.1278,-2.1641,-2.1797,-2.1777,-2.1528,-2.1341,-2.1032,-2.0712,-2.0586,-2.0421,-2.0992,-2.0692,-2.0931,-2.1008,-2.0382,-1.9506,-1.8704,-1.7794,-1.6306,-1.5394,-1.5142,-3.2008,-3.1872,-3.0226,-2.8812,-2.7516,-2.6402,-2.5009,-2.3796,-2.3442,-2.3247,-2.313,-2.3101,-2.3101,-2.3101,-2.3101,-2.3101,-2.3144,-2.3594,-2.3551,-2.3101,-2.3101,-2.3101,-2.3101,-2.3101,-2.3101,-2.3101,-2.3101,-2.3091,-2.296,-2.235,-2.2076,-2.1943,-2.1355,-2.1119,-2.1141,-2.0969,-2.1129,-2.18,-2.1994,-2.2336,-2.3021,-2.3756,-2.4082,-2.4264,-2.4469,-2.4755,-2.4708,-2.4555,-2.3407,-2.1549,-2.0572,-1.9854,-1.8738,-1.8383,-1.7985,-1.7514,-1.8181,-1.843,-1.855,-1.9157,-1.9715,-1.9972,-1.9872,-1.9736,-1.9769,-1.9604,-1.9277,-1.9287,-1.9678,-1.9863,-1.9941,-2.0068,-2.0096,-1.9999,-2.0049,-2.0253,-2.0312,-2.0449,-2.0586,-2.0615,-2.0595,-2.0507,-2.0342,-1.9326,-1.8685,-1.812,-1.7476,-1.7034,-1.6882,-1.8224,-1.9134,-1.9503,-2.0153,-2.096,-2.1483,-2.1865,-2.2207,-2.2207,-2.2139,-2.1982,-2.1487,-2.1129,-2.1064,-2.1174,-2.1855,-2.2279,-2.2288,-2.2268,-2.1931,-2.1074,-2.0285,-1.9119,-1.7632,-1.6239,-1.5933,-3.3124,-3.2975,-3.1497,-3.0296,-2.9173,-2.7385,-2.5827,-2.4558,-2.3987,-2.3564,-2.3325,-2.3295,-2.342,-2.3256,-2.3767,-2.3551,-2.3637,-2.4595,-2.4168,-2.3637,-2.3222,-2.3101,-2.3101,-2.3101,-2.3101,-2.3101,-2.3101,-2.3101,-2.3047,-2.3003,-2.3047,-2.2862,-2.2862,-2.2586,-2.2016,-2.1877,-2.201,-2.2211,-2.2453,-2.2998,-2.3849,-2.4693,-2.5111,-2.5252,-2.5756,-2.6151,-2.6233,-2.6124,-2.4988,-2.1951,-2.1321,-2.0423,-1.9183,-1.8876,-1.863,-1.873,-1.8945,-1.9407,-2.0009,-2.0382,-2.0798,-2.145,-2.091,-2.0484,-2.0922,-2.0617,-2.0202,-2.0248,-2.0128,-2.0534,-2.0614,-2.0705,-2.0748,-2.0708,-2.073,-2.04,-2.0176,-2.0332,-2.0615,-2.0615,-2.0615,-2.04,-2.0127,-1.9827,-1.9476,-1.8892,-1.8429,-1.8283,-1.8175,-1.89,-1.9416,-1.9539,-2.0313,-2.1226,-2.1668,-2.208,-2.2389,-2.2613,-2.2565,-2.2376,-2.1777,-2.1492,-2.1508,-2.1718,-2.2154,-2.2489,-2.2697,-2.2714,-2.2622,-2.2205,-2.1094,-2.01,-1.9009,-1.7609,-1.6873,-3.3124,-3.3056,-3.2716,-3.1467,-2.9707,-2.8653,-2.7092,-2.517,-2.4207,-2.375,-2.3752,-2.4168,-2.4339,-2.4425,-2.5094,-2.5766,-2.5568,-2.585,-2.5515,-2.4457,-2.342,-2.3178,-2.3188,-2.3319,-2.3135,-2.3135,-2.3101,-2.3101,-2.3101,-2.3178,-2.3101,-2.3101,-2.3323,-2.2881,-2.2432,-2.2547,-2.2609,-2.3021,-2.3476,-2.4176,-2.5008,-2.5681,-2.606,-2.6129,-2.6418,-2.6487,-2.6487,-2.6487,-2.5742,-2.4378,-2.3063,-2.1914,-2.0705,-1.9785,-1.9367,-1.9499,-2.0292,-2.1047,-2.1653,-2.2248,-2.2973,-2.3363,-2.2892,-2.2776,-2.2845,-2.2637,-2.2476,-2.2593,-2.2691,-2.2459,-2.2407,-2.1991,-2.1735,-2.1517,-2.1078,-2.0605,-2.0498,-2.0546,-2.0605,-2.0586,-2.0566,-2.0556,-2.0429,-2.0,-1.9703,-1.9448,-1.9392,-1.943,-1.9526,-1.9648,-1.9654,-1.9631,-1.9899,-2.0646,-2.1159,-2.1678,-2.2324,-2.2633,-2.2701,-2.2443,-2.184,-2.1527,-2.1465,-2.1801,-2.2299,-2.2525,-2.2545,-2.2655,-2.2467,-2.214,-2.1762,-2.0663,-1.9502,-1.8452,-1.7808,-3.3307,-3.3124,-3.3124,-3.2093,-3.0466,-2.9429,-2.7973,-2.6114,-2.4641,-2.3965,-2.3855,-2.3991,-2.4307,-2.483,-2.542,-2.588,-2.6431,-2.6524,-2.6648,-2.6298,-2.5486,-2.4891,-2.4974,-2.4657,-2.4307,-2.3387,-2.3101,-2.3101,-2.3178,-2.3594,-2.3681,-2.3309,-2.4102,-2.3815,-2.3016,-2.3482,-2.4057,-2.4165,-2.4653,-2.5423,-2.6287,-2.6414,-2.6487,-2.6624,-2.6816,-2.6939,-2.6521,-2.6487,-2.6198,-2.5543,-2.4519,-2.3093,-2.1814,-2.1146,-2.0814,-2.0585,-2.1685,-2.2624,-2.3244,-2.3612,-2.4149,-2.4932,-2.4127,-2.3629,-2.3478,-2.3478,-2.322,-2.3073,-2.3136,-2.3478,-2.3489,-2.3158,-2.259,-2.1989,-2.1593,-2.1078,-2.0722,-2.0605,-2.0498,-2.0332,-2.0234,-2.0234,-2.0127,-1.9961,-1.9865,-1.9637,-1.9685,-1.9705,-1.9686,-1.9774,-1.9657,-1.9595,-1.9545,-1.9867,-2.0448,-2.118,-2.2058,-2.2422,-2.2627,-2.2197,-2.1614,-2.141,-2.125,-2.14,-2.1368,-2.185,-2.1895,-2.2091,-2.2247,-2.2103,-2.1621,-2.075,-2.0058,-1.9337,-1.885,-3.3495,-3.3124,-3.3124,-3.2432,-3.1248,-2.9931,-2.8536,-2.7052,-2.5261,-2.4355,-2.4026,-2.36,-2.4308,-2.4817,-2.5442,-2.6005,-2.6835,-2.7001,-2.7577,-2.8145,-2.6975,-2.6612,-2.6681,-2.6259,-2.5431,-2.3724,-2.3887,-2.3844,-2.4102,-2.4467,-2.4681,-2.4188,-2.54,-2.5217,-2.4033,-2.4639,-2.5513,-2.5462,-2.5527,-2.6106,-2.6955,-2.6914,-2.6829,-2.7229,-2.7788,-2.7622,-2.7045,-2.6782,-2.6624,-2.6452,-2.5699,-2.4151,-2.2892,-2.2517,-2.2806,-2.1929,-2.3353,-2.4351,-2.4793,-2.4969,-2.5289,-2.6032,-2.4663,-2.3888,-2.3781,-2.3818,-2.3551,-2.3404,-2.354,-2.4217,-2.3963,-2.3818,-2.3305,-2.2515,-2.214,-2.1555,-2.0867,-2.0605,-2.0419,-2.0068,-2.0146,-2.0244,-2.0059,-1.9873,-1.9873,-1.9883,-1.9932,-1.999,-1.9971,-1.981,-1.9669,-1.9327,-1.919,-1.877,-1.9165,-2.0248,-2.1212,-2.1768,-2.209,-2.1795,-2.1237,-2.074,-2.0422,-2.0009,-2.0101,-2.0583,-2.1047,-2.1243,-2.1454,-2.1714,-2.1538,-2.0819,-2.0437,-2.02,-1.9905,-3.3199,-3.3124,-3.3124,-3.2664,-3.1804,-3.0176,-2.9047,-2.8003,-2.6033,-2.4959,-2.4874,-2.4974,-2.4974,-2.5551,-2.6967,-2.8079,-2.8455,-2.8497,-2.8644,-2.888,-2.7891,-2.7466,-2.7619,-2.7197,-2.6453,-2.611,-2.5964,-2.5994,-2.5724,-2.6099,-2.5933,-2.5975,-2.6431,-2.6113,-2.5722,-2.5898,-2.6353,-2.6558,-2.6261,-2.6481,-2.7124,-2.761,-2.7881,-2.846,-2.919,-2.8808,-2.7828,-2.7484,-2.7196,-2.6555,-2.6349,-2.5787,-2.4988,-2.4436,-2.4112,-2.4153,-2.5228,-2.6233,-2.6569,-2.6748,-2.7102,-2.7101,-2.5793,-2.4707,-2.4636,-2.4636,-2.4228,-2.4516,-2.4992,-2.5804,-2.5943,-2.4992,-2.4228,-2.3379,-2.2403,-2.1631,-2.0867,-2.0576,-2.0419,-2.001,-2.0156,-2.0302,-2.001,-1.9844,-1.9853,-1.9844,-1.9863,-2.0039,-2.0166,-1.9869,-1.9554,-1.915,-1.8701,-1.8158,-1.7796,-1.9034,-2.0108,-2.0739,-2.11,-2.1293,-2.0694,-1.9943,-1.9459,-1.9154,-1.9037,-1.9307,-1.9775,-2.0138,-2.0512,-2.0654,-2.0752,-2.0869,-2.0849,-2.07,-2.0866,-3.3375,-3.3136,-3.3124,-3.2918,-3.2418,-3.1015,-3.0027,-2.9289,-2.7417,-2.603,-2.5409,-2.5163,-2.509,-2.5327,-2.5875,-2.7267,-2.8574,-2.9391,-2.9662,-2.978,-2.9136,-2.898,-2.9112,-2.854,-2.8633,-2.88,-2.8905,-2.7888,-2.6719,-2.7075,-2.7116,-2.6842,-2.7504,-2.7678,-2.7023,-2.7444,-2.7557,-2.7723,-2.7206,-2.7102,-2.7776,-2.8394,-2.9157,-2.9656,-3.0427,-3.0118,-2.8806,-2.8779,-2.8299,-2.7429,-2.7142,-2.6924,-2.6657,-2.6432,-2.6046,-2.5904,-2.6922,-2.7703,-2.7802,-2.7739,-2.7686,-2.7437,-2.6019,-2.4802,-2.4373,-2.4156,-2.4264,-2.4516,-2.5075,-2.5511,-2.485,-2.5004,-2.4264,-2.3036,-2.2264,-2.1603,-2.0905,-2.0644,-2.0332,-2.0029,-2.0068,-2.0078,-1.9912,-1.9814,-1.9834,-1.9824,-1.9795,-1.9961,-2.0205,-1.9761,-1.9229,-1.8777,-1.8214,-1.7393,-1.7066,-1.7995,-1.9037,-1.9629,-2.0421,-2.0568,-2.0472,-1.9924,-1.9125,-1.8479,-1.8425,-1.8423,-1.824,-1.8557,-1.9068,-1.9638,-1.9834,-2.0131,-2.0913,-2.1294,-2.1462,-3.3483,-3.3124,-3.3124,-3.3124,-3.2896,-3.1721,-3.0953,-3.0284,-2.8716,-2.7283,-2.6072,-2.5325,-2.5104,-2.5285,-2.5673,-2.6562,-2.8227,-2.9347,-3.0351,-3.0701,-3.0286,-3.0403,-3.0668,-3.0487,-2.9999,-3.0518,-3.0743,-3.0025,-2.879,-2.888,-2.8539,-2.8736,-2.9807,-2.964,-2.8685,-2.9171,-2.9231,-2.893,-2.82,-2.8146,-2.8666,-2.9652,-3.0434,-3.0566,-3.1763,-3.1484,-2.9799,-2.969,-2.9201,-2.8395,-2.8093,-2.8164,-2.8121,-2.8546,-2.8418,-2.7866,-2.8599,-2.8662,-2.8399,-2.8085,-2.7821,-2.7358,-2.5874,-2.4647,-2.3734,-2.3478,-2.3404,-2.3818,-2.4492,-2.5075,-2.4838,-2.4743,-2.4108,-2.2962,-2.2226,-2.1669,-2.0944,-2.0576,-2.0488,-2.0225,-2.0078,-1.9883,-1.9727,-1.9785,-1.9795,-1.958,-1.9541,-1.9541,-1.9678,-1.9228,-1.8715,-1.8308,-1.7641,-1.6685,-1.6497,-1.7025,-1.7956,-1.8641,-1.9692,-2.0453,-2.0352,-2.0104,-1.9355,-1.8678,-1.7834,-1.775,-1.7392,-1.7278,-1.7974,-1.8583,-1.8913,-1.974,-2.1012,-2.1797,-2.2139,-3.3144,-3.3124,-3.3124,-3.3124,-3.2939,-3.1777,-3.1175,-3.0888,-2.9335,-2.8478,-2.7878,-2.6345,-2.5958,-2.6583,-2.7283,-2.7775,-2.8507,-2.9579,-3.0442,-3.0721,-3.0495,-3.0457,-3.0633,-3.0105,-3.0482,-3.1217,-3.1315,-3.1583,-3.1383,-3.1675,-3.1761,-3.1616,-3.1519,-3.1933,-3.1122,-3.0703,-3.0498,-3.0446,-2.9081,-2.8708,-2.9666,-3.0855,-3.1588,-3.2225,-3.273,-3.2544,-3.1061,-3.0707,-3.0018,-2.9237,-2.9458,-2.9888,-3.0405,-3.1028,-3.1052,-3.059,-3.0113,-2.944,-2.8775,-2.8247,-2.7758,-2.7064,-2.5813,-2.4647,-2.3551,-2.2925,-2.311,-2.4743,-2.4981,-2.5111,-2.5205,-2.5252,-2.4445,-2.3404,-2.244,-2.1707,-2.0934,-2.0605,-2.0507,-2.0498,-2.0322,-1.9863,-1.9531,-1.9658,-1.9727,-1.9482,-1.9297,-1.9277,-1.9307,-1.9033,-1.8416,-1.801,-1.786,-1.6992,-1.6668,-1.7115,-1.761,-1.8126,-1.9361,-2.0495,-2.0598,-2.0542,-2.0199,-1.9484,-1.846,-1.7521,-1.7296,-1.7293,-1.7345,-1.8069,-1.9162,-2.0314,-2.1523,-2.2129,-2.2608,-3.2303,-3.2616,-3.2955,-3.3124,-3.3025,-3.2481,-3.2086,-3.1602,-3.0664,-2.965,-2.868,-2.752,-2.6899,-2.7032,-2.7672,-2.8096,-2.8395,-2.9547,-3.0305,-3.0444,-3.0357,-3.0319,-3.0444,-3.0198,-3.0457,-3.1609,-3.2177,-3.3045,-3.3429,-3.3101,-3.2593,-3.2664,-3.2629,-3.2486,-3.277,-3.2017,-3.1829,-3.1604,-3.0913,-3.0502,-3.0999,-3.1664,-3.2346,-3.3034,-3.3709,-3.318,-3.2328,-3.2148,-3.1676,-3.0962,-3.0874,-3.0867,-3.1277,-3.1592,-3.1625,-3.1387,-3.0595,-2.9611,-2.8584,-2.7982,-2.7431,-2.6744,-2.5645,-2.4348,-2.3147,-2.285,-2.2739,-2.3147,-2.4384,-2.4969,-2.5099,-2.4969,-2.4445,-2.3599,-2.2627,-2.2,-2.126,-2.0789,-2.0586,-2.0605,-2.0527,-1.9951,-1.9473,-1.9394,-1.9404,-1.9189,-1.8955,-1.8828,-1.917,-1.9473,-1.8692,-1.7813,-1.7765,-1.762,-1.7486,-1.7658,-1.8189,-1.8847,-2.0181,-2.104,-2.1183,-2.1053,-2.0835,-2.04,-1.955,-1.8621,-1.7728,-1.7492,-1.7722,-1.8655,-1.9736,-2.0782,-2.18,-2.2214,-2.2843,-3.2283,-3.2498,-3.2613,-3.2654,-3.2722,-3.2847,-3.2616,-3.2135,-3.1567,-3.0659,-2.9614,-2.8775,-2.7758,-2.7098,-2.7839,-2.8478,-2.8176,-2.9287,-2.9939,-3.0131,-3.008,-3.0068,-3.0143,-3.0072,-3.0633,-3.2249,-3.196,-3.3031,-3.3939,-3.3856,-3.3171,-3.329,-3.3616,-3.3498,-3.3325,-3.3024,-3.2813,-3.2382,-3.2073,-3.1903,-3.2154,-3.2459,-3.3066,-3.3669,-3.4099,-3.4008,-3.326,-3.314,-3.2948,-3.2549,-3.2319,-3.2384,-3.2606,-3.2915,-3.2645,-3.2179,-3.1369,-3.0095,-2.8786,-2.7756,-2.7087,-2.6397,-2.5616,-2.4445,-2.3404,-2.3368,-2.3599,-2.322,-2.4156,-2.46,-2.4516,-2.4921,-2.4337,-2.3588,-2.2627,-2.214,-2.1621,-2.1011,-2.0586,-2.0556,-2.039,-1.9951,-1.9521,-1.9228,-1.9043,-1.8877,-1.8662,-1.8437,-1.8818,-1.9394,-1.9121,-1.8221,-1.8056,-1.8131,-1.8244,-1.8367,-1.8847,-1.9432,-2.0746,-2.1489,-2.1556,-2.1689,-2.1705,-2.1166,-2.0612,-2.0487,-2.0069,-1.9044,-1.8224,-1.9322,-2.0373,-2.1122,-2.1868,-2.2349,-2.306,-3.3789,-3.3227,-3.2067,-3.1606,-3.1669,-3.2064,-3.224,-3.2089,-3.1587,-3.1232,-3.0705,-3.0044,-2.8422,-2.7557,-2.8502,-2.9028,-2.8255,-2.9275,-2.9777,-2.988,-2.9817,-2.9854,-2.9892,-3.0035,-3.0317,-3.1254,-3.1523,-3.2536,-3.3636,-3.3808,-3.4177,-3.5133,-3.4739,-3.5067,-3.4887,-3.4177,-3.3463,-3.3066,-3.2793,-3.2847,-3.3081,-3.3446,-3.3966,-3.4239,-3.4444,-3.4429,-3.4324,-3.3873,-3.3693,-3.3492,-3.367,-3.3938,-3.4015,-3.4398,-3.4024,-3.2939,-3.2132,-3.0701,-2.9004,-2.7811,-2.7085,-2.6407,-2.5687,-2.5004,-2.4337,-2.3818,-2.3927,-2.4445,-2.4933,-2.5441,-2.5581,-2.5534,-2.4838,-2.4133,-2.3294,-2.2376,-2.1745,-2.0972,-2.0615,-2.0507,-2.0302,-1.998,-1.9678,-1.9404,-1.8789,-1.8574,-1.8437,-1.8223,-1.8393,-1.8896,-1.9189,-1.8858,-1.8599,-1.8626,-1.8859,-1.9127,-1.9374,-1.9804,-2.074,-2.1428,-2.1777,-2.1982,-2.237,-2.2227,-2.181,-2.2129,-2.2145,-2.0846,-2.0078,-2.0403,-2.1028,-2.1811,-2.2251,-2.2644,-2.345,-3.3123,-3.2872,-3.2334,-3.2185,-3.2276,-3.2495,-3.2248,-3.1653,-3.1148,-3.0696,-3.0432,-2.9928,-2.9339,-2.9013,-2.9131,-2.9624,-2.9236,-2.9546,-2.9779,-2.9779,-2.9792,-2.9792,-2.9792,-2.9882,-3.0279,-3.0919,-3.1204,-3.1779,-3.2982,-3.3003,-3.3705,-3.4394,-3.5019,-3.5424,-3.5246,-3.5019,-3.4375,-3.3891,-3.3939,-3.4201,-3.372,-3.4014,-3.4377,-3.4454,-3.4503,-3.4503,-3.4444,-3.4279,-3.4382,-3.4547,-3.4562,-3.4773,-3.4966,-3.534,-3.4684,-3.3468,-3.2684,-3.1126,-2.9231,-2.8025,-2.7267,-2.66,-2.6094,-2.5699,-2.5264,-2.5111,-2.5028,-2.5335,-2.5558,-2.6094,-2.6198,-2.6129,-2.5721,-2.5052,-2.4097,-2.2962,-2.2038,-2.1346,-2.0712,-2.0624,-2.0487,-2.0263,-1.9912,-1.9609,-1.8896,-1.8281,-1.8144,-1.8091,-1.8383,-1.8695,-1.9141,-1.9512,-1.9336,-1.9626,-1.9893,-1.9913,-1.9935,-2.0489,-2.1059,-2.1783,-2.2482,-2.2584,-2.2838,-2.2853,-2.2809,-2.2721,-2.2497,-2.2086,-2.1851,-2.1811,-2.2023,-2.25,-2.2805,-2.2984,-2.3567,-3.3463,-3.3463,-3.3463,-3.3149,-3.2776,-3.2604,-3.2189,-3.1529,-3.0903,-3.0419,-3.0069,-3.0151,-3.0484,-3.0637,-3.0699,-3.0915,-3.094,-3.0888,-3.052,-3.0394,-3.0317,-3.0075,-2.9779,-2.9521,-2.942,-3.0139,-2.9999,-3.0227,-3.1516,-3.1639,-3.2445,-3.3415,-3.4259,-3.4658,-3.5489,-3.5457,-3.5133,-3.4839,-3.4953,-3.5246,-3.4555,-3.4667,-3.4814,-3.4831,-3.4846,-3.4846,-3.4861,-3.4831,-3.4996,-3.51,-3.513,-3.5085,-3.525,-3.519,-3.4577,-3.3702,-3.2766,-3.1553,-2.9743,-2.8051,-2.7175,-2.6555,-2.6452,-2.606,-2.5838,-2.6094,-2.5943,-2.5699,-2.6129,-2.6487,-2.6487,-2.6383,-2.599,-2.5252,-2.4731,-2.3708,-2.2787,-2.1973,-2.127,-2.0769,-2.065,-2.0639,-2.0036,-1.9713,-1.9386,-1.8723,-1.8403,-1.8525,-1.8838,-1.915,-1.9502,-1.9853,-2.0071,-2.0547,-2.1043,-2.1143,-2.1361,-2.212,-2.2625,-2.299,-2.3471,-2.346,-2.3202,-2.3003,-2.3003,-2.3091,-2.2877,-2.2557,-2.2717,-2.2921,-2.3008,-2.2882,-2.2945,-2.3086,-2.3304,-3.5359,-3.5439,-3.5392,-3.4337,-3.2921,-3.2228,-3.2051,-3.1732,-3.0927,-3.0468,-3.0462,-3.084,-3.1621,-3.2273,-3.2055,-3.2277,-3.2577,-3.2355,-3.1888,-3.1291,-3.0932,-3.0558,-2.9845,-2.925,-2.8794,-2.8004,-2.8231,-2.8917,-2.9732,-3.0113,-3.1051,-3.228,-3.322,-3.3939,-3.5344,-3.5504,-3.5472,-3.5472,-3.5457,-3.5392,-3.5329,-3.5305,-3.5325,-3.531,-3.531,-3.528,-3.5265,-3.528,-3.5325,-3.5205,-3.522,-3.5145,-3.5115,-3.4711,-3.4159,-3.3454,-3.3333,-3.2221,-3.0305,-2.7941,-2.6884,-2.6568,-2.6487,-2.6349,-2.6383,-2.6487,-2.6452,-2.6129,-2.6418,-2.6487,-2.6487,-2.6349,-2.5851,-2.5558,-2.504,-2.4337,-2.3415,-2.2776,-2.2086,-2.168,-2.1404,-2.1083,-2.0343,-1.9824,-1.9749,-1.9331,-1.8873,-1.8916,-1.9238,-1.9482,-1.9785,-2.0166,-2.0478,-2.0918,-2.146,-2.2257,-2.2787,-2.3612,-2.3962,-2.397,-2.4096,-2.4072,-2.3735,-2.3304,-2.3101,-2.3101,-2.3101,-2.3038,-2.3101,-2.3101,-2.3101,-2.3081,-2.3091,-2.3135,-2.3299,-3.5782,-3.6212,-3.6212,-3.5867,-3.51,-3.3876,-3.2645,-3.1433,-3.0522,-3.008,-3.0251,-3.0848,-3.1336,-3.1833,-3.2554,-3.2888,-3.2949,-3.285,-3.2236,-3.2128,-3.1633,-3.1106,-3.0418,-2.9626,-2.8755,-2.8386,-2.8227,-2.8108,-2.8642,-2.9125,-3.0291,-3.1536,-3.282,-3.3822,-3.4543,-3.5019,-3.5504,-3.5489,-3.5489,-3.5489,-3.5489,-3.5489,-3.5489,-3.5489,-3.5489,-3.5489,-3.5489,-3.5489,-3.5355,-3.5055,-3.5011,-3.4801,-3.4472,-3.3994,-3.3574,-3.3036,-3.2811,-3.1776,-2.9871,-2.8019,-2.7095,-2.6748,-2.6487,-2.6487,-2.6487,-2.6487,-2.6487,-2.6452,-2.6336,-2.6383,-2.6487,-2.5769,-2.5382,-2.5699,-2.5323,-2.4624,-2.3891,-2.3514,-2.3036,-2.2925,-2.2706,-2.2688,-2.2166,-2.1403,-2.1105,-2.073,-2.0334,-1.9624,-1.9705,-1.9756,-1.9971,-2.04,-2.0781,-2.1191,-2.1727,-2.2544,-2.3419,-2.4145,-2.4261,-2.4148,-2.4305,-2.4462,-2.3931,-2.324,-2.3159,-2.3101,-2.3101,-2.3101,-2.3101,-2.3101,-2.3101,-2.3101,-2.3101,-2.3101,-2.3135,-3.5926,-3.6584,-3.66,-3.6768,-3.6706,-3.515,-3.3219,-3.1352,-3.0533,-3.0202,-3.0342,-3.1213,-3.2028,-3.249,-3.3135,-3.3815,-3.3872,-3.3687,-3.3206,-3.3101,-3.2522,-3.1852,-3.1106,-3.0215,-2.9032,-2.8521,-2.8319,-2.8279,-2.8203,-2.8846,-2.9948,-3.1339,-3.2735,-3.3498,-3.4177,-3.4905,-3.5489,-3.5489,-3.5489,-3.5489,-3.5489,-3.5489,-3.5489,-3.5489,-3.5489,-3.5489,-3.5489,-3.5429,-3.531,-3.4921,-3.4711,-3.4457,-3.3993,-3.3544,-3.32,-3.2721,-3.2094,-3.1349,-3.0089,-2.8757,-2.7894,-2.7095,-2.6714,-2.6521,-2.6487,-2.6487,-2.6198,-2.606,-2.6013,-2.5721,-2.5464,-2.4707,-2.4743,-2.5063,-2.5099,-2.4373,-2.4217,-2.3818,-2.4036,-2.3952,-2.3963,-2.4,-2.3952,-2.3394,-2.275,-2.2295,-2.1817,-2.1052,-2.0331,-2.0353,-2.045,-2.0787,-2.1145,-2.149,-2.2077,-2.2817,-2.3722,-2.465,-2.4766,-2.4728,-2.4504,-2.4619,-2.3947,-2.3341,-2.3183,-2.3091,-2.3091,-2.3101,-2.3101,-2.3101,-2.3101,-2.3101,-2.3101,-2.3101,-2.3101,-3.5958,-3.6554,-3.663,-3.71,-3.7395,-3.595,-3.3767,-3.1375,-3.1204,-3.0943,-3.0707,-3.1844,-3.2695,-3.4038,-3.4903,-3.5429,-3.5744,-3.5406,-3.4798,-3.4143,-3.3656,-3.2749,-3.1642,-3.0528,-2.9578,-2.8366,-2.7952,-2.8481,-2.8203,-2.8915,-2.9961,-3.1191,-3.2571,-3.3498,-3.4361,-3.4986,-3.5457,-3.5489,-3.5489,-3.5489,-3.5489,-3.5489,-3.5489,-3.5489,-3.5489,-3.5489,-3.5489,-3.5459,-3.54,-3.5295,-3.5295,-3.4891,-3.4397,-3.3799,-3.317,-3.2512,-3.1839,-3.1382,-3.0682,-2.9439,-2.85,-2.7537,-2.6871,-2.6611,-2.6314,-2.6129,-2.5734,-2.5217,-2.4921,-2.4361,-2.3854,-2.3708,-2.3562,-2.3963,-2.4361,-2.4181,-2.4181,-2.4325,-2.4731,-2.4886,-2.4921,-2.4957,-2.4921,-2.453,-2.4115,-2.3745,-2.3206,-2.2412,-2.1732,-2.1257,-2.1308,-2.1352,-2.1634,-2.177,-2.2423,-2.335,-2.4253,-2.5281,-2.5566,-2.5572,-2.522,-2.4756,-2.4189,-2.3691,-2.3254,-2.3091,-2.3091,-2.3101,-2.3101,-2.3101,-2.3101,-2.3101,-2.3101,-2.3101,-2.3101,-3.5911,-3.663,-3.7219,-3.7602,-3.7616,-3.6645,-3.5023,-3.3192,-3.1852,-3.1101,-3.1068,-3.1445,-3.2377,-3.3143,-3.4048,-3.4934,-3.541,-3.5591,-3.5404,-3.4953,-3.438,-3.3739,-3.2968,-3.2001,-3.0727,-2.9834,-2.9359,-2.9178,-2.8773,-2.9319,-3.0742,-3.2164,-3.3031,-3.4007,-3.4773,-3.5344,-3.5424,-3.5489,-3.5489,-3.5489,-3.5489,-3.5489,-3.5489,-3.5489,-3.5489,-3.5489,-3.5489,-3.5489,-3.534,-3.4936,-3.4831,-3.4354,-3.3125,-3.2871,-3.2482,-3.1884,-3.1513,-3.122,-3.0561,-2.9602,-2.8671,-2.7822,-2.696,-2.6117,-2.5711,-2.537,-2.504,-2.4516,-2.4,-2.3514,-2.3099,-2.2888,-2.2813,-2.3036,-2.3368,-2.3478,-2.3624,-2.4289,-2.4767,-2.5429,-2.5511,-2.5721,-2.5721,-2.5709,-2.5309,-2.5052,-2.4587,-2.3863,-2.308,-2.2617,-2.2199,-2.2176,-2.2509,-2.2767,-2.3289,-2.4139,-2.4999,-2.58,-2.5897,-2.592,-2.5701,-2.5176,-2.4534,-2.395,-2.3438,-2.3207,-2.3091,-2.3101,-2.3101,-2.3101,-2.3101,-2.3101,-2.3101,-2.3101,-2.3101,-3.6368,-3.7144,-3.7889,-3.8218,-3.8121,-3.7411,-3.626,-3.4838,-3.3108,-3.2128,-3.1792,-3.1792,-3.2069,-3.272,-3.363,-3.4375,-3.4854,-3.5341,-3.5424,-3.5279,-3.4839,-3.4361,-3.3891,-3.338,-3.2253,-3.1492,-3.1175,-3.1077,-3.0315,-3.0854,-3.2249,-3.3101,-3.3856,-3.4558,-3.5213,-3.5457,-3.5457,-3.5489,-3.5489,-3.5489,-3.5489,-3.5489,-3.5489,-3.5489,-3.5489,-3.5489,-3.5489,-3.5489,-3.5235,-3.4936,-3.4923,-3.4412,-3.3305,-3.2916,-3.2228,-3.1705,-3.1497,-3.1322,-3.0806,-2.9685,-2.8876,-2.8071,-2.7116,-2.5814,-2.5146,-2.4743,-2.4337,-2.3891,-2.3331,-2.2802,-2.2467,-2.2178,-2.2178,-2.2226,-2.2403,-2.2579,-2.3246,-2.4036,-2.4803,-2.5652,-2.6047,-2.6302,-2.6418,-2.6487,-2.6506,-2.619,-2.6041,-2.578,-2.4783,-2.3897,-2.332,-2.2984,-2.3446,-2.393,-2.4433,-2.4698,-2.5161,-2.552,-2.5305,-2.5422,-2.5678,-2.544,-2.4679,-2.4075,-2.3506,-2.3301,-2.3135,-2.3101,-2.3101,-2.3101,-2.3101,-2.3101,-2.3101,-2.3101,-2.3101,-3.702,-3.7835,-3.858,-3.8842,-3.8799,-3.8141,-3.7393,-3.6568,-3.5008,-3.3676,-3.2876,-3.2607,-3.2607,-3.3017,-3.3705,-3.4129,-3.4691,-3.5246,-3.5489,-3.5489,-3.5344,-3.4938,-3.4476,-3.4027,-3.3401,-3.2947,-3.2593,-3.2365,-3.2486,-3.2713,-3.3136,-3.3993,-3.4211,-3.4725,-3.5359,-3.5489,-3.5489,-3.5489,-3.5489,-3.5489,-3.5489,-3.5489,-3.5489,-3.5489,-3.5489,-3.5489,-3.5489,-3.5489,-3.5489,-3.5489,-3.5385,-3.504,-3.4053,-3.314,-3.2258,-3.175,-3.1525,-3.1438,-3.1029,-3.0056,-2.9317,-2.8492,-2.7504,-2.5777,-2.4826,-2.4337,-2.3927,-2.2861,-2.2188,-2.1962,-2.1621,-2.1413,-2.1346,-2.1413,-2.1593,-2.2029,-2.2789,-2.3738,-2.4836,-2.5597,-2.6094,-2.6336,-2.6487,-2.6499,-2.6713,-2.6859,-2.6926,-2.6893,-2.6453,-2.531,-2.478,-2.4196,-2.4519,-2.4966,-2.4939,-2.5164,-2.5127,-2.5173,-2.5161,-2.5271,-2.582,-2.5409,-2.4801,-2.4363,-2.3929,-2.3471,-2.3222,-2.3135,-2.3101,-2.3101,-2.3101,-2.3101,-2.3101,-2.3101,-2.3101,-3.6619,-3.7863,-3.858,-3.8937,-3.8958,-3.8747,-3.8187,-3.7501,-3.7114,-3.5649,-3.3833,-3.3052,-3.3017,-3.3587,-3.3808,-3.423,-3.4986,-3.5213,-3.5457,-3.5489,-3.5489,-3.5392,-3.5133,-3.4905,-3.4461,-3.3945,-3.3567,-3.3394,-3.3136,-3.3394,-3.3754,-3.4109,-3.4543,-3.5246,-3.5472,-3.5489,-3.5489,-3.5489,-3.5489,-3.5489,-3.5489,-3.5489,-3.5489,-3.5489,-3.5489,-3.5489,-3.5489,-3.5489,-3.5489,-3.5489,-3.5489,-3.4861,-3.3769,-3.2976,-3.2213,-3.166,-3.1496,-3.1496,-3.1219,-3.0464,-2.9704,-2.8907,-2.7762,-2.5901,-2.466,-2.4133,-2.3305,-2.2048,-2.1231,-2.1078,-2.1001,-2.0789,-2.0605,-2.0722,-2.0838,-2.1588,-2.2324,-2.349,-2.4707,-2.5373,-2.5935,-2.6233,-2.6383,-2.6612,-2.6839,-2.6979,-2.7155,-2.722,-2.7297,-2.6662,-2.6578,-2.6106,-2.5893,-2.6073,-2.5839,-2.5769,-2.5814,-2.584,-2.5901,-2.5984,-2.6008,-2.5883,-2.5655,-2.4956,-2.4458,-2.3996,-2.3517,-2.3135,-2.3101,-2.3101,-2.3101,-2.3101,-2.3101,-2.3101,-2.3101,-3.6761,-3.7832,-3.8586,-3.8759,-3.8588,-3.8771,-3.8486,-3.7882,-3.7786,-3.7007,-3.5586,-3.4449,-3.3907,-3.4066,-3.3979,-3.4245,-3.4986,-3.5311,-3.5424,-3.5489,-3.5489,-3.5489,-3.5489,-3.5489,-3.5198,-3.4725,-3.4658,-3.4409,-3.3905,-3.4259,-3.4691,-3.4725,-3.5279,-3.5489,-3.5489,-3.5489,-3.5489,-3.5489,-3.5489,-3.5489,-3.5489,-3.5489,-3.5489,-3.5489,-3.5489,-3.5489,-3.5489,-3.5489,-3.5489,-3.5489,-3.5489,-3.4756,-3.3873,-3.3215,-3.2467,-3.1809,-3.1496,-3.1496,-3.1278,-3.0777,-2.9995,-2.9129,-2.8214,-2.6395,-2.4933,-2.4373,-2.3551,-2.2339,-2.1078,-2.0779,-2.1145,-2.1116,-2.075,-2.0683,-2.0722,-2.1142,-2.1869,-2.2769,-2.3822,-2.4699,-2.529,-2.5921,-2.6129,-2.6499,-2.6813,-2.7457,-2.7557,-2.7946,-2.7984,-2.767,-2.7708,-2.7632,-2.7178,-2.67,-2.63,-2.6379,-2.659,-2.6624,-2.6499,-2.6452,-2.6362,-2.6622,-2.6566,-2.5912,-2.5205,-2.4532,-2.4049,-2.3594,-2.3178,-2.3101,-2.3101,-2.3101,-2.3091,-2.3135,-2.3178,-3.6942,-3.7718,-3.858,-3.847,-3.7971,-3.8593,-3.8414,-3.7765,-3.7773,-3.781,-3.7467,-3.6091,-3.513,-3.4574,-3.4336,-3.425,-3.4495,-3.5213,-3.5472,-3.5489,-3.5489,-3.5489,-3.5489,-3.5457,-3.5359,-3.5359,-3.5311,-3.5311,-3.5166,-3.5311,-3.5311,-3.5457,-3.5489,-3.5489,-3.5489,-3.5489,-3.5489,-3.5489,-3.5489,-3.5489,-3.5489,-3.5489,-3.5489,-3.5489,-3.5489,-3.5489,-3.5489,-3.5489,-3.5489,-3.5489,-3.5429,-3.4666,-3.3978,-3.3365,-3.2587,-3.1899,-3.1496,-3.1496,-3.1365,-3.097,-3.0147,-2.9286,-2.833,-2.7165,-2.5707,-2.4636,-2.377,-2.2776,-2.1555,-2.1001,-2.1403,-2.1441,-2.1049,-2.0762,-2.0811,-2.0781,-2.147,-2.2183,-2.3086,-2.3998,-2.4561,-2.523,-2.5793,-2.6188,-2.6837,-2.7537,-2.8185,-2.8674,-2.8825,-2.826,-2.7959,-2.7921,-2.7682,-2.7241,-2.6763,-2.6813,-2.703,-2.6688,-2.6499,-2.6587,-2.6749,-2.7164,-2.7236,-2.6855,-2.6153,-2.553,-2.466,-2.4049,-2.3671,-2.3178,-2.3101,-2.3135,-2.3256,-2.3256,-2.3256,-3.6266,-3.709,-3.8403,-3.8231,-3.7307,-3.8419,-3.8218,-3.7218,-3.766,-3.7851,-3.7789,-3.7573,-3.6877,-3.612,-3.612,-3.5883,-3.54,-3.5668,-3.5489,-3.5489,-3.5537,-3.5489,-3.5489,-3.5489,-3.5489,-3.5489,-3.5489,-3.5489,-3.5489,-3.5489,-3.5489,-3.5489,-3.5489,-3.5489,-3.5489,-3.5489,-3.5489,-3.5489,-3.5489,-3.5489,-3.5489,-3.5489,-3.5489,-3.5489,-3.5489,-3.5489,-3.5489,-3.5489,-3.5489,-3.5489,-3.5415,-3.4726,-3.4113,-3.3544,-3.2871,-3.2049,-3.166,-3.1555,-3.141,-3.1234,-3.0584,-2.9919,-2.8957,-2.7867,-2.6531,-2.5346,-2.4529,-2.3708,-2.2675,-2.1962,-2.2038,-2.1886,-2.1548,-2.1332,-2.125,-2.1075,-2.1303,-2.1905,-2.2646,-2.3129,-2.3453,-2.4284,-2.5147,-2.5719,-2.6466,-2.72,-2.8074,-2.8587,-2.9063,-2.8662,-2.8197,-2.8185,-2.8147,-2.772,-2.7278,-2.719,-2.7218,-2.6813,-2.6625,-2.6914,-2.7268,-2.7759,-2.7754,-2.7563,-2.727,-2.6751,-2.5859,-2.4628,-2.3877,-2.3387,-2.3178,-2.3135,-2.3299,-2.3584,-2.3757]},{"header":{"parameterUnit":"m.s-1","parameterCategory":1,"la1":31.0,"la2":29.5877,"lo1":-88.7671,"lo2":-86.6584,"dy":0.0162,"dx":0.0185,"nx":115,"ny":88,"refTime":"2023-09-02T06:00:00:Z","depth":0,"parameterNumber":3,"parameterNumberName":"V-component_of_WINDS"},"data":[0.0,0.0,0.0,0.0,0.0,0.0,0.0,0.0,0.0,0.0,0.0,0.0,0.0,0.0,0.0,0.0,0.0,0.0,0.0,0.0,0.0,0.0,0.0,0.0,0.0,0.0,0.0,0.0,0.0,0.0,0.0,0.0,0.0,0.0,0.0,0.0,0.0,0.0,0.0,0.0,0.0,0.0,0.0,0.0,0.0,0.0,0.0,0.0,0.0,0.0,0.0,0.0,0.0,0.0,0.0,0.0,0.0,0.0,0.0,0.0,0.0,0.0,0.0,0.0,0.0,0.0,0.0,0.0,0.0,0.0,0.0,0.0,0.0,0.0,0.0,0.0,0.0,0.0,0.0,0.0,0.0,0.0,0.0,0.0,0.0,0.0,0.0,0.0,0.0,0.0,0.0,0.0,0.0,0.0,0.0,0.0,0.0,0.0,0.0,0.0,0.0,0.0,0.0,0.0,0.0,0.0,0.0,0.0,0.0,0.0,0.0,0.0,0.0,0.0,0.0,0.0,0.0,0.0,0.0,0.0,0.0,0.0,0.0,0.0,0.0,0.0,0.0,0.0,0.0,0.0,0.0,0.0,0.0,0.0,0.0,0.0,0.0,0.0,0.0,0.0,0.0,0.0,0.0,0.0,0.0,0.0,0.0,0.0,0.0,0.0,0.0,0.0,0.0,0.0,0.0,0.0,0.0,0.0,0.0,0.0,0.0,0.0,0.0,0.0,0.0,0.0,0.0,0.0,0.0,0.0,0.0,0.0,0.0,0.0,0.0,0.0,0.0,0.0,0.0,0.0,0.0,0.0,0.0,0.0,0.0,0.0,0.0,0.0,0.0,0.0,0.0,0.0,0.0,0.0,0.0,0.0,0.0,0.0,0.0,0.0,0.0,0.0,0.0,0.0,0.0,0.0,0.0,0.0,0.0,0.0,0.0,0.0,0.0,0.0,0.0,0.0,0.0,0.0,0.0,0.0,0.0,0.0,0.0,0.0,0.0,0.0,0.0,0.0,0.0,0.0,0.0,0.0,0.0,0.0,0.0,0.0,0.0,0.0,0.0,0.0,0.0,0.0,0.0,0.0,0.0,0.0,0.0,0.0,0.0,0.0,0.0,0.0,0.0,0.0,0.0,0.0,0.0,0.0,0.0,0.0,0.0,0.0,0.0,0.0,0.0,0.0,0.0,0.0,0.0,0.0,0.0,0.0,0.0,0.0,0.0,0.0,0.0,0.0,0.0,0.0,0.0,0.0,0.0,0.0,0.0,0.0,0.0,0.0,0.0,0.0,0.0,0.0,0.0,0.0,0.0,0.0,0.0,0.0,0.0,0.0,0.0,0.0,0.0,0.0,0.0,0.0,0.0,0.0,0.0,0.0,0.0,0.0,0.0,0.0,0.0,0.0,0.0,0.0,0.0,0.0,0.0,0.0,0.0,0.0,0.0,0.0,0.0,0.0,0.0,0.0,0.0,0.0,0.0,0.0,0.0,0.0,0.0,0.0,0.0,0.0,0.0,0.0,0.0,0.0,0.0,0.0,0.0,0.0,0.0,0.0,0.0,0.0,0.0,0.0,0.0,0.0,0.0,0.0,0.0,0.0,0.0,0.0,0.0,0.0,0.0,0.0,0.0,0.0,0.0,0.0,0.0,0.0,0.0,0.0,0.0,0.0,0.0,0.0,0.0,0.0,0.0,0.0,0.0,0.0,0.0,0.0,0.0,0.0,0.0,0.0,0.0,0.0,0.0,0.0,0.0,0.0,0.0,0.0,0.0,0.0,0.0,0.0,0.0,0.0,0.0,0.0,0.0,0.0,0.0,0.0,0.0,0.0,0.0,0.0,0.0,0.0,0.0,0.0,0.0,0.0,0.0,0.0,0.0,0.0,0.0,0.0,0.0,0.0,0.0,0.0,0.0,0.0,0.0,0.0,0.0,0.0,0.0,0.0,0.0,0.0,0.0,0.0,0.0,0.0,0.0,0.0,0.0,0.0,0.0,0.0,0.0,0.0,0.0,0.0,0.0,0.0,0.0,0.0,0.0,0.0,0.0,0.0,0.0,0.0,0.0,0.0,0.0,0.0,0.0,0.0,0.0,0.0,0.0,0.0,0.0,0.0,0.0,0.0,0.0,0.0,0.0,0.0,0.0,0.0,0.0,0.0,0.0,0.0,0.0,0.0,0.0,0.0,0.0,0.0,0.0,0.0,0.0,0.0,0.0,0.0,0.0,0.0,0.0,0.0,0.0,0.0,0.0,0.0,0.0,0.0,0.0,0.0,0.0,0.0,0.0,0.0,0.0,0.0,0.0,0.0,0.0,0.0,0.0,0.0,0.0,0.0,0.0,0.0,0.0,0.0,0.0,0.0,0.0,0.0,0.0,0.0,0.0,0.0,0.0,0.0,0.0,0.0,0.0,0.0,0.0,0.0,0.0,0.0,0.0,0.0,0.0,0.0,0.0,0.0,0.0,0.0,0.0,0.0,0.0,0.0,0.0,0.0,0.0,0.0,0.0,0.0,0.0,0.0,0.0,0.0,0.0,0.0,0.0,0.0,0.0,0.0,0.0,0.0,0.0,0.0,0.0,0.0,0.0,0.0,0.0,0.0,0.0,0.0,0.0,0.0,0.0,0.0,0.0,0.0,0.0,0.0,0.0,0.0,0.0,0.0,0.0,0.0,0.0,0.0,0.0,0.0,0.0,0.0,0.0,0.0,0.0,0.0,0.0,0.0,0.0,0.0,0.0,0.0,0.0,0.0,0.0,0.0,0.0,0.0,0.0,0.0,0.0,0.0,0.0,0.0,0.0,0.0,0.0,0.0,0.0,0.0,0.0,0.0,0.0,0.0,0.0,0.0,0.0,0.0,0.0,0.0,0.0,0.0,0.0,0.0,0.0,0.0,0.0,0.0,0.0,0.0,0.0,0.0,0.0,0.0,0.0,0.0,0.0,0.0,0.0,0.0,0.0,0.0,0.0,0.0,0.0,0.0,0.0,0.0,0.0,0.0,0.0,0.0,0.0,0.0,0.0,0.0,0.0,0.0,0.0,0.0,0.0,0.0,0.0,0.0,0.0,0.0,0.0,0.0,0.0,0.0,0.0,0.0,0.0,0.0,0.0,0.0,0.0,0.0,0.0,0.0,0.0,0.0,0.0,0.0,0.0,0.0,0.0,0.0,0.0,0.0,0.0,0.0,0.0,0.0,0.0,0.0,0.0,0.0,0.0,0.0,0.0,0.0,0.0,0.0,0.0,0.0,0.0,0.0,0.0,0.0,0.0,0.0,0.0,0.0,0.0,0.0,0.0,0.0,0.0,0.0,0.0,0.0,0.0,0.0,0.0,0.0,0.0,0.0,0.0,0.0,0.0,0.0,0.0,0.0,0.0,0.0,0.0,0.0,0.0,0.0,0.0,0.0,0.0,0.0,0.0,0.0,0.0,0.0,0.0,0.0,0.0,0.0,0.0,0.0,0.0,0.0,0.0,0.0,0.0,0.0,0.0,0.0,0.0,0.0,0.0,0.0,0.0,0.0,0.0,0.0,0.0,0.0,0.0,0.0,0.0,0.0,0.0,0.0,0.0,0.0,0.0,0.0,0.0,0.0,0.0,0.0,0.0,0.0,0.0,0.0,0.0,0.0,0.0,0.0,0.0,0.0,0.0,0.0,0.0,0.0,0.0,0.0,0.0,0.0,0.0,0.0,0.0,0.0,0.0,0.0,0.0,0.0,0.0,0.0,0.0,0.0,0.0,0.0,0.0,0.0,0.0,0.0,0.0,0.0,0.0,0.0,0.0,0.0,0.0,0.0,0.0,0.0,0.0,0.0,0.0,0.0,0.0,0.0,0.0,0.0,0.0,0.0,0.0,0.0,0.0,0.0,0.0,0.0,0.0,0.0,0.0,0.0,0.0,0.0,0.0,0.0,0.0,0.0,0.0,0.0,0.0,0.0,0.0,0.0,0.0,0.0,0.0,0.0,0.0,0.0,0.0,0.0,0.0,0.0,0.0,0.0,0.0,0.0,0.0,0.0,0.0,0.0,0.0,0.0,0.0,0.0,0.0,0.0,0.0,0.0,0.0,0.0,0.0,0.0,0.0,0.0,0.0,0.0,0.0,0.0,0.0,0.0,0.0,0.0,0.0,0.0,0.0,0.0,0.0,0.0,0.0,0.0,0.0,0.0,0.0,0.0,0.0,0.0,0.0,0.0,0.0,0.0,0.0,0.0,0.0,0.0,0.0,0.0,0.0,0.0,0.0,0.0,0.0,0.0,0.0,0.0,0.0,0.0,0.0,0.0,2.239,0.0,0.0,0.0,0.0,0.0,0.0,0.0,0.0,0.0,0.0,0.0,0.0,0.0,0.0,0.0,0.0,0.0,0.0,0.0,0.0,0.0,0.0,0.0,0.0,0.0,0.0,0.0,0.0,0.0,0.0,0.0,0.0,0.0,0.0,0.0,0.0,0.0,0.0,0.0,0.0,0.0,0.0,0.0,0.0,0.0,0.0,0.0,0.0,0.0,0.0,0.0,0.0,0.0,0.0,0.0,0.0,0.0,0.0,0.0,0.0,0.0,0.0,0.0,0.0,0.0,0.0,0.0,0.0,0.0,0.0,0.0,0.0,0.0,0.0,0.0,0.0,0.0,0.0,0.0,0.0,0.0,0.0,0.0,0.0,0.0,0.0,0.0,0.0,0.0,0.0,0.0,0.0,0.0,0.0,0.0,0.0,0.0,0.0,0.0,0.0,0.0,0.0,0.0,0.0,0.0,0.0,0.0,0.0,0.0,0.0,2.0747,2.1174,2.1212,2.1877,2.3217,0.0,0.0,0.0,0.0,0.0,0.0,0.0,0.0,0.0,0.0,0.0,0.0,0.0,0.0,0.0,0.0,0.0,0.0,0.0,0.0,0.0,0.0,0.0,0.0,0.0,0.0,0.0,0.0,0.0,0.0,0.0,0.0,0.0,0.0,0.0,0.0,0.0,0.0,0.0,0.0,0.0,0.0,0.0,0.0,0.0,0.0,0.0,0.0,0.0,0.0,0.0,0.0,0.0,0.0,0.0,0.0,0.0,0.0,0.0,0.0,0.0,0.0,0.0,0.0,0.0,0.0,0.0,0.0,0.0,0.0,0.0,0.0,0.0,0.0,0.0,0.0,0.0,0.0,0.0,0.0,0.0,0.0,0.0,0.0,0.0,0.0,0.0,0.0,0.0,0.0,0.0,0.0,0.0,0.0,0.0,0.0,0.0,0.0,0.0,0.0,0.0,0.0,0.0,0.0,0.0,0.0,0.0,0.0,0.0,0.0,0.0,0.0,2.2268,2.2835,2.4394,0.0,0.0,0.0,0.0,0.0,0.0,0.0,0.0,0.0,0.0,0.0,0.0,0.0,0.0,0.0,0.0,0.0,0.0,0.0,0.0,0.0,0.0,0.0,0.0,0.0,0.0,0.0,0.0,0.0,0.0,0.0,0.0,0.0,0.0,0.0,0.0,0.0,0.0,0.0,0.0,0.0,0.0,0.0,0.0,0.0,0.0,0.0,0.0,0.0,0.0,0.0,0.0,0.0,0.0,0.0,0.0,0.0,0.0,0.0,0.0,0.0,0.0,0.0,0.0,0.0,0.0,0.0,0.0,0.0,0.0,0.0,0.0,0.0,0.0,0.0,0.0,0.0,0.0,0.0,0.0,0.0,0.0,0.0,0.0,0.0,0.0,0.0,0.0,0.0,0.0,0.0,0.0,0.0,0.0,0.0,0.0,0.0,0.0,0.0,0.0,0.0,0.0,0.0,0.0,0.0,0.0,0.0,0.0,0.0,0.0,2.3328,2.3491,2.4296,0.0,2.6323,0.0,0.0,0.0,0.0,0.0,0.0,0.0,0.0,0.0,0.0,0.0,0.0,0.0,0.0,0.0,0.0,0.0,0.0,0.0,0.0,0.0,0.0,0.0,0.0,0.0,0.0,0.0,0.0,0.0,0.0,0.0,0.0,0.0,0.0,0.0,0.0,0.0,0.0,0.0,0.0,0.0,0.0,0.0,0.0,0.0,0.0,0.0,0.0,0.0,0.0,0.0,0.0,0.0,0.0,0.0,0.0,0.0,0.0,0.0,0.0,0.0,0.0,0.0,0.0,0.0,0.0,0.0,0.0,0.0,0.0,0.0,0.0,0.0,0.0,0.0,0.0,0.0,0.0,0.0,0.0,0.0,0.0,0.0,0.0,0.0,0.0,0.0,0.0,0.0,0.0,0.0,0.0,0.0,0.0,0.0,0.0,0.0,0.0,0.0,0.0,0.0,0.0,0.0,0.0,0.0,0.0,0.0,0.0,0.0,0.0,2.4544,2.5122,2.5646,2.592,0.0,0.0,0.0,0.0,0.0,0.0,0.0,0.0,0.0,0.0,0.0,0.0,0.0,0.0,0.0,0.0,0.0,0.0,0.0,0.0,0.0,0.0,0.0,0.0,0.0,0.0,0.0,0.0,0.0,0.0,0.0,0.0,0.0,0.0,0.0,0.0,0.0,0.0,0.0,0.0,0.0,0.0,0.0,0.0,0.0,0.0,0.0,0.0,0.0,0.0,0.0,0.0,0.0,0.0,0.0,0.0,0.0,0.0,0.0,0.0,0.0,0.0,0.0,0.0,0.0,0.0,0.0,0.0,0.0,0.0,0.0,0.0,0.0,0.0,0.0,0.0,0.0,0.0,0.0,0.0,0.0,0.0,0.0,0.0,0.0,0.0,0.0,0.0,0.0,0.0,0.0,0.0,0.0,0.0,0.0,0.0,0.0,0.0,0.0,0.0,0.0,0.0,0.0,0.0,0.0,0.0,0.0,0.0,0.0,0.0,2.5318,2.5669,2.6573,2.6347,2.6053,2.5756,0.0,0.0,0.0,0.0,0.0,0.0,0.0,0.0,0.0,0.0,0.0,0.0,0.0,0.0,0.0,0.0,0.0,0.0,0.0,0.0,0.0,0.0,0.0,0.0,0.0,0.0,0.0,0.0,0.0,0.0,0.0,0.0,0.0,0.0,0.0,0.0,0.0,0.0,0.0,0.0,0.0,0.0,0.0,0.0,0.0,0.0,0.0,0.0,0.0,0.0,0.0,0.0,0.0,0.0,0.0,0.0,0.0,0.0,0.0,0.0,0.0,0.0,0.0,0.0,0.0,0.0,0.0,0.0,0.0,0.0,0.0,0.0,0.0,0.0,0.0,0.0,0.0,0.0,0.0,0.0,0.0,0.0,0.0,0.0,0.0,0.0,0.0,0.0,0.0,0.0,0.0,0.0,0.0,0.0,0.0,0.0,0.0,0.0,0.0,0.0,0.0,0.0,0.0,0.0,0.0,0.0,0.0,0.0,2.715,2.6586,2.6702,2.7629,2.6245,2.5831,0.0,0.0,0.0,0.0,0.0,0.0,0.0,0.0,0.0,0.0,0.0,0.0,0.0,0.0,0.0,0.0,0.0,0.0,0.0,0.0,0.0,0.0,0.0,0.0,0.0,0.0,0.0,0.0,0.0,0.0,0.0,0.0,0.0,0.0,0.0,0.0,0.0,0.0,0.0,0.0,0.0,0.0,0.0,0.0,0.0,0.0,0.0,0.0,0.0,0.0,0.0,0.0,0.0,0.0,0.0,0.0,0.0,0.0,0.0,0.0,0.0,0.0,0.0,0.0,0.0,0.0,0.0,0.0,0.0,0.0,0.0,0.0,0.0,0.0,0.0,0.0,0.0,0.0,0.0,0.0,0.0,0.0,0.0,0.0,0.0,0.0,0.0,0.0,0.0,0.0,0.0,0.0,0.0,0.0,0.0,0.0,0.0,0.0,0.0,0.0,0.0,0.0,0.0,0.0,0.0,0.0,0.0,0.0,0.0,2.6669,2.7071,2.715,2.6971,2.6468,2.6118,0.0,0.0,0.0,0.0,0.0,0.0,0.0,0.0,0.0,0.0,0.0,0.0,0.0,0.0,0.0,0.0,0.0,0.0,0.0,0.0,0.0,0.0,0.0,0.0,0.0,0.0,0.0,0.0,0.0,0.0,0.0,0.0,0.0,0.0,0.0,0.0,0.0,0.0,0.0,0.0,0.0,0.0,0.0,0.0,0.0,0.0,0.0,0.0,0.0,0.0,0.0,0.0,0.0,0.0,0.0,0.0,0.0,0.0,0.0,0.0,0.0,0.0,0.0,0.0,0.0,0.0,0.0,0.0,0.0,0.0,0.0,0.0,0.0,0.0,0.0,0.0,0.0,0.0,0.0,0.0,0.0,0.0,0.0,0.0,0.0,0.0,0.0,0.0,0.0,0.0,0.0,0.0,0.0,0.0,0.0,0.0,0.0,0.0,0.0,0.0,0.0,0.0,0.0,0.0,0.0,0.0,0.0,0.0,0.0,2.716,0.0,2.7366,2.733,2.6636,2.6115,0.0,0.0,0.0,0.0,0.0,0.0,0.0,0.0,0.0,0.0,0.0,0.0,0.0,0.0,0.0,0.0,0.0,0.0,0.0,0.0,0.0,0.0,0.0,0.0,0.0,0.0,0.0,0.0,0.0,0.0,0.0,0.0,0.0,0.0,0.0,0.0,0.0,0.0,0.0,0.0,0.0,0.0,0.0,0.0,0.0,0.0,0.0,0.0,0.0,0.0,0.0,0.0,0.0,0.0,0.0,0.0,0.0,0.0,0.0,0.0,0.0,0.0,0.0,0.0,0.0,0.0,0.0,0.0,0.0,0.0,0.0,0.0,0.0,0.0,0.0,0.0,0.0,0.0,0.0,0.0,0.0,0.0,0.0,0.0,0.0,0.0,0.0,0.0,0.0,0.0,0.0,0.0,0.0,0.0,0.0,0.0,0.0,0.0,0.0,0.0,0.0,0.0,0.0,0.0,0.0,0.0,0.0,0.0,2.8046,2.8861,2.7415,2.7429,2.8948,2.6701,2.5783,0.0,0.0,0.0,0.0,0.0,0.0,0.0,0.0,0.0,0.0,0.0,0.0,0.0,0.0,0.0,0.0,0.0,0.0,0.0,0.0,0.0,0.0,0.0,0.0,0.0,0.0,0.0,0.0,0.0,0.0,0.0,0.0,0.0,0.0,0.0,0.0,0.0,0.0,0.0,0.0,0.0,0.0,0.0,0.0,0.0,0.0,0.0,0.0,0.0,0.0,0.0,0.0,0.0,0.0,0.0,0.0,0.0,0.0,0.0,0.0,0.0,0.0,0.0,0.0,0.0,0.0,0.0,0.0,0.0,0.0,0.0,0.0,0.0,0.0,0.0,0.0,0.0,0.0,0.0,0.0,0.0,0.0,0.0,0.0,0.0,0.0,0.0,0.0,0.0,0.0,0.0,0.0,0.0,0.0,0.0,0.0,0.0,0.0,0.0,0.0,0.0,0.0,0.0,0.0,0.0,0.0,0.0,0.0,0.0,2.9121,2.8679,2.8674,2.9096,2.787,2.6998,0.0,0.0,0.0,0.0,0.0,0.0,0.0,0.0,0.0,0.0,0.0,0.0,0.0,0.0,0.0,0.0,0.0,0.0,0.0,0.0,0.0,0.0,0.0,0.0,0.0,0.0,0.0,0.0,0.0,0.0,0.0,0.0,0.0,0.0,0.0,0.0,0.0,0.0,0.0,0.0,0.0,0.0,0.0,0.0,0.0,0.0,0.0,0.0,0.0,0.0,0.0,0.0,0.0,0.0,0.0,0.0,0.0,0.0,0.0,0.0,0.0,0.0,0.0,0.0,0.0,0.0,0.0,0.0,0.0,0.0,0.0,0.0,0.0,0.0,0.0,0.0,0.0,0.0,0.0,0.0,0.0,0.0,0.0,0.0,0.0,0.0,0.0,0.0,0.0,0.0,0.0,0.0,0.0,0.0,0.0,0.0,0.0,0.0,0.0,0.0,0.0,0.0,0.0,0.0,0.0,0.0,0.0,0.0,0.0,3.0679,2.9752,2.9529,3.0128,2.9021,2.8015,2.7181,0.0,0.0,0.0,0.0,0.0,0.0,0.0,0.0,0.0,0.0,0.0,0.0,0.0,0.0,0.0,0.0,0.0,0.0,0.0,0.0,0.0,0.0,0.0,0.0,0.0,0.0,0.0,0.0,0.0,0.0,0.0,0.0,0.0,0.0,0.0,0.0,0.0,0.0,0.0,0.0,0.0,0.0,0.0,0.0,0.0,0.0,0.0,0.0,0.0,0.0,0.0,0.0,0.0,0.0,0.0,0.0,0.0,0.0,0.0,0.0,0.0,0.0,0.0,0.0,0.0,0.0,0.0,0.0,0.0,0.0,0.0,0.0,0.0,0.0,0.0,0.0,0.0,0.0,0.0,0.0,0.0,0.0,0.0,0.0,0.0,0.0,0.0,0.0,0.0,0.0,0.0,0.0,0.0,0.0,0.0,0.0,0.0,0.0,0.0,0.0,0.0,0.0,0.0,0.0,0.0,0.0,0.0,0.0,3.344,3.0923,3.0388,3.1769,3.0235,2.8901,0.0,0.0,0.0,0.0,0.0,0.0,0.0,0.0,0.0,0.0,0.0,0.0,0.0,0.0,0.0,0.0,0.0,0.0,0.0,0.0,0.0,0.0,0.0,0.0,0.0,0.0,0.0,0.0,0.0,0.0,0.0,0.0,0.0,0.0,0.0,0.0,0.0,0.0,0.0,0.0,0.0,0.0,0.0,0.0,0.0,0.0,0.0,0.0,0.0,0.0,0.0,0.0,0.0,0.0,0.0,0.0,0.0,0.0,0.0,0.0,0.0,0.0,0.0,0.0,0.0,0.0,0.0,0.0,0.0,0.0,0.0,0.0,0.0,0.0,0.0,0.0,0.0,0.0,0.0,0.0,0.0,0.0,0.0,0.0,0.0,0.0,0.0,0.0,0.0,0.0,0.0,0.0,0.0,0.0,0.0,0.0,0.0,0.0,0.0,0.0,0.0,0.0,0.0,0.0,0.0,0.0,0.0,0.0,0.0,3.5106,3.5671,3.5242,3.375,3.2618,3.1057,0.0,0.0,0.0,0.0,0.0,0.0,0.0,0.0,0.0,0.0,0.0,0.0,0.0,0.0,0.0,0.0,0.0,0.0,0.0,0.0,0.0,0.0,0.0,0.0,0.0,0.0,0.0,0.0,0.0,0.0,0.0,0.0,0.0,0.0,0.0,0.0,0.0,0.0,0.0,0.0,0.0,0.0,0.0,0.0,0.0,0.0,0.0,0.0,0.0,0.0,0.0,0.0,0.0,0.0,0.0,0.0,0.0,0.0,0.0,0.0,0.0,0.0,0.0,0.0,0.0,0.0,0.0,0.0,0.0,0.0,0.0,0.0,0.0,0.0,0.0,0.0,0.0,0.0,0.0,0.0,0.0,0.0,0.0,0.0,0.0,0.0,0.0,0.0,0.0,0.0,0.0,0.0,0.0,0.0,0.0,0.0,0.0,0.0,0.0,0.0,0.0,0.0,0.0,0.0,0.0,0.0,0.0,0.0,3.5426,3.7444,3.919,3.9142,3.7224,3.5604,3.3175,0.0,0.0,0.0,0.0,0.0,0.0,0.0,0.0,0.0,0.0,0.0,0.0,0.0,0.0,0.0,0.0,0.0,0.0,0.0,0.0,0.0,0.0,0.0,0.0,0.0,0.0,0.0,0.0,0.0,0.0,0.0,0.0,0.0,0.0,0.0,0.0,0.0,0.0,0.0,0.0,0.0,0.0,0.0,0.0,0.0,0.0,0.0,0.0,0.0,0.0,0.0,0.0,0.0,0.0,0.0,0.0,0.0,0.0,0.0,0.0,0.0,0.0,0.0,0.0,0.0,0.0,0.0,0.0,0.0,0.0,0.0,0.0,0.0,0.0,0.0,0.0,0.0,0.0,0.0,0.0,0.0,0.0,0.0,0.0,0.0,0.0,0.0,0.0,0.0,0.0,0.0,0.0,0.0,0.0,0.0,0.0,0.0,0.0,0.0,0.0,0.0,0.0,0.0,0.0,0.0,0.0,0.0,0.0,3.7354,3.9894,4.1737,4.2186,4.1116,3.8469,3.5095,0.0,0.0,0.0,0.0,0.0,0.0,0.0,0.0,0.0,0.0,0.0,0.0,0.0,0.0,0.0,0.0,0.0,0.0,0.0,0.0,0.0,0.0,0.0,0.0,0.0,0.0,0.0,0.0,0.0,0.0,0.0,0.0,0.0,0.0,0.0,0.0,0.0,0.0,0.0,0.0,0.0,0.0,0.0,0.0,0.0,0.0,0.0,0.0,0.0,0.0,0.0,0.0,0.0,0.0,0.0,0.0,0.0,0.0,0.0,0.0,0.0,0.0,0.0,0.0,0.0,0.0,0.0,0.0,0.0,0.0,0.0,0.0,0.0,0.0,0.0,0.0,0.0,0.0,0.0,0.0,0.0,0.0,0.0,0.0,0.0,0.0,0.0,0.0,0.0,0.0,0.0,0.0,0.0,0.0,0.0,0.0,0.0,0.0,0.0,0.0,0.0,0.0,0.0,0.0,0.0,0.0,0.0,0.0,3.8256,4.0779,4.3203,4.3691,4.2128,3.8896,3.5713,0.0,0.0,0.0,0.0,0.0,0.0,0.0,0.0,0.0,0.0,0.0,0.0,0.0,0.0,0.0,0.0,0.0,0.0,0.0,0.0,0.0,0.0,0.0,0.0,0.0,0.0,0.0,0.0,0.0,0.0,0.0,0.0,0.0,0.0,0.0,0.0,0.0,0.0,0.0,0.0,0.0,0.0,0.0,0.0,0.0,0.0,0.0,0.0,2.534,0.0,0.0,0.0,0.0,0.0,0.0,0.0,0.0,0.0,0.0,0.0,0.0,0.0,0.0,0.0,0.0,0.0,0.0,0.0,0.0,0.0,0.0,0.0,0.0,0.0,0.0,0.0,0.0,0.0,0.0,0.0,0.0,0.0,0.0,0.0,0.0,0.0,0.0,0.0,0.0,0.0,0.0,0.0,0.0,0.0,0.0,0.0,0.0,0.0,0.0,0.0,0.0,0.0,0.0,0.0,0.0,0.0,0.0,0.0,3.9156,4.1639,4.3476,4.3945,4.293,3.9269,3.6167,0.0,0.0,0.0,0.0,0.0,0.0,0.0,0.0,0.0,0.0,0.0,0.0,0.0,0.0,0.0,0.0,0.0,0.0,0.0,0.0,0.0,0.0,0.0,0.0,0.0,0.0,0.0,0.0,0.0,0.0,0.0,0.0,0.0,0.0,0.0,0.0,0.0,0.0,0.0,0.0,0.0,0.0,0.0,0.0,0.0,0.0,0.0,0.0,0.0,0.0,0.0,0.0,0.0,0.0,0.0,0.0,0.0,0.0,0.0,0.0,0.0,0.0,0.0,0.0,0.0,0.0,0.0,0.0,0.0,0.0,0.0,0.0,0.0,0.0,0.0,0.0,0.0,0.0,0.0,0.0,0.0,0.0,0.0,0.0,0.0,0.0,0.0,0.0,0.0,0.0,0.0,0.0,0.0,0.0,0.0,0.0,0.0,0.0,0.0,0.0,0.0,0.0,0.0,0.0,0.0,0.0,0.0,3.7474,3.9841,4.2304,4.3242,4.3574,4.3281,3.953,3.659,3.4638,0.0,0.0,0.0,0.0,0.0,0.0,0.0,0.0,0.0,0.0,0.0,0.0,0.0,0.0,0.0,0.0,0.0,0.0,0.0,0.0,0.0,0.0,0.0,0.0,0.0,0.0,0.0,0.0,0.0,0.0,0.0,0.0,0.0,0.0,0.0,0.0,0.0,0.0,2.5912,2.6656,0.0,0.0,0.0,0.0,0.0,0.0,0.0,0.0,2.74,0.0,0.0,0.0,0.0,0.0,0.0,0.0,0.0,0.0,0.0,0.0,0.0,0.0,0.0,0.0,0.0,0.0,0.0,0.0,0.0,0.0,0.0,0.0,0.0,0.0,0.0,0.0,0.0,0.0,0.0,0.0,0.0,0.0,0.0,0.0,0.0,0.0,0.0,0.0,0.0,0.0,0.0,0.0,0.0,0.0,0.0,0.0,0.0,0.0,0.0,0.0,0.0,0.0,0.0,0.0,0.0,3.7899,3.8392,3.9822,4.2344,4.3262,4.3027,4.1621,3.9531,3.7198,3.4618,0.0,0.0,0.0,0.0,0.0,0.0,0.0,0.0,0.0,0.0,0.0,0.0,0.0,0.0,0.0,0.0,0.0,0.0,0.0,0.0,0.0,0.0,0.0,0.0,0.0,0.0,0.0,0.0,0.0,0.0,0.0,0.0,0.0,0.0,0.0,0.0,0.0,0.0,0.0,2.8517,2.9082,0.0,0.0,0.0,0.0,0.0,0.0,0.0,0.0,2.7162,0.0,0.0,0.0,0.0,0.0,0.0,0.0,0.0,0.0,0.0,0.0,0.0,0.0,0.0,0.0,0.0,0.0,0.0,0.0,0.0,0.0,0.0,0.0,0.0,0.0,0.0,0.0,0.0,0.0,0.0,0.0,0.0,0.0,0.0,0.0,0.0,0.0,0.0,0.0,0.0,0.0,0.0,0.0,0.0,0.0,0.0,0.0,0.0,0.0,0.0,0.0,0.0,0.0,0.0,0.0,3.7102,3.859,4.0272,4.2324,4.3242,4.291,4.1211,3.8591,3.6366,0.0,0.0,0.0,0.0,0.0,0.0,0.0,0.0,0.0,0.0,0.0,0.0,0.0,0.0,0.0,0.0,0.0,0.0,0.0,0.0,0.0,0.0,0.0,0.0,0.0,0.0,0.0,0.0,0.0,0.0,0.0,0.0,0.0,0.0,0.0,0.0,0.0,0.0,0.0,0.0,2.8955,2.9326,2.8856,0.0,0.0,0.0,0.0,0.0,0.0,2.9097,2.8944,0.0,0.0,0.0,0.0,0.0,0.0,0.0,0.0,0.0,0.0,0.0,0.0,0.0,0.0,0.0,0.0,0.0,0.0,0.0,0.0,0.0,0.0,0.0,0.0,0.0,0.0,0.0,0.0,0.0,0.0,0.0,0.0,0.0,0.0,0.0,0.0,0.0,0.0,0.0,0.0,0.0,0.0,0.0,0.0,0.0,0.0,0.0,0.0,0.0,0.0,0.0,0.0,0.0,0.0,0.0,3.6479,3.8572,4.0449,4.209,4.2676,4.2129,4.041,3.7493,3.5318,0.0,0.0,0.0,0.0,0.0,0.0,0.0,0.0,0.0,0.0,0.0,0.0,0.0,0.0,0.0,0.0,0.0,0.0,0.0,0.0,0.0,0.0,0.0,0.0,0.0,0.0,0.0,0.0,0.0,0.0,0.0,0.0,0.0,0.0,0.0,0.0,0.0,0.0,0.0,0.0,0.0,2.9975,2.9117,3.0414,0.0,0.0,0.0,0.0,3.1247,3.158,0.0,0.0,0.0,0.0,0.0,0.0,0.0,0.0,0.0,0.0,0.0,0.0,0.0,0.0,0.0,0.0,0.0,0.0,0.0,0.0,0.0,0.0,0.0,0.0,0.0,0.0,0.0,0.0,0.0,0.0,0.0,0.0,0.0,0.0,0.0,0.0,0.0,0.0,0.0,0.0,0.0,0.0,0.0,0.0,0.0,0.0,0.0,0.0,0.0,0.0,0.0,0.0,0.0,0.0,0.0,0.0,3.8173,3.859,3.9589,4.1211,4.0684,3.9512,3.7812,3.6597,3.4817,0.0,0.0,0.0,0.0,0.0,0.0,0.0,0.0,0.0,0.0,0.0,0.0,0.0,0.0,0.0,0.0,0.0,0.0,0.0,0.0,0.0,0.0,0.0,0.0,0.0,0.0,0.0,0.0,0.0,0.0,0.0,0.0,0.0,0.0,0.0,0.0,0.0,0.0,0.0,0.0,0.0,3.2636,3.1769,3.314,3.3669,0.0,0.0,3.3805,3.3113,3.4792,0.0,0.0,0.0,0.0,0.0,0.0,0.0,0.0,0.0,0.0,0.0,0.0,0.0,0.0,0.0,0.0,0.0,0.0,0.0,0.0,0.0,0.0,0.0,0.0,0.0,0.0,0.0,0.0,0.0,0.0,0.0,0.0,0.0,0.0,0.0,0.0,0.0,0.0,0.0,0.0,0.0,0.0,0.0,0.0,0.0,0.0,0.0,0.0,0.0,0.0,0.0,0.0,0.0,0.0,0.0,3.3918,3.7688,3.787,3.8691,4.0371,4.0098,3.8594,3.5898,3.4973,3.35,0.0,0.0,0.0,0.0,0.0,0.0,0.0,0.0,0.0,0.0,0.0,0.0,0.0,0.0,0.0,0.0,0.0,0.0,0.0,0.0,0.0,0.0,0.0,0.0,0.0,0.0,0.0,0.0,0.0,0.0,0.0,0.0,0.0,0.0,0.0,0.0,0.0,0.0,0.0,0.0,0.0,0.0,3.289,3.4705,0.0,0.0,0.0,3.5762,3.5488,0.0,0.0,0.0,0.0,0.0,0.0,0.0,0.0,0.0,0.0,0.0,0.0,0.0,0.0,0.0,0.0,0.0,0.0,0.0,0.0,0.0,0.0,0.0,0.0,0.0,0.0,0.0,0.0,0.0,0.0,0.0,0.0,0.0,0.0,0.0,0.0,0.0,0.0,0.0,0.0,0.0,0.0,0.0,0.0,0.0,0.0,0.0,0.0,0.0,0.0,0.0,0.0,0.0,0.0,0.0,0.0,0.0,3.7495,3.7187,3.793,3.9805,3.9258,3.748,3.4473,3.3117,0.0,0.0,0.0,0.0,0.0,0.0,0.0,0.0,0.0,0.0,0.0,0.0,0.0,0.0,0.0,0.0,0.0,0.0,0.0,0.0,0.0,0.0,0.0,0.0,0.0,0.0,0.0,2.4827,0.0,0.0,0.0,0.0,0.0,0.0,0.0,0.0,0.0,0.0,0.0,0.0,0.0,0.0,3.5339,3.4675,3.6838,3.784,0.0,0.0,3.7895,3.7124,3.6568,3.5789,0.0,0.0,0.0,0.0,0.0,0.0,0.0,0.0,0.0,0.0,0.0,0.0,0.0,0.0,0.0,0.0,0.0,0.0,0.0,0.0,0.0,0.0,0.0,0.0,0.0,0.0,0.0,0.0,0.0,0.0,0.0,0.0,0.0,0.0,0.0,0.0,0.0,0.0,0.0,0.0,0.0,0.0,0.0,0.0,0.0,0.0,0.0,0.0,0.0,0.0,0.0,0.0,0.0,0.0,0.0,3.8277,3.6913,3.7324,3.9707,3.7519,3.5391,3.3535,3.113,2.9771,0.0,0.0,0.0,0.0,0.0,0.0,0.0,0.0,0.0,0.0,0.0,0.0,0.0,0.0,0.0,0.0,0.0,0.0,0.0,0.0,0.0,0.0,0.0,0.0,0.0,0.0,0.0,0.0,0.0,0.0,0.0,0.0,0.0,0.0,0.0,0.0,0.0,0.0,0.0,0.0,0.0,3.8189,3.8091,4.0342,4.1356,0.0,0.0,4.055,3.733,3.9326,3.9725,3.5161,0.0,0.0,0.0,0.0,0.0,0.0,0.0,0.0,0.0,0.0,0.0,0.0,0.0,0.0,0.0,0.0,0.0,0.0,0.0,0.0,0.0,0.0,0.0,0.0,0.0,0.0,0.0,0.0,0.0,0.0,0.0,0.0,0.0,0.0,0.0,0.0,0.0,0.0,0.0,0.0,0.0,0.0,0.0,0.0,0.0,0.0,0.0,0.0,0.0,0.0,0.0,0.0,0.0,3.3979,3.769,3.6093,3.5957,3.7363,3.5976,3.3887,3.1133,3.0116,2.9327,0.0,0.0,0.0,0.0,0.0,0.0,0.0,0.0,0.0,0.0,0.0,0.0,0.0,0.0,0.0,0.0,0.0,0.0,0.0,0.0,0.0,0.0,0.0,0.0,0.0,0.0,0.0,0.0,2.5091,2.5765,2.7187,0.0,0.0,0.0,0.0,0.0,0.0,0.0,0.0,0.0,0.0,3.9019,4.0465,4.2047,0.0,0.0,4.1969,4.1924,3.9573,3.983,3.9522,3.7186,3.6332,0.0,0.0,0.0,0.0,0.0,0.0,0.0,0.0,0.0,0.0,0.0,0.0,0.0,0.0,0.0,0.0,0.0,0.0,0.0,0.0,0.0,0.0,0.0,0.0,0.0,0.0,0.0,0.0,0.0,0.0,0.0,0.0,0.0,0.0,0.0,0.0,0.0,0.0,0.0,0.0,0.0,0.0,0.0,0.0,0.0,0.0,0.0,0.0,0.0,0.0,0.0,0.0,3.3787,3.7241,3.5312,3.4823,3.5976,3.4902,3.2812,2.9746,2.9082,2.8511,0.0,0.0,0.0,0.0,0.0,0.0,0.0,0.0,0.0,0.0,0.0,0.0,0.0,0.0,0.0,0.0,0.0,0.0,0.0,0.0,0.0,0.0,0.0,0.0,0.0,0.0,0.0,0.0,2.5901,2.6626,2.8154,0.0,0.0,0.0,0.0,0.0,0.0,0.0,0.0,0.0,0.0,4.0448,4.2602,4.3922,4.4327,4.3266,4.3647,4.3363,4.1408,4.0365,3.9289,3.7769,0.0,0.0,0.0,0.0,0.0,0.0,0.0,0.0,0.0,0.0,0.0,0.0,0.0,0.0,0.0,0.0,0.0,0.0,0.0,0.0,0.0,0.0,0.0,0.0,0.0,0.0,0.0,0.0,0.0,0.0,2.8028,0.0,0.0,0.0,0.0,0.0,0.0,0.0,0.0,0.0,0.0,0.0,0.0,0.0,0.0,0.0,0.0,0.0,0.0,0.0,0.0,0.0,0.0,3.3788,3.7203,3.47,3.4187,3.5859,3.4316,3.2226,2.9707,2.7988,2.707,2.7085,0.0,0.0,0.0,0.0,0.0,0.0,0.0,0.0,0.0,0.0,0.0,0.0,0.0,0.0,0.0,0.0,0.0,0.0,0.0,0.0,0.0,0.0,0.0,0.0,0.0,0.0,2.7604,2.7783,2.8256,0.0,0.0,0.0,0.0,0.0,0.0,0.0,0.0,0.0,0.0,4.1259,4.2906,4.4527,4.6266,4.6945,4.59,4.5847,4.5031,4.2444,4.1296,3.9563,0.0,0.0,0.0,0.0,0.0,0.0,0.0,0.0,0.0,0.0,0.0,0.0,0.0,0.0,0.0,0.0,0.0,0.0,0.0,0.0,0.0,0.0,0.0,0.0,0.0,0.0,0.0,2.9899,2.9832,0.0,0.0,0.0,0.0,0.0,0.0,0.0,0.0,0.0,0.0,0.0,3.3984,3.3728,0.0,0.0,0.0,0.0,0.0,0.0,0.0,0.0,0.0,0.0,0.0,0.0,3.4858,3.693,3.4568,3.3812,3.4939,3.3916,3.2365,3.0392,2.8728,2.787,2.7885,0.0,0.0,0.0,0.0,0.0,0.0,0.0,0.0,0.0,0.0,0.0,0.0,0.0,0.0,0.0,0.0,0.0,0.0,0.0,0.0,0.0,0.0,0.0,0.0,0.0,2.9482,0.0,0.0,0.0,0.0,0.0,0.0,0.0,0.0,0.0,0.0,0.0,3.8596,4.1133,4.3005,4.4726,4.6306,4.7549,4.7702,0.0,0.0,0.0,0.0,0.0,0.0,0.0,0.0,0.0,0.0,0.0,0.0,0.0,0.0,3.853,3.5174,3.332,3.2266,3.2284,0.0,0.0,0.0,0.0,0.0,0.0,0.0,0.0,0.0,0.0,0.0,0.0,0.0,0.0,3.1211,0.0,3.1071,0.0,0.0,0.0,0.0,0.0,0.0,0.0,0.0,3.4493,3.546,3.6477,3.5905,3.6079,0.0,3.5795,3.4752,0.0,0.0,0.0,0.0,0.0,0.0,0.0,0.0,3.5536,3.6519,3.4619,3.3879,3.4432,3.3704,3.2435,3.0715,2.881,2.7675,2.7419,2.7937,2.8613,0.0,0.0,0.0,0.0,0.0,0.0,0.0,0.0,0.0,0.0,0.0,0.0,0.0,0.0,0.0,0.0,0.0,0.0,0.0,0.0,0.0,0.0,0.0,3.0727,0.0,0.0,0.0,0.0,0.0,0.0,0.0,0.0,0.0,3.7549,3.865,4.035,4.2859,4.4217,4.5703,4.765,0.0,0.0,0.0,0.0,0.0,0.0,0.0,4.3929,4.2821,4.2374,4.2149,4.21,4.2324,4.2493,4.2457,0.0,0.0,3.7779,3.5977,3.4925,3.4939,3.5357,3.6059,3.7169,3.7862,3.8455,0.0,0.0,0.0,0.0,0.0,0.0,0.0,0.0,3.0994,3.2372,0.0,3.1965,0.0,0.0,0.0,0.0,0.0,3.3774,0.0,0.0,3.5456,3.6626,3.8061,3.6607,3.6196,3.6948,3.6991,3.6909,3.6658,3.3573,0.0,0.0,0.0,0.0,0.0,0.0,3.5765,3.578,3.4808,3.4346,3.4477,3.3651,3.2331,3.0513,2.8199,2.6585,2.582,2.7303,2.7827,2.7086,3.0037,0.0,0.0,0.0,0.0,0.0,0.0,0.0,0.0,0.0,0.0,0.0,0.0,0.0,0.0,0.0,0.0,0.0,0.0,0.0,0.0,3.0729,0.0,0.0,0.0,0.0,0.0,0.0,0.0,0.0,0.0,0.0,4.0935,4.1115,4.2048,4.4569,0.0,0.0,0.0,0.0,4.7948,4.8634,4.9458,4.9605,4.8588,4.7067,4.5353,4.3645,0.0,0.0,4.2065,4.2796,4.3407,4.3349,4.2725,4.206,4.2135,4.1092,4.0426,4.0439,4.035,4.0708,4.0785,4.0649,4.0813,3.6967,0.0,0.0,0.0,0.0,3.6097,3.6477,3.6614,3.6848,3.6685,3.6203,3.4844,0.0,0.0,0.0,0.0,0.0,0.0,3.6304,3.7989,3.882,3.9732,4.0731,4.0866,4.0731,4.0319,3.9174,3.7975,3.6685,3.4585,3.469,3.6929,0.0,0.0,0.0,0.0,3.6312,3.5644,3.4717,3.426,3.4276,3.3495,3.1693,2.8904,2.8148,2.7076,2.5616,2.6076,2.6557,2.693,2.7886,0.0,0.0,0.0,0.0,0.0,0.0,0.0,0.0,0.0,0.0,0.0,0.0,0.0,0.0,0.0,0.0,0.0,0.0,0.0,3.4185,3.331,3.3275,0.0,0.0,0.0,0.0,0.0,0.0,0.0,0.0,0.0,4.4108,4.4072,4.4495,0.0,0.0,4.8898,4.9668,4.953,4.9185,4.8655,4.8311,0.0,4.5873,4.5757,4.5486,4.4389,4.4452,4.4607,4.4622,4.4789,4.4962,4.4943,4.4718,4.4572,4.4407,4.1902,3.9946,3.9773,4.0185,4.0777,4.1389,4.1988,4.2453,4.0429,3.9283,3.7631,3.7334,3.7986,3.8516,3.8712,3.8676,3.8554,3.8513,3.8426,3.6682,3.6389,3.7185,3.6498,0.0,0.0,0.0,3.8608,4.0376,4.1204,4.221,4.3278,4.3489,4.3316,4.2758,4.145,4.0277,3.9238,3.7901,3.8106,3.9655,0.0,0.0,3.7033,3.6973,3.6508,3.5621,3.5026,3.4718,3.4718,3.3573,3.1395,2.8214,2.8061,2.7417,2.6067,2.5699,2.5972,2.6815,2.7233,2.7754,0.0,0.0,0.0,0.0,0.0,0.0,0.0,0.0,0.0,0.0,0.0,3.0414,3.1407,0.0,0.0,0.0,3.2596,3.3767,3.5271,3.482,0.0,0.0,0.0,0.0,0.0,0.0,0.0,4.1117,4.1303,4.2338,4.4998,4.533,4.5783,4.711,4.7949,4.8696,4.9445,0.0,4.8527,4.8591,4.8223,4.7489,4.6323,4.6259,4.6054,4.5138,4.5357,4.5653,4.5673,4.5627,4.5594,4.5594,4.5594,4.5594,4.5594,4.3478,4.1785,4.1805,4.2189,4.2689,4.322,4.347,4.3588,4.3201,4.3921,4.1216,3.9597,3.8846,3.9571,3.9385,3.8538,3.7836,3.8776,4.0624,3.7782,3.8194,4.1102,4.08,0.0,3.9581,4.0347,4.1147,4.2027,4.2835,4.4028,4.5537,4.4786,4.4412,4.4374,4.3566,4.3181,4.3132,4.2329,4.1962,4.1788,3.8035,3.6427,3.7058,3.7168,3.6752,3.5827,3.5753,3.5603,3.5385,3.3667,3.1259,2.818,2.8079,2.7617,2.672,2.5982,2.5945,2.6657,2.7454,2.759,2.7015,0.0,0.0,0.0,0.0,0.0,0.0,0.0,0.0,0.0,0.0,0.0,0.0,0.0,0.0,0.0,3.2853,0.0,3.4534,3.5326,0.0,0.0,0.0,3.6924,3.6009,3.7394,3.875,3.9684,0.0,0.0,4.4267,4.5213,4.599,4.6694,4.638,4.6741,4.843,4.7316,4.6796,4.8397,4.8559,4.8534,4.8031,4.7354,4.6455,4.569,4.5556,4.5468,4.5584,4.5594,4.5594,4.5441,4.5498,4.5441,4.5402,4.5171,4.5498,4.5248,4.5402,4.5479,4.5248,4.4701,4.419,4.5203,4.5382,4.4692,4.3704,4.2706,4.3115,4.2699,4.1722,4.1781,4.1424,4.074,3.9342,3.8829,3.8998,3.9804,4.0415,4.0854,4.1316,4.2313,4.3682,4.3912,4.4566,4.5575,4.5383,4.5287,4.5229,4.4412,4.4028,4.397,4.3198,4.2518,4.1874,4.088,3.9868,3.8877,3.9463,3.9052,3.752,3.7493,3.6522,3.4545,3.2656,3.0759,2.8895,2.8687,2.7675,2.5772,2.615,2.6209,2.577,2.5976,2.6351,2.6819,2.8652,0.0,0.0,0.0,0.0,0.0,0.0,0.0,0.0,0.0,3.3402,3.4547,0.0,3.5734,0.0,3.4286,3.3679,3.4579,3.4291,0.0,0.0,3.7,3.8006,3.7722,3.8552,3.9751,4.1326,4.1602,4.2109,4.3395,4.4087,4.4336,4.4133,4.6279,4.8064,4.847,4.7639,4.7084,4.7437,4.7047,4.6575,4.6517,4.566,4.5163,4.5535,4.5037,4.4816,4.5479,4.5594,4.5402,4.4767,4.4605,4.4374,4.3874,4.4162,4.4586,4.4643,4.5124,4.5383,4.4759,4.4432,4.4124,4.6122,4.6471,4.6819,4.6341,4.5349,4.4817,4.4228,4.3627,4.3453,4.2857,4.199,4.1656,4.1128,4.0577,4.1724,4.2521,4.2999,4.3338,4.3989,4.4863,4.4874,4.5152,4.5594,4.5594,4.5594,4.5594,4.5114,4.4802,4.4605,4.3809,4.3101,4.2517,4.1923,4.1368,4.0846,4.0749,4.0377,3.9715,3.8434,3.6509,3.3909,3.2431,3.1375,3.0669,2.9789,2.9147,2.8683,2.8834,2.8874,2.8748,2.8805,2.8895,2.9081,3.0688,3.1874,0.0,0.0,0.0,0.0,0.0,0.0,0.0,0.0,0.0,0.0,0.0,3.6245,3.6517,3.4958,3.444,3.5738,3.5703,3.5834,3.6335,3.7198,3.7696,3.7599,3.8305,3.9313,4.069,4.0979,4.1371,4.2234,4.26,4.2842,4.2879,4.4949,4.651,4.6698,4.6599,4.6588,4.6589,4.6204,4.5721,4.5305,4.4754,4.4392,4.4438,4.4085,4.3951,4.4412,4.4797,4.4863,4.4393,4.4316,4.4182,4.3739,4.397,4.4297,4.4374,4.4682,4.496,4.4902,4.4306,4.3605,4.6948,4.7645,4.8324,4.8159,4.7296,4.581,4.5002,4.4654,4.3828,4.3479,4.3513,4.382,4.371,4.3393,4.4519,4.5041,4.5063,4.5429,4.5594,4.5594,4.5594,4.5594,4.5594,4.5559,4.5531,4.5531,4.5495,4.5322,4.5014,4.4287,4.3753,4.3423,4.2185,4.2025,4.2842,4.1607,4.1189,4.1626,3.9204,3.6729,3.4298,3.3544,3.3202,3.3184,3.1637,3.1424,3.2767,3.2295,3.2257,3.2819,3.2891,3.256,3.1758,3.3258,3.408,0.0,3.4837,0.0,0.0,0.0,0.0,0.0,0.0,0.0,0.0,3.5074,3.5558,3.572,3.5187,3.5428,3.6831,3.7655,3.7785,3.7088,3.6938,3.6911,3.7035,3.77,3.8507,3.9354,4.005,4.0652,4.115,4.114,4.1405,4.2114,4.2943,4.3733,4.4117,4.4975,4.5609,4.5702,4.5628,4.5059,4.4402,4.4117,4.3728,4.312,4.2858,4.2883,4.3064,4.363,4.4032,4.3942,4.3874,4.3835,4.3835,4.3816,4.3989,4.4047,4.422,4.4575,4.4979,4.4008,4.2989,4.9976,5.0105,5.027,4.9866,4.904,4.8049,4.6507,4.4636,4.3828,4.3479,4.3515,4.3582,4.3555,4.3539,4.4331,4.4682,4.472,4.5332,4.5594,4.5594,4.5594,4.5594,4.5577,4.5322,4.5201,4.5161,4.49,4.4745,4.4682,4.4531,4.4405,4.4329,4.3445,4.3585,4.4565,0.0,0.0,0.0,4.1062,4.0129,3.8746,3.8466,3.7848,3.6753,3.5581,0.0,3.2779,3.3173,3.323,3.268,3.2664,0.0,0.0,0.0,0.0,0.0,0.0,0.0,0.0,0.0,0.0,0.0,3.5545,3.6112,3.4724,3.533,3.5564,3.5014,3.539,3.5524,3.5234,3.5906,3.6545,3.694,3.6886,3.7319,3.8594,3.8957,3.9381,4.0169,4.0198,4.0298,4.0518,4.0233,4.0092,4.0489,4.1087,4.1554,4.1887,4.3436,4.4577,4.4711,4.4174,4.3602,4.3192,4.2411,4.2011,4.2096,4.1696,4.1681,4.2392,4.2737,4.2718,4.2392,4.225,4.2038,4.1431,4.1777,4.2519,4.3181,4.3835,4.4355,4.447,4.322,4.2047,5.082,0.0,5.1224,5.093,0.0,4.9279,4.7792,4.5792,4.4617,4.3864,4.3479,4.3479,4.3479,4.3531,4.408,4.429,4.4332,4.5033,4.5352,4.5352,4.5541,4.5532,4.5342,4.518,4.5019,4.483,4.4682,4.4501,4.4304,4.4323,4.4219,4.405,4.3025,4.2882,4.3555,4.2288,4.1272,4.0605,4.058,3.9796,3.8178,3.7299,3.6981,3.7181,3.5112,0.0,0.0,0.0,0.0,0.0,0.0,0.0,0.0,3.2963,0.0,3.1792,3.295,3.3356,3.2644,3.3057,3.323,3.2952,3.4216,3.5067,3.5118,3.48,3.4392,3.4035,3.472,3.5045,3.4669,3.5299,3.6067,3.6826,3.6856,3.7282,3.8445,3.9053,3.9284,3.9269,3.9547,3.9566,3.9078,3.864,3.8431,3.8614,3.912,3.9597,4.0059,4.1944,4.3375,4.3025,4.2488,4.172,4.0854,4.0319,3.9813,3.9728,3.9683,3.989,4.042,4.1231,4.154,4.0949,4.0759,4.0597,4.0438,4.0666,4.1257,4.2187,4.2797,4.3239,4.3547,4.3028,4.2431,5.1224,5.1279,5.194,5.1756,5.0949,5.0203,4.8788,4.6893,0.0,0.0,0.0,4.362,4.3638,4.3716,4.3923,4.4016,4.4043,4.475,4.5115,4.5126,4.5457,4.5419,4.5096,4.5022,4.4818,4.4501,4.4433,4.4237,4.3927,4.3909,4.3772,4.3401,4.2294,4.1754,4.1751,4.117,4.0547,4.0011,4.0,3.9145,3.7326,3.6067,3.6062,3.7449,3.4657,3.3717,3.4942,3.4298,3.3874,3.3834,3.4472,3.4358,3.3383,3.3941,3.3942,3.3119,3.3686,3.359,3.2548,3.2492,3.2362,3.1936,3.2709,3.3781,3.5146,3.3957,3.3238,3.341,3.4065,3.459,3.4899,3.5469,3.6167,3.7024,3.7019,3.7238,3.795,3.8611,3.8784,3.8219,3.8654,3.8723,3.7806,3.7442,3.7162,3.7192,3.7601,3.7854,3.8403,4.0241,4.1434,4.073,4.0295,3.9712,3.861,3.8241,3.7868,3.7408,3.7685,3.8002,3.8305,3.9345,4.0021,3.9633,3.9562,3.973,3.9793,3.9928,4.0349,4.1321,4.1643,4.1997,4.2827,4.3085,4.2989,5.2855,5.2876,5.2986,5.2564,5.1797,5.1287,4.9352,4.6485,4.4832,4.4256,4.4506,4.4119,4.4163,4.4506,4.4149,4.4016,4.4043,4.475,4.5115,4.5126,4.5438,4.5419,4.5085,4.4812,4.4474,4.4073,4.3788,4.3612,4.3563,4.3563,4.3548,4.3404,4.2647,4.1787,4.1104,4.1787,4.1856,4.11,4.1697,4.1709,4.1145,4.1506,4.1166,4.008,3.8788,3.7679,3.6618,3.5761,3.5387,3.5368,3.4839,3.3765,3.2117,3.2079,3.1712,3.0778,3.0796,3.1155,3.1863,3.2137,3.2395,3.2744,3.3545,3.3855,3.3403,3.318,3.3395,3.4201,3.4329,3.4993,3.6393,3.6605,3.6886,3.773,3.7848,3.7853,3.7865,3.8058,3.8096,3.7911,3.8084,3.8161,3.7786,3.7502,3.7176,3.7074,3.6756,3.6845,3.7038,3.8154,3.8615,3.8012,3.7753,3.7498,3.7011,3.6945,3.6727,3.6491,3.6491,3.6705,3.6914,3.7841,3.849,3.8546,3.9025,3.9241,3.8847,3.9225,3.9716,4.0291,4.0855,4.158,4.2623,4.2896,4.2797,5.3185,5.3185,5.3185,5.2986,5.255,5.1232,4.9737,4.8018,4.5904,4.4615,4.4045,4.3828,4.385,4.4028,4.3828,4.3742,4.3758,4.4276,4.4508,4.4516,4.4889,4.4865,4.4521,4.4364,4.4073,4.3742,4.358,4.3479,4.3479,4.3479,4.3479,4.3458,4.3052,4.2498,4.1881,4.2488,4.2527,4.1959,4.1973,4.1892,4.172,4.1039,4.0318,3.9563,3.7933,3.6414,3.526,3.4031,3.3178,3.2733,3.2363,3.1587,3.0337,3.0651,3.0666,3.0222,2.9776,3.0222,3.1711,3.2443,3.3004,3.3356,3.405,3.4323,3.3964,3.4186,3.448,3.4782,3.477,3.4992,3.5698,3.5864,3.5835,3.5607,3.6063,3.6224,3.5925,3.6588,3.6953,3.6755,3.7026,3.7135,3.6692,3.6403,3.6093,3.5819,3.5433,3.5093,3.4913,3.5488,3.6085,3.6197,3.614,3.5771,3.529,3.514,3.5061,3.4954,3.5312,3.5602,3.5858,3.6754,3.7446,3.7357,3.7917,3.8313,3.8116,3.8027,3.8538,3.9643,3.9823,4.0444,4.1206,4.159,4.17,5.3185,5.3185,5.3185,5.3159,5.288,5.112,5.0011,4.9246,4.7127,4.5304,4.3896,4.3655,4.3655,4.3736,4.3606,4.3479,4.3548,4.3833,4.4016,4.4046,4.4419,4.4392,4.4028,4.4016,4.3818,4.3531,4.3479,4.3479,4.3479,4.3479,4.3479,4.3508,4.3554,4.329,4.2682,4.3167,4.3187,4.2688,4.2248,4.1791,4.1278,3.9763,3.8817,3.8303,3.6597,3.5092,3.4087,3.2687,3.1494,3.054,3.0301,2.9843,2.9097,2.9592,3.0008,3.0118,2.961,3.01,3.1913,3.3089,3.3696,3.3717,3.433,3.4619,3.4469,3.4956,3.5231,3.5034,3.4978,3.4897,3.4841,3.4926,3.465,3.3866,3.4462,3.4836,3.4291,3.5158,3.5846,3.5553,3.6135,3.6334,3.5689,3.5484,3.5346,3.4865,3.4241,3.3792,3.3559,3.3771,3.4379,3.485,3.4957,3.46,3.3917,3.3875,3.3894,3.3807,3.4321,3.4669,3.4995,3.6115,3.6905,3.6632,3.7228,3.7782,3.7821,3.7596,3.7871,3.8956,3.912,3.938,4.0415,4.0598,4.0688,5.3185,5.3185,5.3148,5.2941,5.2475,5.1581,5.0348,4.8978,4.79,4.6409,4.4668,4.4154,4.4147,4.445,4.3809,4.3479,4.3531,4.3849,4.4001,4.4046,4.4419,4.4392,4.3998,4.3982,4.3818,4.3531,4.3479,4.3479,4.3479,4.3479,4.3496,4.358,4.4148,4.3888,4.3053,4.3911,4.4046,4.3253,4.3305,4.2385,4.0537,4.001,3.9093,3.7639,3.7419,3.6505,3.4968,3.4064,3.2852,3.1397,3.0583,2.9831,2.9122,2.9085,2.9445,3.0124,3.0106,3.0904,3.2717,3.3936,3.4146,3.3581,3.4193,3.4333,3.3701,3.4299,3.4764,3.4724,3.4724,3.4733,3.4694,3.4714,3.461,3.4341,3.4562,3.4696,3.4564,3.4734,3.4908,3.5143,3.587,3.613,3.5765,3.6039,3.596,3.5075,3.45,3.4189,3.4175,3.4324,3.4453,3.4406,3.4149,3.4005,3.3885,3.3807,3.3917,3.388,3.388,3.4032,3.4412,3.5349,3.6358,3.6556,3.7551,3.8202,3.8011,3.7956,3.8272,3.8388,3.882,3.9477,4.0665,4.0764,4.0526,5.1845,5.189,5.2307,5.2519,5.2437,5.1654,5.0804,4.9868,4.7514,4.6217,4.5569,4.399,4.352,4.3956,4.3643,4.3479,4.3496,4.3646,4.3693,4.371,4.3884,4.3852,4.371,4.371,4.3631,4.3496,4.3479,4.3479,4.3479,4.3479,4.3597,4.3804,4.4121,4.4112,4.3919,4.4363,4.4299,4.3732,4.3757,4.3016,4.1628,4.0898,4.0322,3.9625,3.8707,3.7459,3.5899,3.4981,3.3456,3.1328,3.0792,3.0015,2.8718,2.9094,2.9594,3.0167,3.0668,3.1322,3.2225,3.2612,3.3082,3.3788,3.3596,3.3473,3.3646,3.3974,3.416,3.4184,3.4307,3.4345,3.422,3.43,3.4166,3.3704,3.4008,3.4233,3.3738,3.412,3.4563,3.5065,3.58,3.6296,3.6228,3.6217,3.6207,3.5838,3.5178,3.4427,3.456,3.4659,3.4535,3.4305,3.4245,3.437,3.4461,3.4491,3.4509,3.4509,3.4509,3.4435,3.4192,3.5661,3.6886,3.6395,3.7643,3.8469,3.8355,3.7973,3.7974,3.8173,3.8659,3.9382,4.0167,4.0272,4.0186,5.0527,5.0458,5.1093,5.1577,5.1747,5.0915,5.0194,4.9352,4.6727,4.5589,4.5331,4.3569,4.2969,4.3268,4.3427,4.3479,4.3479,4.3479,4.3479,4.3479,4.3479,4.3496,4.3479,4.3479,4.3479,4.3479,4.3479,4.3479,4.3479,4.3479,4.3612,4.3852,4.3955,4.4106,4.428,4.4378,4.4252,4.3878,4.3865,4.3446,4.2593,4.1625,4.0985,4.0708,3.9643,3.8221,3.6489,3.5612,3.3978,3.1487,3.0948,3.011,2.8863,2.9088,2.9442,2.9886,3.0613,3.1145,3.137,3.1586,3.2305,3.3506,3.3107,3.3017,3.346,3.3504,3.3429,3.3443,3.3611,3.3665,3.385,3.3878,3.3602,3.3049,3.3591,3.3679,3.3376,3.3789,3.4288,3.4821,3.5514,3.6292,3.6625,3.6521,3.644,3.6625,3.5673,3.4807,3.5013,3.5022,3.4838,3.4508,3.4852,3.5137,3.5169,3.5097,3.5141,3.5339,3.5334,3.5059,3.4412,3.6046,3.7088,3.6486,3.7661,3.8377,3.8505,3.8175,3.7951,3.8508,3.8927,3.9152,3.9514,3.9742,3.9912,4.9611,4.9101,4.9626,4.9915,4.9864,4.9086,4.7971,4.6825,4.5663,4.452,4.3422,4.3002,4.2864,4.2769,4.3196,4.3497,4.3479,4.3479,4.3462,4.3444,4.348,4.3479,4.3479,4.3479,4.3462,4.3427,4.341,4.3444,4.3479,4.3479,4.3515,4.3529,4.3836,4.3833,4.3695,4.3896,4.3865,4.3597,4.3565,4.3475,4.3204,4.1866,4.0767,4.0033,3.9845,3.8704,3.6841,3.5939,3.4523,3.2379,3.0997,3.0027,2.9539,2.8904,2.8795,2.916,2.9867,3.0332,3.0558,3.161,3.2546,3.2753,3.2906,3.3138,3.3163,3.2905,3.2697,3.2599,3.2695,3.2996,3.3546,3.3415,3.3382,3.3538,3.336,3.3393,3.3715,3.3687,3.3935,3.4398,3.5225,3.6152,3.6974,3.7066,3.6889,3.6775,3.6229,3.5828,3.5822,3.5696,3.5433,3.5325,3.5619,3.6116,3.5625,3.5589,3.5781,3.5969,3.6018,3.5893,3.5683,3.5646,3.6054,3.6476,3.7164,3.7824,3.842,3.8652,3.856,3.8762,3.8898,3.909,3.9149,3.9408,3.9576,4.794,4.8139,4.8372,4.8466,4.8377,4.7609,4.6669,4.5604,4.4015,4.3218,4.286,4.2078,4.1824,4.2142,4.2306,4.281,4.3444,4.3479,4.3322,4.3032,4.2976,4.2771,4.2426,4.2406,4.2638,4.2958,4.2976,4.3178,4.3462,4.3479,4.3479,4.3496,4.3612,4.3614,4.3548,4.3612,4.3614,4.3513,4.3479,4.324,4.2729,4.1828,4.0724,3.9452,3.889,3.7873,3.6221,3.5472,3.4127,3.2092,3.1044,3.0219,2.9662,2.979,2.987,2.9838,3.0522,3.0962,3.1011,3.124,3.1942,3.2817,3.2316,3.2264,3.2604,3.2599,3.2501,3.2484,3.2501,3.2697,3.284,3.2825,3.2809,3.2903,3.2874,3.2972,3.3288,3.3437,3.3808,3.4891,3.5918,3.69,3.7386,3.7321,3.7031,3.7314,3.6854,3.6576,3.6604,3.6386,3.5938,3.5591,3.5693,3.5929,3.6171,3.6202,3.6373,3.6567,3.6604,3.624,3.5967,3.609,3.6461,3.63,3.6801,3.7437,3.8143,3.8658,3.8658,3.8719,3.8855,3.8884,3.8844,3.9141,3.9244,4.6352,4.6945,4.6977,4.6995,4.6924,4.6414,4.5466,4.4268,4.2839,4.2178,4.1882,4.1052,4.0967,4.1429,4.1512,4.2024,4.2903,4.294,4.2752,4.244,4.2402,4.2183,4.1853,4.181,4.2018,4.2362,4.242,4.2694,4.3178,4.325,4.3339,4.3497,4.3479,4.3479,4.3479,4.3479,4.3479,4.3461,4.3082,4.2538,4.1974,4.1017,3.9926,3.872,3.7844,3.7018,3.6076,3.513,3.3943,3.2419,3.1174,3.0213,2.9659,3.0305,3.0677,3.0493,3.101,3.1334,3.1243,3.1202,3.1614,3.2447,3.1966,3.172,3.2229,3.2162,3.2074,3.2074,3.2074,3.2144,3.2371,3.2441,3.2459,3.2507,3.2578,3.2821,3.3265,3.3562,3.4265,3.5345,3.6566,3.7389,3.7672,3.7598,3.7601,3.7811,3.7335,3.7233,3.729,3.6825,3.6312,3.5941,3.5688,3.581,3.5979,3.6173,3.6559,3.679,3.6924,3.6579,3.6222,3.6426,3.6429,3.6268,3.6585,3.722,3.7851,3.8439,3.8643,3.8658,3.8735,3.8777,3.8788,3.8844,3.8984,4.4951,4.5442,4.5485,4.5494,4.5477,4.5251,4.4182,4.2549,4.224,4.1435,4.0516,4.0171,4.0449,4.0827,4.092,4.1246,4.1725,4.181,4.181,4.1789,4.181,4.1768,4.1643,4.1617,4.1664,4.181,4.1832,4.2142,4.2655,4.2751,4.2995,4.3374,4.3462,4.3444,4.3462,4.3354,4.3335,4.3029,4.2087,4.145,4.1232,3.9558,3.8307,3.7617,3.6849,3.6402,3.6309,3.4926,3.3916,3.3175,3.1314,2.9992,2.9868,3.0442,3.0844,3.0938,3.124,3.124,3.1024,3.1542,3.1684,3.1668,3.162,3.172,3.1718,3.1507,3.1312,3.1349,3.1431,3.1577,3.2193,3.2315,3.2372,3.2493,3.2754,3.3154,3.3547,3.4235,3.4906,3.56,3.6736,3.7266,3.7017,3.7428,3.7951,3.7569,3.7606,3.7711,3.7684,3.7078,3.6522,3.627,3.5941,3.5711,3.5849,3.6037,3.6531,3.6949,3.7034,3.6897,3.6255,3.6163,3.6004,3.5898,3.6381,3.7006,3.7539,3.8083,3.8366,3.8433,3.8546,3.8627,3.875,3.8795,3.8875,4.3794,4.3982,4.4048,4.4051,4.3897,4.3003,4.2081,4.1534,4.1044,4.0519,4.0163,4.0113,4.0204,4.0311,4.036,4.0466,4.0618,4.0642,4.0821,4.1133,4.1236,4.1024,4.0713,4.0642,4.0838,4.1201,4.1599,4.1874,4.2103,4.248,4.2789,4.2976,4.3303,4.3286,4.2885,4.2432,4.1977,4.1508,4.0672,3.9951,3.9394,3.837,3.7509,3.6797,3.6174,3.5832,3.5764,3.4423,3.3628,3.3351,3.1782,3.0912,3.1095,3.1341,3.1528,3.1646,3.1945,3.2005,3.1693,3.1751,3.1845,3.1655,3.1518,3.1393,3.1372,3.1291,3.119,3.1258,3.163,3.209,3.2242,3.2293,3.2406,3.2353,3.2903,3.321,3.3446,3.4584,3.5473,3.5759,3.6234,3.6319,3.6156,3.6705,3.6835,3.6989,3.7285,3.7644,3.7714,3.7324,3.6783,3.6457,3.6006,3.5723,3.5943,3.6145,3.65,3.6769,3.6858,3.6786,3.6212,3.5837,3.5665,3.5764,3.6237,3.6675,3.7218,3.7632,3.7912,3.8082,3.8115,3.8316,3.8611,3.8744,3.8817,4.2816,4.2827,4.2912,4.3138,4.3233,4.2102,4.161,4.1491,4.0815,4.0383,4.0146,4.0113,4.0113,4.0113,4.0113,4.0113,4.0113,4.0113,4.0262,4.0577,4.0659,4.0434,4.0121,4.0113,4.0237,4.0601,4.0984,4.1286,4.149,4.1832,4.2142,4.2402,4.2714,4.2534,4.199,4.147,4.0917,4.0266,3.9355,3.8599,3.7997,3.7042,3.6229,3.5722,3.5157,3.4887,3.4781,3.368,3.3189,3.3098,3.1985,3.1383,3.1582,3.1681,3.183,3.1955,3.2264,3.2425,3.2351,3.2319,3.2147,3.1977,3.1759,3.1464,3.1295,3.119,3.119,3.1275,3.1853,3.2395,3.2682,3.3004,3.3106,3.3123,3.2991,3.3196,3.3593,3.5046,3.5962,3.6146,3.6335,3.6091,3.5616,3.5723,3.5638,3.6002,3.6656,3.7397,3.7558,3.7435,3.7026,3.6702,3.6431,3.6247,3.6135,3.6299,3.6518,3.6592,3.6625,3.6354,3.5933,3.5719,3.5547,3.5645,3.6003,3.6195,3.6695,3.7138,3.7469,3.7578,3.7649,3.8048,3.8334,3.8627,3.882,4.1917,4.1949,4.2064,4.2486,4.293,4.225,4.1885,4.1931,4.1339,4.0646,4.0197,4.0113,4.0113,4.0113,4.0113,4.0113,4.0113,4.0113,4.0121,4.0171,4.0171,4.0121,4.0113,4.0113,4.0146,4.0171,4.0204,4.0441,4.0874,4.1018,4.1201,4.1746,4.1877,4.1421,4.089,4.0642,4.0141,3.9373,3.8119,3.7353,3.7288,3.5618,3.4633,3.4576,3.4087,3.3761,3.3689,3.3045,3.28,3.3067,3.1931,3.1263,3.1373,3.1617,3.1718,3.1811,3.2248,3.2617,3.2889,3.2929,3.2803,3.2465,3.2385,3.2107,3.1647,3.1613,3.1613,3.1613,3.2209,3.2835,3.3457,3.3931,3.4252,3.4223,3.3393,3.3347,3.4435,3.5595,3.6084,3.6312,3.6678,3.6583,3.5166,3.5487,3.5243,3.5179,3.5863,3.6566,3.7123,3.7077,3.7141,3.6931,3.6607,3.661,3.6451,3.6958,3.7144,3.7096,3.7001,3.6616,3.6082,3.5817,3.5535,3.5637,3.5642,3.5838,3.5987,3.6304,3.6654,3.6794,3.7121,3.7649,3.8048,3.835,3.8999,4.1046,4.1068,4.1182,4.1395,4.149,4.0839,4.0602,4.0671,4.0553,4.0383,4.0113,4.0113,4.0113,4.0113,4.0113,4.0113,4.0113,4.007,4.0113,4.0113,4.0113,4.0113,4.0113,4.0113,4.0113,4.0113,4.0096,4.0179,4.0319,4.0662,4.0967,4.1155,4.1495,4.1147,4.0198,3.9525,3.8933,3.8123,3.6371,3.5726,3.5909,3.4702,3.3903,3.3836,3.3659,3.3531,3.3518,3.2876,3.2547,3.2551,3.1818,3.1537,3.1881,3.1635,3.1576,3.1836,3.2154,3.2571,3.2976,3.3222,3.325,3.316,3.3119,3.3017,3.2882,3.2814,3.2814,3.2933,3.3474,3.3952,3.4184,3.4404,3.4303,3.3812,3.3795,3.4184,3.5018,3.5564,3.5788,3.5832,3.5989,3.5766,3.5425,3.4938,3.4796,3.4952,3.5297,3.5721,3.6344,3.6698,3.6761,3.6724,3.6563,3.6707,3.6948,3.7483,3.7753,3.7719,3.757,3.7339,3.6706,3.6147,3.5836,3.5638,3.5373,3.5481,3.5182,3.5136,3.548,3.5925,3.6414,3.689,3.7614,3.8101,3.9062,4.015,4.0159,4.0294,4.0768,4.1279,4.0656,4.0612,4.0906,4.0705,4.0367,4.0163,4.0113,4.0113,4.0113,4.0113,4.0113,4.0087,3.9756,3.9782,4.0113,4.0113,4.0113,4.0113,4.0113,4.0113,4.0113,4.0113,4.0096,4.0171,4.0424,4.0552,4.0625,4.0914,4.0354,3.9038,3.862,3.7729,3.6551,3.5197,3.4726,3.4698,3.377,3.3298,3.3093,3.2917,3.2703,3.264,3.2291,3.2291,3.2557,3.2214,3.1928,3.2212,3.1921,3.1788,3.2006,3.2216,3.2658,3.3464,3.3773,3.3722,3.357,3.3652,3.3506,3.3146,3.3198,3.3389,3.3406,3.4083,3.4404,3.4539,3.4759,3.4721,3.4551,3.4726,3.4991,3.5182,3.5419,3.5566,3.5616,3.5583,3.543,3.5233,3.4597,3.4504,3.4716,3.4957,3.5413,3.5896,3.6155,3.6367,3.6392,3.664,3.6859,3.7303,3.7872,3.8464,3.8464,3.8345,3.8075,3.7594,3.6875,3.6485,3.6127,3.549,3.4971,3.4734,3.4537,3.4591,3.5073,3.5581,3.6243,3.6967,3.7685,3.8704,3.9388,3.9385,3.9509,4.0388,4.1374,4.1179,4.1231,4.1796,4.1338,4.0815,4.0299,4.0045,3.9859,3.9978,3.9653,3.9782,3.9731,3.9076,3.9342,3.9731,4.002,4.0113,4.0113,4.0113,4.0113,4.0113,4.0113,4.0113,4.0121,4.0146,4.0121,4.0204,4.0204,3.9417,3.8618,3.818,3.6904,3.5545,3.4906,3.4338,3.3824,3.2993,3.2504,3.2394,3.202,3.1724,3.1682,3.162,3.2056,3.3322,3.2754,3.2447,3.2404,3.2448,3.2432,3.2442,3.2566,3.3111,3.4139,3.4259,3.419,3.3832,3.4122,3.3924,3.3079,3.3155,3.3456,3.345,3.4001,3.4259,3.4393,3.4975,3.5222,3.5155,3.5369,3.5245,3.4945,3.5216,3.5616,3.5616,3.5616,3.5245,3.4861,3.4515,3.4423,3.4525,3.4752,3.5027,3.5479,3.5828,3.604,3.6174,3.6551,3.7045,3.7625,3.8244,3.8877,3.9266,3.9182,3.8952,3.8687,3.8084,3.7536,3.6963,3.6063,3.53,3.4701,3.448,3.426,3.4439,3.5107,3.5708,3.6323,3.7022,3.7898,3.9388,3.9394,3.9424,3.9383,3.9512,4.045,4.0834,4.0674,4.1096,4.1136,4.0728,3.973,3.9236,3.9183,3.8734,3.829,3.8446,3.8234,3.8458,3.9139,3.9859,4.0045,4.0062,3.9986,4.007,4.007,4.0113,4.0113,4.0113,4.0045,4.0113,4.0113,3.9893,3.9631,3.8853,3.8469,3.8002,3.6397,3.5217,3.4287,3.349,3.243,3.1824,3.1768,3.1553,3.1496,3.1496,3.1496,3.1931,3.2498,3.2634,3.2643,3.3055,3.3091,3.3043,3.3102,3.3195,3.3601,3.4235,3.4178,3.3978,3.4233,3.3939,3.3687,3.3475,3.3404,3.3559,3.3575,3.3721,3.3852,3.3934,3.4436,3.4783,3.4941,3.5253,3.5509,3.5414,3.5498,3.56,3.5566,3.5532,3.5515,3.5295,3.4641,3.4474,3.4461,3.4538,3.4695,3.5045,3.5446,3.5733,3.5968,3.6177,3.6678,3.7398,3.8024,3.8667,3.93,3.9419,3.9768,3.9501,3.9138,3.8525,3.757,3.6478,3.5786,3.5218,3.4472,3.4268,3.4503,3.4743,3.5431,3.6105,3.6609,3.723,3.9694,3.9388,3.9388,3.9455,3.9794,4.088,4.1278,4.1189,4.152,4.1508,4.1008,3.9929,3.9279,3.8881,3.8497,3.8189,3.7835,3.7793,3.7969,3.8354,3.8781,3.9166,3.9391,3.9268,3.9279,3.9901,4.0113,4.0113,4.0045,3.9756,3.9705,3.9969,3.9428,3.9054,3.8782,3.8319,3.7311,3.6166,3.4883,3.3814,3.3047,3.2114,3.1496,3.138,3.119,3.1058,3.1467,3.1496,3.171,3.2041,3.2391,3.2828,3.3272,3.3192,3.3148,3.3428,3.3472,3.386,3.4219,3.4275,3.4091,3.4081,3.3747,3.3668,3.3608,3.3608,3.3786,3.3887,3.382,3.3608,3.3624,3.3853,3.4211,3.46,3.4894,3.5253,3.5532,3.56,3.5414,3.5216,3.5047,3.5047,3.4861,3.4573,3.4493,3.4444,3.4529,3.4652,3.4618,3.504,3.5553,3.581,3.5904,3.6306,3.7079,3.7723,3.8302,3.8836,3.9191,3.9839,4.0225,3.9846,3.9445,3.8606,3.7863,3.6635,3.5993,3.5182,3.4504,3.4528,3.4854,3.5402,3.6,3.6657,3.7195,3.9918,3.9388,3.9388,3.9783,4.0449,4.1481,4.1911,4.1957,4.2355,4.2185,4.1405,4.0569,3.9668,3.9143,3.853,3.8104,3.7621,3.7766,3.7783,3.7777,3.8168,3.8541,3.8731,3.8476,3.8513,3.9679,3.9558,3.9584,3.9428,3.9156,3.9022,3.9375,3.8557,3.828,3.8368,3.7492,3.6522,3.5697,3.4419,3.3339,3.2554,3.1722,3.1205,3.0777,3.0592,3.061,3.1043,3.1219,3.138,3.1524,3.2092,3.2788,3.323,3.3226,3.3028,3.3687,3.3742,3.4139,3.4519,3.4367,3.3865,3.347,3.3406,3.3413,3.3417,3.3391,3.3556,3.3659,3.354,3.3103,3.3287,3.3391,3.3751,3.426,3.4503,3.4918,3.5424,3.56,3.5278,3.4759,3.4895,3.5064,3.4742,3.4421,3.4421,3.4438,3.4523,3.4624,3.459,3.466,3.5211,3.5689,3.5807,3.6249,3.7012,3.7389,3.7973,3.8377,3.8846,3.9727,4.0579,4.0704,4.0406,4.0241,3.9451,3.8207,3.7012,3.6154,3.5529,3.5003,3.4975,3.552,3.6123,3.6725,3.724,3.9478,3.9388,3.9388,3.9187,3.9187,4.1061,4.1677,4.1517,4.2482,4.3122,4.2652,4.0955,3.9967,3.9439,3.7719,3.6677,3.6585,3.6971,3.7499,3.7638,3.8038,3.8418,3.8453,3.7866,3.7867,3.808,3.8133,3.8088,3.8318,3.8064,3.8177,3.8149,3.7835,3.7817,3.7778,3.7158,3.6355,3.5647,3.4379,3.3291,3.2541,3.1276,3.0294,2.986,2.9834,3.0094,3.0369,3.0524,3.0807,3.1438,3.1611,3.2346,3.3236,3.3789,3.4117,3.4255,3.425,3.4499,3.4783,3.3778,3.3319,3.3244,3.3088,3.2861,3.2841,3.2841,3.3119,3.2906,3.2571,3.2007,3.1894,3.2571,3.3119,3.37,3.4333,3.4871,3.5424,3.5549,3.5278,3.4658,3.4912,3.5076,3.4658,3.437,3.4387,3.437,3.4404,3.4709,3.4928,3.4851,3.4917,3.5362,3.5734,3.6319,3.6997,3.7255,3.7619,3.79,3.8459,3.9422,4.0289,4.1231,4.1375,4.1194,4.071,3.9694,3.8499,3.7381,3.644,3.5864,3.5763,3.5695,3.6293,3.6962,3.745,3.9687,3.9403,3.9388,3.923,3.9239,4.0603,4.0952,4.0499,4.1227,4.1657,4.1261,4.0172,3.9479,3.9188,3.8452,3.7188,3.6491,3.6214,3.6875,3.7355,3.7292,3.7512,3.7854,3.7111,3.6321,3.5964,3.5854,3.6675,3.7632,3.7352,3.7322,3.7544,3.7086,3.6981,3.7365,3.6668,3.624,3.5644,3.4511,3.3394,3.281,3.1123,2.9865,2.9592,2.9448,2.9597,2.9635,2.9932,3.028,3.0731,3.0881,3.1663,3.2699,3.3604,3.4175,3.4454,3.4536,3.444,3.4486,3.3427,3.3141,3.2916,3.271,3.2839,3.3013,3.3172,3.3093,3.2906,3.2532,3.2216,3.268,3.2586,3.3093,3.3912,3.4447,3.4911,3.5402,3.5577,3.5216,3.4692,3.4759,3.4776,3.4489,3.432,3.4353,3.4336,3.4286,3.4573,3.4996,3.4575,3.4248,3.5407,3.5941,3.667,3.7125,3.7204,3.7363,3.7607,3.8006,3.899,3.9964,4.0849,4.1724,4.2121,4.1504,4.0778,4.0024,3.8906,3.7829,3.6741,3.6435,3.6317,3.6684,3.7163,3.7742,3.9903,3.9388,3.9388,3.9388,3.9553,4.0328,4.043,4.0006,4.0166,4.0353,4.0148,3.9561,3.9122,3.8843,3.8423,3.7671,3.6538,3.5999,3.6412,3.6832,3.6415,3.6394,3.663,3.6093,3.5201,3.457,3.437,3.4922,3.5872,3.5824,3.6121,3.5965,3.5287,3.5402,3.5981,3.5309,3.5539,3.533,3.4515,3.3469,3.2401,3.1179,2.9777,2.9388,2.9169,2.904,2.9029,2.9113,2.9521,2.9922,3.0258,3.0803,3.1996,3.2766,3.3495,3.4258,3.454,3.431,3.3919,3.3545,3.3155,3.2676,3.2601,3.2931,3.3427,3.3608,3.3659,3.3391,3.2949,3.2532,3.2664,3.2761,3.3182,3.3962,3.4471,3.4847,3.5379,3.5549,3.5397,3.503,3.4776,3.4438,3.4167,3.4269,3.4286,3.3914,3.3846,3.3846,3.4083,3.3305,3.3417,3.5169,3.6269,3.704,3.7381,3.7251,3.7332,3.7388,3.7728,3.8365,3.9411,4.0434,4.1273,4.2076,4.2271,4.1564,4.0973,4.0215,3.8878,3.7787,3.7119,3.693,3.7234,3.7753,3.8345,3.9499,3.9388,3.9388,3.9388,3.9517,4.0309,4.0628,4.0528,4.0562,4.086,4.0468,4.0087,3.9312,3.8679,3.7466,3.6859,3.6569,3.6364,3.636,3.6611,3.6342,3.6297,3.6507,3.5878,3.4835,3.3993,3.3876,3.3573,3.3654,3.3378,3.3323,3.3462,3.3579,3.3213,3.3815,3.3801,3.3723,3.4112,3.375,3.252,3.1057,3.0989,2.9845,2.8511,2.814,2.8415,2.8462,2.8385,2.8548,2.9237,2.9651,3.0215,3.094,3.1505,3.265,3.3825,3.4717,3.5085,3.4292,3.3664,3.308,3.2541,3.2525,3.2931,3.3556,3.3987,3.3862,3.2761,3.2629,3.2504,3.2407,3.2394,3.296,3.3659,3.4309,3.4823,3.5362,3.56,3.543,3.5414,3.5199,3.4404,3.3829,3.4049,3.4167,3.3744,3.3423,3.3389,3.344,3.2966,3.2801,3.4597,3.6118,3.6965,3.7326,3.7231,3.7129,3.7163,3.7592,3.7944,3.8841,3.9884,4.0736,4.1428,4.183,4.2169,4.1628,4.0739,3.9654,3.8748,3.7913,3.7708,3.7753,3.8328,3.8863,3.8497,3.8871,3.9275,3.9388,3.9445,3.9844,3.9712,3.9375,3.9072,3.8992,3.8937,3.8404,3.815,3.7984,3.7058,3.6615,3.6507,3.6163,3.6196,3.6282,3.6178,3.6133,3.6282,3.575,3.4806,3.3602,3.3031,3.2191,3.1792,3.2105,3.2593,3.2522,3.2558,3.27,3.2415,3.2723,3.296,3.3014,3.2647,3.1933,3.1066,3.0444,2.9575,2.7904,2.8285,2.8276,2.7979,2.8007,2.8334,2.8999,2.9235,2.9808,3.087,3.1523,3.2041,3.2573,3.3609,3.3989,3.384,3.3274,3.2691,3.2299,3.2384,3.3055,3.3836,3.4037,3.4112,3.3836,3.3029,3.2614,3.2489,3.2614,3.296,3.3547,3.4186,3.4616,3.5121,3.547,3.5566,3.56,3.5464,3.4556,3.3728,3.3592,3.3609,3.3237,3.2831,3.2611,3.3203,3.3728,3.3721,3.4127,3.5533,3.6735,3.6972,3.702,3.6783,3.689,3.7558,3.7957,3.8413,3.9284,4.0238,4.1028,4.157,4.1823,4.1891,4.1334,4.0277,3.9444,3.8629,3.8476,3.8336,3.8572,3.8975,3.6893,3.7302,3.8439,3.8916,3.891,3.9059,3.8871,3.8382,3.7788,3.7525,3.7313,3.683,3.692,3.7383,3.686,3.6368,3.6554,3.5846,3.5839,3.5908,3.5848,3.5833,3.5923,3.5523,3.4624,3.2961,3.3241,3.2177,3.1304,3.1365,3.2033,3.1938,3.1623,3.1719,3.1901,3.21,3.2316,3.2666,3.2284,3.1764,3.1118,3.0401,2.9447,2.8756,2.8549,2.8536,2.7908,2.7869,2.8515,2.8734,2.8846,2.9416,3.0472,3.0828,3.1114,3.1484,3.1991,3.2344,3.2608,3.257,3.2139,3.1951,3.2132,3.296,3.3659,3.3684,3.3547,3.3786,3.3172,3.2868,3.2906,3.2625,3.3039,3.3531,3.4186,3.4503,3.4854,3.5316,3.5566,3.5515,3.5228,3.4556,3.3812,3.3305,3.2983,3.2696,3.2324,3.1935,3.2594,3.3592,3.3883,3.3911,3.5057,3.6267,3.6691,3.6739,3.6495,3.674,3.7427,3.7885,3.8295,3.9027,3.9976,4.066,4.1228,4.1203,4.1148,4.1073,4.0931,3.9947,3.9136,3.9003,3.8949,3.9103,3.9051,3.4459,3.4108,3.6485,3.75,3.7575,3.8212,3.8422,3.8242,3.7644,3.7304,3.7083,3.6285,3.6461,3.7071,3.6399,3.6006,3.6492,3.5831,3.5644,3.5609,3.5534,3.5579,3.5624,3.5401,3.4953,3.3959,3.3656,3.2678,3.1573,3.1389,3.1044,3.0139,3.0533,3.0216,3.0394,3.1044,3.1756,3.2141,3.2085,3.1581,3.1051,3.0513,3.0051,2.905,2.8838,2.8825,2.8737,2.8423,2.8334,2.8542,2.8694,2.8922,2.9699,3.0033,3.0368,3.0315,3.0293,3.0701,3.1171,3.1852,3.2064,3.1892,3.2076,3.2586,3.3039,3.3391,3.3313,3.296,3.2641,3.2272,3.216,3.2173,3.2664,3.314,3.3735,3.4374,3.48,3.5339,3.5526,3.543,3.5076,3.4607,3.4083,3.3609,3.2544,3.2171,3.1935,3.1562,3.1938,3.273,3.3237,3.3673,3.4705,3.5685,3.6422,3.6547,3.6727,3.7051,3.7609,3.7874,3.8102,3.8952,3.9944,4.0202,4.0696,4.0546,4.047,4.0584,4.0491,4.0043,3.9652,3.945,3.9428,3.9519,3.9319,3.3196,3.3088,3.4073,3.5278,3.6561,3.681,3.726,3.7639,3.712,3.6582,3.6267,3.5746,3.5829,3.6068,3.5973,3.5619,3.5863,3.5683,3.5489,3.5489,3.5504,3.5504,3.5504,3.5377,3.4986,3.4264,3.3979,3.3415,3.22,3.215,3.1499,3.0833,3.0241,2.9856,3.0037,3.0241,3.0884,3.1328,3.1304,3.0727,3.0966,3.0027,2.949,2.9038,2.8888,2.8888,2.8838,2.87,2.885,2.8988,2.9001,2.9113,2.934,2.9654,2.9492,2.9286,2.9171,2.9537,2.9875,3.0719,3.1161,3.163,3.1796,3.2092,3.241,3.2504,3.2544,3.2355,3.2203,3.1796,3.171,3.1768,3.2048,3.2501,3.3166,3.3962,3.4592,3.5091,3.5515,3.5453,3.5307,3.5008,3.4489,3.3964,3.273,3.1664,3.1427,3.1413,3.1921,3.2462,3.3152,3.3795,3.4793,3.5681,3.6448,3.6771,3.7003,3.7346,3.77,3.7919,3.8167,3.9216,4.006,4.0187,4.0212,4.0262,4.0275,4.0257,4.0141,3.9963,3.9935,3.987,3.99,3.991,3.9613,3.1756,3.1756,3.1756,3.3004,3.4918,3.5503,3.6064,3.6591,3.6585,3.6252,3.5756,3.538,3.53,3.54,3.4775,3.4714,3.4665,3.4607,3.4802,3.4887,3.4953,3.5213,3.5489,3.5653,3.561,3.4901,3.497,3.4695,3.3502,3.3413,3.2658,3.1779,3.0983,3.0595,2.9779,2.9818,3.0139,3.0419,3.0317,3.0037,3.0505,2.9871,2.9277,2.9227,2.9239,2.9239,2.9252,2.9227,2.9365,2.9453,2.9478,2.944,2.9578,2.9528,2.9013,2.8657,2.8546,2.885,2.8975,2.995,3.0851,3.1438,3.1524,3.1824,3.1979,3.1796,3.1894,3.2092,3.1768,3.1496,3.1496,3.1582,3.1881,3.2394,3.2745,3.3469,3.4103,3.4657,3.5138,3.5436,3.5144,3.4605,3.453,3.3972,3.3326,3.2266,3.1955,3.2087,3.2628,3.3169,3.3778,3.4387,3.5028,3.5859,3.6632,3.662,3.6629,3.6997,3.7377,3.7887,3.8394,3.9336,3.9986,4.0146,4.0146,4.0096,4.0128,4.0175,4.0152,4.0103,4.0053,4.0035,4.0044,3.9986,3.9859,2.9934,2.9869,2.9895,3.0985,3.2707,3.4334,3.4977,3.5319,3.6052,3.639,3.6063,3.4859,3.4735,3.5065,3.3853,3.3424,3.3514,3.3213,3.331,3.3925,3.4279,3.4691,3.5332,3.58,3.6118,3.6661,3.6461,3.5869,3.5043,3.4794,3.396,3.2848,3.201,3.1304,2.9921,2.9792,2.983,2.983,2.9818,2.9895,2.9908,2.9756,2.9641,2.9628,2.9628,2.9603,2.9591,2.9603,2.9641,2.9541,2.9553,2.949,2.9465,2.9126,2.8599,2.8133,2.8094,2.8071,2.8014,3.016,3.1131,3.1453,3.1496,3.1611,3.1582,3.1496,3.1524,3.1768,3.1553,3.1496,3.1496,3.1611,3.1994,3.2203,3.2559,3.3039,3.3675,3.4087,3.4585,3.4864,3.4253,3.374,3.3941,3.3907,3.3612,3.3064,3.2608,3.2763,3.3322,3.3744,3.4269,3.4928,3.547,3.6231,3.6797,3.632,3.629,3.6622,3.7163,3.7807,3.819,3.8712,3.9308,3.9859,4.0113,4.0113,4.0113,4.0104,4.0113,4.0113,4.0113,4.0079,4.0096,4.007,3.9952,2.9365,2.8676,2.8676,2.9045,2.9846,3.1659,3.3147,3.4378,3.5344,3.5848,3.5576,3.4486,3.4122,3.4062,3.3345,3.2602,3.2734,3.2778,3.2947,3.3052,3.3553,3.4095,3.4762,3.5464,3.615,3.6415,3.6538,3.6631,3.6089,3.5726,3.4769,3.3671,3.2393,3.1402,3.0696,3.0241,2.9792,2.9779,2.9779,2.9779,2.9779,2.9779,2.9779,2.9779,2.9779,2.9779,2.9779,2.9779,2.9666,2.9415,2.9377,2.9202,2.8925,2.8461,2.8172,2.772,2.7593,2.7928,2.8533,2.9981,3.0896,3.1248,3.1496,3.1496,3.1496,3.1496,3.1496,3.1524,3.1596,3.1582,3.1496,3.2035,3.2342,3.2092,3.2339,3.2826,3.3339,3.3582,3.3912,3.3987,3.3663,3.3558,3.3648,3.3677,3.3449,3.3499,3.3101,3.3481,3.4044,3.4218,3.459,3.5334,3.5994,3.6705,3.7071,3.6878,3.7116,3.7719,3.79,3.8088,3.8335,3.849,3.9051,3.9851,4.0011,4.0113,4.0113,4.0113,4.0113,4.0113,4.0113,4.0113,4.0113,4.0113,4.007,2.9157,2.8136,2.8084,2.7896,2.7912,2.9757,3.187,3.3842,3.4739,3.5284,3.5448,3.4288,3.3824,3.3571,3.249,3.181,3.1864,3.169,3.1997,3.2105,3.2664,3.3345,3.4095,3.4912,3.5852,3.626,3.6492,3.6523,3.6507,3.6102,3.5142,3.3828,3.2451,3.1719,3.1044,3.0343,2.9779,2.9779,2.9779,2.9779,2.9779,2.9779,2.9779,2.9779,2.9779,2.9779,2.9779,2.9729,2.9628,2.9302,2.9126,2.8913,2.8524,2.8147,2.7858,2.7457,2.717,2.7674,2.8616,2.9328,3.0176,3.0896,3.1278,3.1467,3.1496,3.1496,3.171,3.1824,3.1838,3.2048,3.2228,3.2788,3.2761,3.2516,3.2489,3.3013,3.3103,3.3391,3.3235,3.3271,3.3287,3.3261,3.3271,3.3332,3.3256,3.3445,3.3596,3.4103,3.4516,3.4639,3.4718,3.529,3.6076,3.6757,3.7386,3.7786,3.8148,3.8787,3.8411,3.7807,3.8556,3.8737,3.927,3.9724,3.9952,4.0096,4.0096,4.0113,4.0113,4.0113,4.0113,4.0113,4.0113,4.0113,4.0113,2.9118,2.8176,2.8044,2.7452,2.6982,2.866,3.1146,3.3794,3.3979,3.4898,3.6112,3.3703,3.3344,3.3522,3.1289,3.0393,3.0596,3.024,3.0584,3.1082,3.1523,3.2464,3.349,3.443,3.525,3.6307,3.6676,3.6291,3.6507,3.5947,3.508,3.3964,3.2642,3.1719,3.0871,3.0279,2.9818,2.9779,2.9779,2.9779,2.9779,2.9779,2.9779,2.9779,2.9779,2.9779,2.9779,2.9754,2.9704,2.9616,2.9616,2.9277,2.8863,2.836,2.7833,2.7281,2.6776,2.74,2.8239,2.8867,2.9577,3.045,3.1117,3.1365,3.164,3.1768,3.2064,3.2422,3.2625,3.2997,3.3365,3.3469,3.3572,3.3287,3.2997,3.313,3.313,3.3024,3.2745,3.2652,3.2625,3.2598,3.2625,3.2701,3.2814,3.3059,3.3297,3.386,3.4277,3.4688,3.4772,3.4928,3.5739,3.6683,3.7225,3.7367,3.7347,3.7392,3.7198,3.6862,3.7833,3.8487,3.8616,3.8946,3.9775,4.0096,4.0096,4.0113,4.0113,4.0113,4.0113,4.0113,4.0113,4.0113,4.0113,2.9145,2.8044,2.729,2.676,2.6707,2.7928,2.9847,3.1983,3.3345,3.439,3.4656,3.3942,3.3381,3.2927,3.1474,3.0636,3.0176,2.9931,2.9972,3.0317,3.082,3.1462,3.2186,3.3066,3.4201,3.5008,3.5458,3.5633,3.6011,3.5567,3.4292,3.3017,3.2177,3.123,3.0495,2.9921,2.9856,2.9779,2.9779,2.9779,2.9779,2.9779,2.9779,2.9779,2.9779,2.9779,2.9779,2.9779,2.9654,2.9315,2.9227,2.8762,2.7795,2.7582,2.7316,2.6813,2.6678,2.696,2.7821,2.8587,2.9303,3.0163,3.1014,3.1752,3.2107,3.2327,3.2559,3.2906,3.3261,3.3582,3.3846,3.4012,3.4062,3.3912,3.3684,3.3608,3.3505,3.305,3.2718,3.2256,3.2216,3.2048,3.2048,3.2033,3.2176,3.2501,3.2926,3.3455,3.3977,3.4333,3.4512,3.4643,3.5079,3.591,3.5947,3.6042,3.5952,3.5839,3.589,3.5922,3.6198,3.6803,3.742,3.8328,3.9395,3.9893,4.0096,4.0113,4.0113,4.0113,4.0113,4.0113,4.0113,4.0113,4.0113,2.8478,2.736,2.6284,2.5839,2.6016,2.6994,2.8457,3.0151,3.2042,3.3052,3.3429,3.3429,3.3136,3.2577,3.1636,3.0884,3.0432,2.9985,2.9856,2.9998,3.0419,3.0871,3.1328,3.1815,3.2821,3.3551,3.3873,3.3989,3.4644,3.4192,3.2961,3.2105,3.1365,3.0709,3.0075,2.9818,2.9818,2.9779,2.9779,2.9779,2.9779,2.9779,2.9779,2.9779,2.9779,2.9779,2.9779,2.9779,2.9566,2.9315,2.9239,2.8875,2.7946,2.762,2.7102,2.6663,2.6546,2.6692,2.7315,2.8417,2.9129,2.9905,3.0852,3.1949,3.2477,3.2761,3.3039,3.3339,3.371,3.4046,3.4268,3.4479,3.4479,3.4471,3.4333,3.4194,3.3744,3.3235,3.2691,3.2104,3.1809,3.1625,3.1553,3.1496,3.1658,3.2197,3.2518,3.2775,3.3341,3.3814,3.3931,3.3995,3.4436,3.4981,3.4894,3.4946,3.5193,3.5368,3.5641,3.5558,3.518,3.5665,3.6761,3.7972,3.9218,3.9657,4.007,4.0113,4.0113,4.0113,4.0113,4.0113,4.0113,4.0113,4.0113,2.7331,2.6431,2.5294,2.4745,2.4777,2.5848,2.6919,2.7996,2.9834,3.1473,3.2307,3.2607,3.2607,3.2164,3.1499,3.1068,3.0558,3.0037,2.9779,2.9779,2.9921,3.0305,3.0771,3.118,3.1765,3.2236,3.2593,3.2792,3.27,3.25,3.2069,3.1217,3.1007,3.052,2.9934,2.9779,2.9779,2.9779,2.9779,2.9779,2.9779,2.9779,2.9779,2.9779,2.9779,2.9779,2.9779,2.9779,2.9779,2.9779,2.9691,2.9402,2.8574,2.7808,2.7128,2.67,2.6512,2.6555,2.6973,2.7966,2.8684,2.9504,3.048,3.1903,3.2648,3.3039,3.3313,3.4053,3.4496,3.464,3.4854,3.5028,3.5091,3.5028,3.4894,3.4829,3.4594,3.3902,3.3033,3.2397,3.1796,3.1596,3.1496,3.1511,3.1765,3.2152,3.2375,3.2479,3.2813,3.336,3.3489,3.3456,3.3439,3.374,3.3857,3.4007,3.4663,3.4967,3.4951,3.4703,3.3954,3.4893,3.6254,3.7695,3.9144,3.9648,4.002,4.007,4.0113,4.0113,4.0113,4.0113,4.0113,4.0113,4.0113,2.612,2.6389,2.5294,2.4154,2.3293,2.4566,2.5216,2.5295,2.6903,2.9127,3.1275,3.2128,3.2164,3.1596,3.1389,3.0957,3.0279,3.0075,2.9818,2.9779,2.9779,2.9895,3.0139,3.0343,3.0758,3.1241,3.1646,3.1829,3.2069,3.1829,3.1476,3.1119,3.0696,3.0037,2.983,2.9779,2.9779,2.9779,2.9779,2.9779,2.9779,2.9779,2.9779,2.9779,2.9779,2.9779,2.9779,2.9779,2.9779,2.9779,2.9779,2.9252,2.8335,2.767,2.709,2.6625,2.6487,2.6487,2.6782,2.755,2.8312,2.9097,3.0165,3.1702,3.2725,3.314,3.3751,3.4609,3.5161,3.5253,3.5299,3.547,3.56,3.5532,3.5464,3.5402,3.5382,3.45,3.3543,3.277,3.2027,3.1682,3.1582,3.1645,3.1914,3.2153,3.2362,3.2512,3.2676,3.3072,3.3189,3.3041,3.2262,3.2342,3.2629,3.2982,3.3565,3.3298,3.3003,3.2813,3.2769,3.4347,3.5967,3.7704,3.9046,3.9447,3.9825,4.007,4.0113,4.0113,4.0113,4.0113,4.0113,4.0113,4.0113,2.4854,2.5398,2.4998,2.381,2.273,2.4051,2.4577,2.4542,2.5848,2.7446,2.9204,3.0478,3.1138,3.1079,3.1204,3.097,3.0279,2.996,2.9856,2.9779,2.9779,2.9779,2.9779,2.9779,3.0062,3.052,3.0595,3.0846,3.1341,3.0983,3.0558,3.052,2.9998,2.9779,2.9779,2.9779,2.9779,2.9779,2.9779,2.9779,2.9779,2.9779,2.9779,2.9779,2.9779,2.9779,2.9779,2.9779,2.9779,2.9779,2.9779,2.9164,2.8423,2.7871,2.7304,2.6751,2.6487,2.6487,2.6714,2.7229,2.8032,2.8876,2.9797,3.1317,3.2567,3.3013,3.3556,3.4399,3.5253,3.5453,3.5191,3.523,3.5492,3.5554,3.5622,3.5625,3.5688,3.5399,3.4581,3.384,3.2958,3.1938,3.1768,3.1511,3.1884,3.2721,3.2841,3.3305,3.335,3.2976,3.3021,3.2931,3.2318,3.175,3.1905,3.2143,3.24,3.1941,3.1511,3.1805,3.241,3.4075,3.5739,3.7006,3.8171,3.9069,3.9437,3.9756,4.0045,4.0113,4.0113,4.0113,4.0096,4.007,4.0045,2.3365,2.3856,2.4283,2.3459,2.22,2.3708,2.4179,2.4001,2.5239,2.5986,2.6479,2.8071,2.9478,3.0454,3.0781,3.0906,3.072,3.0075,2.983,2.9779,2.9779,2.9779,2.9779,2.9818,2.9934,2.9934,2.996,2.996,3.0101,2.996,2.996,2.9818,2.9779,2.9779,2.9779,2.9779,2.9779,2.9779,2.9779,2.9779,2.9779,2.9779,2.9779,2.9779,2.9779,2.9779,2.9779,2.9779,2.9779,2.9779,2.9729,2.9089,2.8511,2.7996,2.7344,2.6826,2.6487,2.6487,2.6611,2.704,2.7868,2.8716,2.9659,3.0704,3.1959,3.2841,3.3401,3.4087,3.4918,3.5299,3.5012,3.4988,3.5293,3.587,3.5955,3.5904,3.5998,3.6022,3.538,3.4673,3.365,3.2511,3.2066,3.1769,3.2196,3.3036,3.3589,3.4173,3.4352,3.3679,3.332,3.3275,3.2991,3.2392,3.1824,3.1884,3.2213,3.1735,3.1511,3.1615,3.2091,3.362,3.486,3.5718,3.6835,3.8119,3.8989,3.9437,3.9688,4.0045,4.0113,4.007,3.9978,3.9978,3.9978,2.1362,2.1848,2.2621,2.2296,2.1593,2.2518,2.2512,2.1978,2.2572,2.3423,2.4541,2.5046,2.6365,2.8667,2.8667,2.8993,2.9704,2.9534,2.9779,2.9779,2.9753,2.9779,2.9779,2.9779,2.9779,2.9779,2.9779,2.9779,2.9779,2.9779,2.9779,2.9779,2.9779,2.9779,2.9779,2.9779,2.9779,2.9779,2.9779,2.9779,2.9779,2.9779,2.9779,2.9779,2.9779,2.9779,2.9779,2.9779,2.9779,2.9779,2.9716,2.9139,2.8624,2.8147,2.7582,2.6952,2.6625,2.6537,2.6709,2.6794,2.7417,2.8084,2.902,3.0015,3.1202,3.2296,3.2848,3.3469,3.4178,3.464,3.4592,3.4688,3.4991,3.6215,3.6806,3.6411,3.6255,3.6009,3.5548,3.4861,3.4124,3.3272,3.2698,3.2624,3.2828,3.344,3.3606,3.4144,3.4637,3.4158,3.3604,3.3589,3.3544,3.3036,3.2437,3.2333,3.2437,3.1884,3.166,3.2004,3.2497,3.3156,3.4197,3.5199,3.6188,3.7417,3.8157,3.9032,3.9542,3.9901,4.0045,4.007,3.9952,3.974,3.9636]}]]